[[{"header":{"parameterUnit":"m.s-1","parameterCategory":1,"la1":30.6,"la2":29.2853,"lo1":-89.7004,"lo2":-87.6739,"dy":0.0162,"dx":0.0183,"nx":112,"ny":82,"refTime":"2026-03-22T00:00:00:Z","depth":0,"parameterNumber":2,"parameterNumberName":"U-component_of_WINDS"},"data":[0.0,0.0,0.0,0.0,0.0,0.0,0.0,0.0,0.0,0.0,0.0,0.0,0.0,0.0,0.0,0.0,0.0,0.0,0.0,0.0,0.0,0.0,0.0,0.0,0.0,0.0,0.0,0.0,0.0,0.0,0.0,0.0,0.0,0.0,0.0,0.0,0.0,0.0,0.0,0.0,0.0,0.0,0.0,0.0,0.0,0.0,0.0,0.0,0.0,0.0,0.0,0.0,0.0,0.0,0.0,0.0,0.0,0.0,0.0,0.0,0.0,0.0,0.0,0.0,0.0,0.0,0.0,0.0,0.0,0.0,0.0,0.0,0.0,0.0,0.0,0.0,0.0,0.0,0.0,0.0,0.0,0.0,0.0,0.0,0.0,0.0,0.0,0.0,0.0,0.0,-2.2981,-2.3229,-2.4894,-2.6371,-2.7242,-2.6113,-2.5497,-2.5884,0.0,0.0,0.0,0.0,0.0,0.0,0.0,0.0,0.0,0.0,0.0,0.0,0.0,0.0,0.0,0.0,0.0,0.0,0.0,0.0,0.0,0.0,0.0,0.0,0.0,0.0,0.0,0.0,0.0,0.0,0.0,0.0,0.0,0.0,0.0,0.0,0.0,0.0,0.0,0.0,0.0,0.0,0.0,0.0,0.0,0.0,0.0,0.0,0.0,0.0,0.0,0.0,0.0,0.0,0.0,0.0,0.0,0.0,0.0,0.0,0.0,0.0,0.0,0.0,0.0,0.0,0.0,0.0,0.0,0.0,0.0,0.0,0.0,0.0,0.0,0.0,0.0,0.0,0.0,0.0,0.0,0.0,0.0,0.0,0.0,0.0,0.0,0.0,0.0,0.0,0.0,0.0,0.0,0.0,0.0,0.0,0.0,0.0,0.0,0.0,0.0,0.0,0.0,0.0,-2.324,-2.5435,-2.6168,-2.6714,-2.7249,-2.6244,-2.5636,-2.5894,0.0,0.0,0.0,0.0,0.0,0.0,0.0,0.0,0.0,0.0,0.0,0.0,0.0,0.0,0.0,0.0,0.0,0.0,0.0,0.0,0.0,0.0,0.0,0.0,0.0,0.0,0.0,0.0,0.0,0.0,0.0,0.0,0.0,0.0,0.0,0.0,0.0,0.0,0.0,0.0,0.0,0.0,0.0,0.0,0.0,0.0,0.0,0.0,0.0,0.0,0.0,0.0,0.0,0.0,0.0,0.0,0.0,0.0,0.0,0.0,0.0,0.0,0.0,0.0,0.0,0.0,0.0,0.0,0.0,0.0,0.0,0.0,0.0,0.0,0.0,0.0,0.0,0.0,0.0,0.0,0.0,0.0,0.0,0.0,0.0,0.0,0.0,0.0,0.0,0.0,0.0,0.0,0.0,0.0,0.0,0.0,0.0,0.0,0.0,0.0,0.0,0.0,0.0,-2.3178,-2.3843,-2.6072,-2.6422,-2.6761,-2.741,-2.6326,-2.5727,-2.6044,-2.4797,0.0,0.0,0.0,0.0,0.0,0.0,0.0,0.0,0.0,0.0,0.0,0.0,0.0,0.0,0.0,0.0,0.0,0.0,0.0,0.0,0.0,0.0,0.0,0.0,0.0,0.0,0.0,0.0,0.0,0.0,0.0,0.0,0.0,0.0,0.0,0.0,0.0,0.0,0.0,0.0,0.0,0.0,0.0,0.0,0.0,0.0,0.0,0.0,0.0,0.0,0.0,0.0,0.0,0.0,0.0,0.0,0.0,0.0,0.0,0.0,0.0,0.0,0.0,0.0,0.0,0.0,0.0,0.0,0.0,0.0,0.0,0.0,0.0,0.0,0.0,0.0,0.0,0.0,0.0,0.0,0.0,0.0,0.0,0.0,0.0,0.0,0.0,0.0,0.0,0.0,0.0,0.0,0.0,0.0,0.0,0.0,0.0,0.0,0.0,0.0,0.0,0.0,-2.4127,-2.4573,-2.6145,-2.648,-2.6852,-2.7454,-2.629,-2.5701,-2.6137,-2.4491,0.0,0.0,0.0,0.0,0.0,0.0,0.0,0.0,0.0,0.0,0.0,0.0,0.0,0.0,0.0,0.0,0.0,0.0,0.0,0.0,0.0,0.0,0.0,0.0,0.0,0.0,0.0,0.0,0.0,0.0,0.0,0.0,0.0,0.0,0.0,0.0,0.0,0.0,0.0,0.0,0.0,0.0,0.0,0.0,0.0,0.0,0.0,0.0,0.0,0.0,0.0,0.0,0.0,0.0,0.0,0.0,0.0,0.0,0.0,0.0,0.0,0.0,0.0,0.0,0.0,0.0,0.0,0.0,0.0,0.0,0.0,0.0,0.0,0.0,0.0,0.0,0.0,0.0,0.0,0.0,0.0,0.0,0.0,0.0,0.0,0.0,0.0,0.0,0.0,0.0,0.0,0.0,0.0,0.0,0.0,0.0,0.0,0.0,0.0,0.0,0.0,0.0,-2.4366,-2.5262,-2.5946,-2.6703,-2.7188,-2.7218,-2.6007,-2.5452,-2.5994,-2.4765,0.0,0.0,0.0,0.0,0.0,0.0,0.0,0.0,0.0,0.0,0.0,0.0,0.0,0.0,0.0,0.0,0.0,0.0,0.0,0.0,0.0,0.0,0.0,0.0,0.0,0.0,0.0,0.0,0.0,0.0,0.0,0.0,0.0,0.0,0.0,0.0,0.0,0.0,0.0,0.0,0.0,0.0,0.0,0.0,0.0,0.0,0.0,0.0,0.0,0.0,0.0,0.0,0.0,0.0,0.0,0.0,0.0,0.0,0.0,0.0,0.0,0.0,0.0,0.0,0.0,0.0,0.0,0.0,0.0,0.0,0.0,0.0,0.0,0.0,0.0,0.0,0.0,0.0,0.0,0.0,0.0,0.0,0.0,0.0,0.0,0.0,0.0,0.0,0.0,0.0,0.0,0.0,0.0,0.0,0.0,0.0,0.0,0.0,0.0,0.0,0.0,0.0,-2.5052,-2.5634,0.0,-2.6894,-2.6931,-2.6606,-2.5722,-2.5124,-2.4947,0.0,0.0,0.0,0.0,0.0,0.0,0.0,0.0,0.0,0.0,0.0,0.0,0.0,0.0,0.0,0.0,0.0,0.0,0.0,0.0,0.0,0.0,0.0,0.0,0.0,0.0,0.0,0.0,0.0,0.0,0.0,0.0,0.0,0.0,0.0,0.0,0.0,0.0,0.0,0.0,0.0,0.0,0.0,0.0,0.0,0.0,0.0,0.0,0.0,0.0,0.0,0.0,0.0,0.0,0.0,0.0,0.0,0.0,0.0,0.0,0.0,0.0,0.0,0.0,0.0,0.0,0.0,0.0,0.0,0.0,0.0,0.0,0.0,0.0,0.0,0.0,0.0,0.0,0.0,0.0,0.0,0.0,0.0,0.0,0.0,0.0,0.0,0.0,0.0,0.0,0.0,0.0,0.0,0.0,0.0,0.0,0.0,0.0,0.0,0.0,0.0,0.0,-2.4993,-2.5206,-2.5551,0.0,-2.682,-2.6626,-2.5824,-2.5326,-2.4734,-2.3958,0.0,0.0,0.0,0.0,0.0,0.0,0.0,0.0,0.0,0.0,0.0,0.0,0.0,0.0,0.0,0.0,0.0,0.0,0.0,0.0,0.0,0.0,0.0,0.0,0.0,0.0,0.0,0.0,0.0,0.0,0.0,0.0,0.0,0.0,0.0,0.0,0.0,0.0,0.0,0.0,0.0,0.0,0.0,0.0,0.0,0.0,0.0,0.0,0.0,0.0,0.0,0.0,0.0,0.0,0.0,0.0,0.0,0.0,0.0,0.0,0.0,0.0,0.0,0.0,0.0,0.0,0.0,0.0,0.0,0.0,0.0,0.0,0.0,0.0,0.0,0.0,0.0,0.0,0.0,0.0,0.0,0.0,0.0,0.0,0.0,0.0,0.0,0.0,0.0,0.0,0.0,0.0,0.0,0.0,0.0,0.0,0.0,0.0,0.0,0.0,0.0,0.0,-2.4476,-2.4726,-2.4986,-2.5705,-2.6373,-2.6242,-2.4911,-2.4785,-2.4321,0.0,0.0,0.0,0.0,0.0,0.0,0.0,0.0,0.0,0.0,0.0,0.0,0.0,0.0,0.0,0.0,0.0,0.0,0.0,0.0,0.0,0.0,0.0,0.0,0.0,0.0,0.0,0.0,0.0,0.0,0.0,0.0,0.0,0.0,0.0,0.0,0.0,0.0,0.0,0.0,0.0,0.0,0.0,0.0,0.0,0.0,0.0,0.0,0.0,0.0,0.0,0.0,0.0,0.0,0.0,0.0,0.0,0.0,0.0,0.0,0.0,0.0,0.0,0.0,0.0,0.0,0.0,0.0,0.0,0.0,0.0,0.0,0.0,0.0,0.0,0.0,0.0,0.0,0.0,0.0,0.0,0.0,0.0,0.0,0.0,0.0,0.0,0.0,0.0,0.0,0.0,0.0,0.0,0.0,0.0,0.0,0.0,0.0,0.0,0.0,0.0,0.0,0.0,-2.3617,-2.388,-2.4124,-2.4794,-2.544,-2.5296,-2.4004,-2.432,-2.3909,-2.2293,0.0,0.0,0.0,0.0,0.0,0.0,0.0,0.0,0.0,0.0,0.0,0.0,0.0,0.0,0.0,0.0,0.0,0.0,0.0,0.0,0.0,0.0,0.0,0.0,0.0,0.0,0.0,0.0,0.0,0.0,0.0,0.0,0.0,0.0,0.0,0.0,0.0,0.0,0.0,0.0,0.0,0.0,0.0,0.0,0.0,0.0,0.0,0.0,0.0,0.0,0.0,0.0,0.0,0.0,0.0,0.0,0.0,0.0,0.0,0.0,0.0,0.0,0.0,0.0,0.0,0.0,0.0,0.0,0.0,0.0,0.0,0.0,0.0,0.0,0.0,0.0,0.0,0.0,0.0,0.0,0.0,0.0,0.0,0.0,0.0,0.0,0.0,0.0,0.0,0.0,0.0,0.0,0.0,0.0,0.0,0.0,0.0,0.0,0.0,0.0,0.0,0.0,-2.3255,-2.3702,-2.3892,-2.4093,-2.5097,-2.5055,-2.3293,-2.3979,-2.3603,-2.1485,0.0,0.0,0.0,0.0,0.0,0.0,0.0,0.0,0.0,0.0,0.0,0.0,0.0,0.0,0.0,0.0,0.0,0.0,0.0,0.0,0.0,0.0,0.0,0.0,0.0,0.0,0.0,0.0,0.0,0.0,0.0,0.0,0.0,0.0,0.0,0.0,0.0,0.0,0.0,0.0,0.0,0.0,0.0,0.0,0.0,0.0,0.0,0.0,0.0,0.0,0.0,0.0,0.0,0.0,0.0,0.0,0.0,0.0,0.0,0.0,0.0,0.0,0.0,0.0,0.0,0.0,0.0,0.0,0.0,0.0,0.0,0.0,0.0,0.0,0.0,0.0,0.0,0.0,0.0,0.0,0.0,0.0,0.0,0.0,0.0,0.0,0.0,0.0,0.0,0.0,0.0,0.0,0.0,0.0,0.0,0.0,0.0,0.0,0.0,0.0,0.0,0.0,-2.3122,-2.3847,-2.3978,-2.3421,-2.5003,-2.5132,-2.2769,-2.3683,-2.3302,-2.0834,0.0,0.0,0.0,0.0,0.0,0.0,0.0,0.0,0.0,0.0,0.0,0.0,0.0,0.0,0.0,0.0,0.0,0.0,0.0,0.0,0.0,0.0,0.0,0.0,0.0,0.0,0.0,0.0,0.0,0.0,0.0,0.0,0.0,0.0,0.0,0.0,0.0,0.0,0.0,0.0,0.0,0.0,0.0,0.0,0.0,0.0,0.0,0.0,0.0,0.0,0.0,0.0,0.0,0.0,0.0,0.0,0.0,0.0,0.0,0.0,-1.813,-1.8167,0.0,0.0,0.0,0.0,0.0,0.0,0.0,0.0,0.0,0.0,0.0,0.0,0.0,0.0,0.0,0.0,0.0,0.0,0.0,0.0,0.0,0.0,0.0,0.0,0.0,0.0,0.0,0.0,0.0,0.0,0.0,0.0,0.0,0.0,0.0,0.0,0.0,0.0,0.0,0.0,-2.2306,-2.2987,-2.3142,-2.2531,-2.3717,-2.3942,-2.2405,-2.2969,-2.2569,-2.0663,-2.0103,0.0,0.0,0.0,0.0,0.0,0.0,0.0,0.0,0.0,0.0,0.0,0.0,0.0,0.0,0.0,0.0,0.0,0.0,0.0,0.0,0.0,0.0,0.0,0.0,0.0,0.0,0.0,0.0,0.0,0.0,0.0,0.0,0.0,0.0,0.0,0.0,0.0,0.0,0.0,0.0,0.0,0.0,0.0,0.0,0.0,0.0,0.0,0.0,0.0,0.0,0.0,0.0,0.0,0.0,0.0,0.0,0.0,0.0,0.0,-1.783,-1.7918,0.0,0.0,0.0,0.0,0.0,0.0,0.0,0.0,0.0,0.0,0.0,0.0,0.0,0.0,0.0,0.0,0.0,0.0,0.0,0.0,0.0,0.0,0.0,0.0,0.0,0.0,0.0,0.0,0.0,0.0,0.0,0.0,0.0,0.0,0.0,0.0,0.0,0.0,0.0,0.0,-2.1513,-2.2349,-2.2557,-2.1722,-2.2762,-2.2962,-2.1541,-2.1951,-2.1442,-1.9472,-1.9279,0.0,0.0,0.0,0.0,0.0,0.0,0.0,0.0,0.0,0.0,0.0,0.0,0.0,0.0,0.0,0.0,0.0,0.0,0.0,0.0,0.0,0.0,0.0,0.0,0.0,0.0,0.0,0.0,0.0,0.0,0.0,0.0,0.0,0.0,0.0,0.0,0.0,0.0,0.0,0.0,0.0,0.0,0.0,0.0,0.0,0.0,0.0,0.0,0.0,0.0,0.0,0.0,0.0,-1.7157,-1.7557,-1.8081,-1.7876,-1.78,-1.7865,-1.7549,-1.7659,-1.7996,-1.7557,0.0,0.0,0.0,0.0,0.0,0.0,0.0,0.0,0.0,0.0,0.0,0.0,0.0,0.0,0.0,0.0,0.0,0.0,0.0,0.0,0.0,0.0,-1.8649,-1.8639,-1.8941,-1.9012,-1.8231,0.0,0.0,0.0,0.0,0.0,0.0,0.0,0.0,0.0,0.0,0.0,-2.096,-2.1862,-2.2098,-2.1167,-2.2007,-2.2107,-2.0721,-2.0867,-2.0241,-1.8372,-1.8522,-1.7991,0.0,0.0,0.0,0.0,0.0,0.0,0.0,0.0,0.0,0.0,0.0,0.0,0.0,0.0,0.0,0.0,0.0,0.0,0.0,0.0,0.0,0.0,0.0,0.0,0.0,0.0,0.0,0.0,0.0,0.0,0.0,0.0,-1.4155,-1.4866,0.0,0.0,0.0,0.0,0.0,0.0,0.0,0.0,0.0,0.0,0.0,0.0,0.0,-1.6356,-1.6383,-1.6542,-1.6688,-1.6897,-1.6831,-1.6667,-1.6433,-1.673,-1.6918,-1.6944,-1.6436,0.0,-1.7394,-1.7029,0.0,0.0,0.0,0.0,0.0,0.0,0.0,0.0,0.0,0.0,0.0,0.0,0.0,0.0,0.0,0.0,0.0,0.0,0.0,0.0,0.0,0.0,-1.9494,-1.8992,-1.8904,-1.8917,-1.8783,-1.8732,-1.8675,-1.8607,-1.8242,-1.7895,0.0,0.0,0.0,0.0,0.0,0.0,-2.1165,-2.1622,-2.1708,-2.1369,-2.1533,-2.138,-2.0652,-1.9925,-1.9313,-1.8912,-1.8183,-1.7661,-1.7421,-1.6387,0.0,0.0,0.0,0.0,0.0,0.0,0.0,0.0,0.0,0.0,0.0,0.0,0.0,0.0,0.0,0.0,0.0,0.0,0.0,0.0,0.0,0.0,0.0,0.0,0.0,0.0,0.0,0.0,0.0,-1.343,-1.3987,-1.471,-1.4558,-1.4463,0.0,0.0,0.0,0.0,0.0,0.0,0.0,0.0,0.0,-1.5331,-1.5904,-1.622,-1.6148,-1.6095,-1.6199,-1.6455,-1.6628,-1.663,-1.6515,-1.6876,-1.6878,-1.6559,-1.6132,-1.6099,-1.6367,-1.6581,-1.6948,-1.7363,0.0,0.0,0.0,0.0,-1.7545,-1.7036,-1.7019,-1.6958,-1.6798,-1.6489,0.0,0.0,0.0,0.0,0.0,0.0,0.0,-1.7718,-1.7661,-1.7735,-1.7884,-1.8027,-1.8078,-1.8212,-1.8541,-1.8395,-1.8316,-1.8742,-1.8666,-1.85,-1.8229,-1.7811,0.0,0.0,0.0,-1.9288,-2.0552,-2.1035,-2.1131,-2.0751,-2.0574,-2.0205,-1.9482,-1.8763,-1.8096,-1.7481,-1.7321,-1.7252,-1.7252,-1.6632,-1.6334,0.0,0.0,0.0,0.0,0.0,0.0,0.0,0.0,0.0,0.0,0.0,0.0,0.0,0.0,0.0,0.0,0.0,0.0,0.0,0.0,0.0,0.0,0.0,0.0,0.0,0.0,0.0,0.0,-1.3669,-1.3984,-1.4566,-1.4552,-1.4457,0.0,0.0,0.0,0.0,0.0,0.0,-1.5063,-1.5556,-1.5861,-1.5931,-1.596,-1.5915,-1.5825,-1.5527,-1.5625,-1.6055,-1.6208,-1.6315,-1.6367,-1.662,-1.648,-1.6056,-1.58,-1.5684,-1.5691,-1.6077,-1.647,-1.6886,-1.7264,-1.7161,-1.6842,-1.7376,-1.7057,-1.6399,-1.6606,-1.656,-1.6399,-1.618,-1.6446,-1.6797,-1.6602,0.0,0.0,0.0,0.0,-1.6536,-1.6939,-1.6771,-1.6645,-1.7182,-1.736,-1.7533,-1.7964,-1.7834,-1.7834,-1.8598,-1.8727,-1.8633,-1.8273,-1.7809,0.0,-1.9305,0.0,-1.9199,-2.0194,-2.0524,-2.0542,-2.018,-1.9804,-1.928,-1.8561,-1.7944,-1.7255,-1.6491,-1.6852,-1.7037,-1.6897,-1.6895,-1.6823,-1.6641,0.0,0.0,0.0,0.0,0.0,0.0,0.0,0.0,0.0,0.0,0.0,0.0,0.0,0.0,0.0,0.0,0.0,0.0,0.0,0.0,0.0,0.0,0.0,0.0,0.0,0.0,0.0,0.0,0.0,-1.4406,-1.4624,0.0,0.0,0.0,0.0,-1.4655,-1.5136,-1.5325,-1.5011,-1.5389,-1.5471,-1.5163,-1.5467,-1.5704,-1.5889,-1.5383,-1.5383,-1.59,-1.5406,-1.5177,-1.5188,-1.5211,-1.5188,-1.5165,-1.5142,-1.5418,-1.5856,-1.5384,-1.5447,-1.5903,-1.6047,-1.6362,-1.6659,-1.6253,-1.6078,-1.5957,-1.5402,-1.521,-1.5268,-1.5764,-1.6285,-1.6807,-1.7296,-1.6837,0.0,0.0,-1.6232,-1.6314,-1.6326,-1.6693,-1.7061,-1.7121,-1.7109,-1.7133,-1.7157,-1.7157,-1.7376,-1.8165,-1.8035,-1.7761,-1.7736,0.0,-1.8456,-1.9126,-1.9191,-1.9542,-2.0544,-2.0308,-2.0029,-2.0004,-1.9534,-1.9044,-1.8535,-1.7725,-1.7204,-1.7156,-1.7289,-1.7154,-1.6646,-1.7111,-1.6915,-1.5971,-1.5902,0.0,0.0,0.0,0.0,0.0,0.0,0.0,0.0,0.0,0.0,0.0,0.0,0.0,0.0,0.0,0.0,0.0,0.0,0.0,0.0,0.0,0.0,0.0,0.0,0.0,0.0,0.0,0.0,-1.4813,-1.5105,0.0,-1.4443,-1.4956,-1.5101,-1.4576,-1.4807,-1.4908,-1.4691,-1.5057,-1.5488,-1.5916,-1.552,-1.5476,-1.59,-1.5372,-1.52,-1.5395,-1.52,-1.5108,-1.5108,-1.5108,-1.5108,-1.5108,-1.5108,-1.5211,-1.536,-1.5188,-1.5395,-1.5881,-1.6146,-1.6023,-1.5715,-1.6107,-1.5898,-1.5448,-1.5568,-1.5601,-1.5624,-1.5642,-1.5549,-1.5422,-1.5495,-1.548,-1.5514,-1.5816,-1.5633,-1.5465,-1.6085,-1.5545,-1.4962,-1.5437,-1.533,-1.5199,-1.559,-1.5758,-1.5961,-1.6527,-1.6967,-1.7242,-1.7242,-1.6871,-1.6836,-1.7654,-1.7566,-1.7808,-1.9008,-1.9278,-1.9422,-1.9617,-1.9222,-1.8733,-1.8231,-1.767,-1.7322,-1.7322,-1.7381,-1.745,-1.7573,-1.7266,-1.6791,-1.6185,-1.53,-1.4271,0.0,0.0,0.0,0.0,0.0,0.0,0.0,0.0,0.0,0.0,0.0,0.0,0.0,0.0,0.0,0.0,0.0,0.0,0.0,0.0,0.0,0.0,0.0,0.0,0.0,-1.4795,-1.5105,-1.5054,-1.518,-1.5011,-1.4386,-1.4835,-1.4941,-1.441,-1.4809,-1.4985,-1.4836,-1.5102,-1.5567,-1.6209,-1.5487,-1.528,-1.5636,-1.528,-1.5108,-1.5108,-1.5108,-1.52,-1.5372,-1.5372,-1.5372,-1.5372,-1.5372,-1.528,-1.5108,-1.5108,-1.5315,-1.5659,-1.5858,-1.5719,-1.5441,-1.6022,-1.5963,-1.5647,-1.6002,-1.608,-1.6005,-1.598,-1.5603,-1.5151,-1.5202,-1.5239,-1.5371,-1.5672,-1.5322,-1.502,-1.5636,-1.4946,-1.4199,-1.4698,-1.4564,-1.4453,-1.4843,-1.4877,-1.4952,-1.5389,-1.6088,-1.6639,-1.6639,-1.6227,-1.6227,-1.7143,-1.706,-1.7289,-1.8446,-1.8735,-1.8842,-1.8881,-1.8652,-1.8285,-1.7766,-1.7527,-1.73,-1.7119,-1.7239,-1.7409,-1.754,-1.7064,-1.6584,-1.6146,-1.4851,-1.3918,-1.3347,0.0,0.0,0.0,0.0,0.0,0.0,0.0,0.0,0.0,0.0,0.0,0.0,0.0,0.0,0.0,0.0,0.0,0.0,0.0,0.0,0.0,0.0,0.0,-1.4554,-1.4295,-1.4343,-1.4994,-1.4818,-1.4214,-1.3153,-1.452,-1.509,-1.4203,-1.5163,-1.5686,-1.5499,-1.5557,-1.5681,-1.5889,-1.5383,-1.5108,-1.5108,-1.5108,-1.5108,-1.5108,-1.5108,-1.5372,-1.5889,-1.5889,-1.5889,-1.5889,-1.59,-1.5613,-1.5142,-1.5154,-1.5142,-1.5131,-1.5131,-1.5452,-1.59,-1.5912,-1.6198,-1.6598,-1.6598,-1.6434,-1.6274,-1.6707,-1.6454,-1.6093,-1.6598,-1.6234,-1.567,-1.5708,-1.5359,-1.4997,-1.5018,-1.5007,-1.4997,-1.4997,-1.4997,-1.4997,-1.4997,-1.4645,-1.4469,-1.4914,-1.5465,-1.5877,-1.5888,-1.6233,-1.6766,-1.77,-1.7789,0.0,-1.9006,-1.8725,-1.8321,-1.7947,-1.7904,-1.77,-1.7245,-1.7278,-1.7082,-1.6557,-1.6934,-1.6988,-1.6509,-1.6551,-1.6311,-1.5745,-1.4578,-1.4022,-1.415,0.0,0.0,0.0,0.0,0.0,0.0,0.0,0.0,0.0,0.0,0.0,0.0,0.0,0.0,0.0,0.0,0.0,0.0,0.0,0.0,0.0,-1.4394,-1.4779,-1.4622,-1.5254,-1.5488,-1.4831,-1.5031,-1.4969,-1.4227,-1.4576,-1.4842,-1.4821,-1.5069,-1.5289,-1.541,-1.5531,-1.5639,-1.568,-1.529,-1.5108,-1.5108,-1.5108,-1.5108,-1.5108,-1.5108,-1.5188,-1.5326,-1.5326,-1.5326,-1.5349,-1.5739,-1.582,-1.5716,-1.6037,-1.5979,-1.5682,-1.5682,-1.5763,-1.5935,-1.6279,-1.6484,-1.6573,-1.6384,-1.6247,-1.6154,-1.5905,-1.5715,-1.5553,-1.5515,-1.534,-1.5256,-1.5597,-1.5359,-1.507,-1.5411,-1.5245,-1.4997,-1.4997,-1.4997,-1.4997,-1.4997,-1.4894,-1.4852,-1.4976,-1.5128,-1.5363,-1.5711,-1.5844,-1.5999,-1.6265,-1.6288,-1.645,-1.689,-1.7131,-1.7433,-1.7851,-1.7884,-1.7713,-1.725,-1.7516,-1.7392,-1.6617,-1.6693,-1.6704,-1.6573,-1.6039,-1.5423,-1.4727,-1.3732,-1.3215,0.0,0.0,0.0,0.0,0.0,0.0,0.0,0.0,0.0,0.0,0.0,0.0,0.0,0.0,0.0,0.0,0.0,0.0,0.0,0.0,0.0,0.0,-1.4647,-1.4813,-1.462,-1.5199,-1.5401,-1.4676,-1.4703,-1.4655,-1.4302,-1.4472,-1.4675,-1.4879,-1.5318,-1.5585,-1.5574,-1.574,-1.5768,-1.5613,-1.5255,-1.5108,-1.5108,-1.5108,-1.5108,-1.5108,-1.5108,-1.5223,-1.5441,-1.5429,-1.5429,-1.5475,-1.5956,-1.6071,-1.5946,-1.6403,-1.6438,-1.6186,0.0,0.0,0.0,0.0,-1.7162,-1.7032,-1.6875,-1.6665,-1.64,-1.6095,-1.5907,-1.5783,-1.5631,-1.5577,-1.5628,-1.5936,-1.5811,-1.5639,-1.5908,-1.5773,-1.5577,-1.5577,-1.5577,-1.5577,-1.5577,-1.5421,-1.5339,-1.5535,-1.5421,0.0,-1.5925,-1.5659,-1.5535,-1.5918,-1.5842,-1.588,-1.6423,-1.6567,-1.6782,-1.723,-1.728,-1.7088,-1.6607,-1.6821,0.0,0.0,0.0,-1.5838,-1.5635,-1.5203,0.0,0.0,0.0,0.0,0.0,-1.3714,0.0,0.0,-1.3566,-1.3338,0.0,0.0,0.0,0.0,0.0,0.0,0.0,0.0,0.0,0.0,0.0,0.0,0.0,0.0,0.0,0.0,-1.4919,-1.4646,-1.4598,-1.4598,-1.4589,-1.4507,-1.4092,-1.3804,-1.3804,-1.4302,-1.4642,-1.4689,-1.5767,-1.6262,-1.5965,-1.6152,0.0,0.0,0.0,-1.5153,-1.5153,-1.5153,-1.5131,-1.5108,-1.5131,-1.5383,-1.582,-1.5809,-1.5809,-1.5854,-1.6369,-1.6382,-1.6074,-1.6566,-1.6745,-1.672,-1.6701,-1.6699,-1.6823,-1.7725,-1.7865,-1.7629,-1.7601,0.0,0.0,-1.6761,-1.6591,-1.6413,-1.6413,-1.6413,-1.6413,-1.6413,-1.6413,-1.6413,-1.6413,-1.6413,-1.6413,-1.6413,-1.6413,-1.6413,-1.6413,-1.6053,-1.5887,-1.633,-1.607,-1.5925,-1.634,-1.5728,-1.5432,-1.6278,-1.606,-1.6063,-1.6831,-1.6622,-1.6423,-1.6446,-1.6485,0.0,-1.5732,-1.5742,-1.5525,-1.4956,-1.4925,-1.4718,-1.4252,-1.4283,-1.4279,-1.4279,-1.433,-1.4558,-1.4945,-1.4751,-1.436,-1.3771,-1.3295,-1.2812,0.0,0.0,0.0,0.0,0.0,0.0,0.0,0.0,0.0,0.0,0.0,0.0,0.0,0.0,0.0,-1.5748,-1.5446,-1.5031,-1.4646,-1.4598,-1.4428,-1.4014,-1.387,-1.3804,-1.3804,-1.4302,-1.4794,-1.5291,-1.5983,-1.6564,-1.6899,-1.6735,-1.6573,-1.6497,-1.5856,-1.5501,-1.5501,-1.5501,-1.5379,-1.5108,-1.5367,0.0,-1.5257,-1.5257,-1.5257,-1.5315,-1.6209,-1.6764,-1.7084,-1.7604,-1.769,-1.7468,-1.7314,-1.7353,-1.7497,-1.7715,-1.7562,-1.7284,-1.7032,-1.6892,-1.6761,-1.6545,-1.6431,-1.6413,-1.6413,-1.6413,0.0,-1.6413,-1.6413,-1.6413,-1.6413,-1.6413,-1.6413,-1.6413,-1.6413,-1.6413,-1.6413,-1.634,-1.6299,-1.6392,-1.633,-1.6299,-1.6392,-1.6257,-1.6205,-1.6381,-1.633,-1.634,-1.6487,-1.6464,-1.6519,-1.6841,-1.6882,-1.6552,-1.5753,-1.606,-1.5732,-1.4511,-1.4438,-1.4231,-1.3741,-1.4107,-1.4254,-1.4143,-1.4512,-1.4669,-1.4602,-1.4085,-1.3754,-1.3637,-1.3529,-1.2966,0.0,0.0,0.0,0.0,0.0,0.0,0.0,0.0,0.0,0.0,0.0,-1.5125,-1.5228,0.0,-1.6003,-1.5541,-1.5273,-1.5072,-1.4827,-1.445,-1.4105,-1.3831,-1.3804,-1.3909,-1.4184,-1.4733,-1.5291,-1.5924,-1.648,-1.6911,-1.7186,-1.6892,-1.6689,-1.6689,-1.5976,-1.5591,-1.5591,-1.5591,-1.5524,-1.5345,-1.5524,-1.5501,-1.5345,-1.5176,-1.5108,-1.5154,-1.5923,-1.6528,-1.7003,-1.7779,-1.8057,-1.7968,-1.7675,-1.7515,-1.7451,-1.7451,-1.7256,-1.6976,-1.6846,-1.6705,-1.6573,-1.6431,-1.6413,-1.6413,-1.6413,-1.6413,-1.6413,-1.6413,-1.6413,-1.6413,-1.6413,-1.6413,-1.6413,-1.6413,-1.6413,-1.6413,-1.6413,-1.6413,-1.6413,-1.6413,-1.6413,-1.6374,-1.6278,-1.6249,-1.6278,-1.6374,-1.6413,-1.6413,-1.6413,-1.6413,-1.6428,-1.6557,-1.6549,-1.6243,-1.5522,-1.5443,-1.5148,-1.444,-1.4389,-1.4297,-1.4063,-1.4277,-1.4373,-1.4311,-1.4534,-1.456,-1.4352,-1.3995,-1.3588,-1.3208,-1.3255,-1.2851,0.0,0.0,0.0,0.0,0.0,0.0,0.0,0.0,-1.3787,-1.5316,-1.5654,-1.5677,-1.5644,-1.6154,-1.6187,-1.5003,-1.487,-1.49,-1.4728,-1.4164,-1.3758,-1.3758,-1.3788,-1.4014,-1.4563,-1.5147,-1.5748,-1.6349,-1.6898,-1.7199,-1.7199,-1.6934,-1.6808,-1.6808,-1.6151,-1.5812,-1.5812,-1.5812,-1.579,-1.5724,-1.579,-1.579,-1.5702,-1.5446,-1.5311,-1.5346,-1.6068,-1.6616,-1.7106,-1.8087,-1.8371,-1.8197,-1.7865,-1.7451,-1.706,-1.7106,-1.6948,-1.6733,-1.6835,-1.6676,-1.6431,-1.6506,-1.6488,-1.6413,-1.6413,-1.6413,-1.6413,-1.6413,-1.6413,-1.6413,-1.6413,-1.6413,-1.6413,-1.6413,-1.6413,-1.6413,-1.6413,-1.6374,-1.6345,-1.6345,-1.6316,-1.6259,-1.6095,-1.6066,-1.6124,-1.6288,-1.6288,-1.6288,-1.6288,-1.6288,-1.623,-1.6095,-1.6066,-1.5827,-1.5252,-1.4774,-1.4496,-1.4496,-1.4496,-1.4496,-1.4496,-1.4577,-1.4627,-1.46,-1.468,-1.4578,-1.426,-1.4031,-1.3532,-1.2847,-1.2814,-1.2555,-1.5987,-1.4742,-1.3595,-1.4242,-1.3931,-1.3743,0.0,0.0,-1.6002,-1.6099,-1.6219,-1.6263,-1.6131,-1.5961,-1.5529,-1.4597,-1.4611,-1.4485,-1.3766,-1.3637,-1.3615,-1.3615,-1.3725,-1.4014,-1.4563,-1.5147,-1.5748,-1.6349,-1.6898,-1.7199,-1.7199,-1.7157,-1.7144,-1.7144,-1.6786,-1.6582,-1.6582,-1.6582,-1.6423,-1.6144,-1.6423,-1.6423,-1.6134,-1.6078,-1.6091,-1.6162,-1.7524,-1.8302,-1.8631,-1.9438,-1.9056,-1.7925,-1.7909,-1.7312,-1.6516,-1.6761,-1.6676,-1.6516,-1.7,-1.6814,-1.6488,-1.6972,-1.6797,-1.6413,-1.6413,-1.6413,-1.6413,-1.6413,-1.6413,-1.6413,-1.6413,-1.6413,-1.6413,-1.6413,-1.6413,-1.6413,-1.6413,-1.6249,-1.6114,-1.6114,-1.6048,-1.5943,-1.5914,-1.5914,-1.5914,-1.5943,-1.5953,-1.5953,-1.5953,-1.5953,-1.5943,-1.5914,-1.5914,-1.5733,-1.5225,-1.4774,-1.4496,-1.4496,-1.4496,-1.4496,-1.4496,-1.4904,-1.5059,-1.4939,-1.5354,-1.5187,-1.4455,-1.3862,-1.3356,-1.2949,-1.2394,-1.2089,-1.5156,-1.4847,0.0,0.0,-1.3596,-1.4078,-1.4544,-1.5225,-1.5837,-1.614,-1.6548,-1.6615,-1.5761,-1.5663,-1.5402,0.0,-1.4271,-1.4196,-1.4043,-1.3785,-1.3598,-1.3598,-1.3725,-1.4158,-1.5029,-1.5343,-1.5866,-1.6794,-1.7068,-1.7199,-1.7199,-1.7199,-1.7199,-1.7199,-1.6871,-1.6689,-1.6689,-1.6689,-1.6637,-1.65,-1.6637,-1.6637,-1.6479,-1.6297,-1.6382,-1.6702,-1.7395,-1.8203,-1.8978,-1.9131,-1.8765,-1.812,-1.7886,-1.7217,-1.6402,-1.6516,-1.6488,-1.6488,-1.7017,-1.6842,-1.6488,-1.7017,-1.6842,-1.6413,-1.6413,-1.6413,-1.6413,-1.6413,-1.6413,-1.6413,-1.6413,-1.6413,-1.6413,-1.6413,-1.6413,-1.6413,-1.6413,-1.6239,-1.6114,-1.6114,-1.599,-1.5885,-1.5798,-1.5769,-1.573,-1.5633,-1.5788,-1.5885,-1.5885,-1.5885,-1.5885,-1.5798,-1.5662,-1.5525,-1.5338,-1.5132,-1.5023,-1.5023,-1.5023,-1.5023,-1.5023,-1.5201,-1.5299,-1.5242,-1.5071,-1.4647,-1.3932,-1.3252,-1.2765,-1.2417,-1.2325,-1.239,-1.4764,0.0,0.0,-1.3361,-1.3583,-1.427,-1.463,-1.5281,-1.5978,-1.6617,-1.7142,-1.7102,-1.5837,-1.5658,-1.5387,-1.4446,-1.4046,-1.3934,-1.4165,-1.3818,-1.3612,-1.3801,-1.3925,-1.4398,-1.5395,-1.5343,-1.5722,-1.6885,-1.6977,-1.7042,-1.7186,-1.7199,-1.7199,-1.7199,-1.6955,-1.685,-1.685,-1.685,-1.685,-1.685,-1.685,-1.685,-1.6829,-1.6586,-1.6713,-1.7124,-1.7386,-1.8118,-1.9132,-1.9005,-1.8804,-1.8555,-1.8054,-1.7446,-1.6835,-1.6516,-1.6413,-1.6488,-1.7017,-1.6944,-1.6712,-1.7268,-1.7056,-1.6609,-1.6609,-1.6516,-1.6413,-1.6413,-1.6413,-1.6413,-1.6413,-1.6413,-1.6413,-1.6413,-1.6413,-1.6374,-1.6345,-1.6181,-1.6038,-1.6009,-1.5875,-1.573,-1.5643,-1.5614,-1.5575,-1.541,-1.5604,-1.5759,-1.5759,-1.5759,-1.573,-1.5643,-1.5478,-1.541,-1.541,-1.541,-1.541,-1.541,-1.541,-1.541,-1.541,-1.541,-1.541,-1.541,-1.4971,-1.4341,-1.3511,-1.3116,-1.2656,-1.2142,-1.247,-1.2833,0.0,0.0,-1.4109,-1.4746,-1.4498,-1.4441,-1.5751,-1.656,-1.7245,-1.7995,-1.8158,-1.7863,-1.6838,-1.6121,-1.5387,-1.4446,-1.3964,-1.3702,-1.3719,-1.3531,-1.3646,-1.4292,-1.4446,-1.4751,0.0,-1.4964,-1.5121,-1.6323,-1.6415,-1.665,-1.7173,-1.7199,-1.7199,-1.7199,-1.7199,-1.7178,-1.7178,-1.7178,-1.7178,-1.7178,-1.7178,-1.7178,-1.7178,-1.7178,-1.7256,-1.743,-1.8008,-1.8624,-1.923,-1.961,-1.9618,-1.9293,-1.8555,-1.819,-1.7902,-1.6807,-1.6413,-1.6488,-1.7017,-1.7202,-1.7285,-1.7875,-1.7672,-1.7174,-1.7174,-1.6814,-1.6413,-1.6413,-1.6413,-1.6413,-1.6413,-1.6413,-1.6413,-1.6413,-1.6413,-1.6345,-1.6142,-1.599,-1.5885,-1.574,-1.5546,-1.541,-1.541,-1.541,-1.541,-1.541,-1.541,-1.541,-1.541,-1.541,-1.541,-1.541,-1.541,-1.541,-1.541,-1.541,-1.541,-1.541,-1.541,-1.541,-1.541,-1.541,-1.541,-1.541,-1.5381,-1.4756,-1.3511,-1.3817,-1.3453,-1.2477,-1.284,-1.317,0.0,0.0,-1.4135,-1.424,-1.445,-1.4849,-1.5702,-1.6453,-1.7053,-1.7398,-1.7791,-1.7791,-1.6884,-1.6264,-1.5748,-1.5288,-1.4534,-1.4003,-1.4096,-1.3711,-1.3624,-1.4203,-1.4405,0.0,0.0,0.0,0.0,-1.6336,-1.6388,-1.6624,-1.7173,-1.7199,-1.7199,-1.7199,-1.7199,-1.7199,-1.7199,-1.7199,-1.7199,-1.7199,-1.7199,-1.7199,-1.7199,-1.7199,-1.744,-1.788,-1.817,-1.8743,-1.9488,-1.9623,-1.9526,-1.9226,-1.8883,-1.8255,-1.7506,-1.7529,-1.705,-1.6488,-1.7017,-1.7202,-1.7313,-1.7902,-1.7699,-1.7202,-1.7202,-1.6814,-1.6413,-1.6413,-1.6666,-1.6842,-1.6488,-1.6666,-1.6814,-1.6324,-1.621,-1.6153,-1.599,-1.5846,-1.5759,-1.5711,-1.5546,-1.541,-1.541,-1.541,-1.541,-1.541,-1.541,-1.541,-1.541,-1.541,-1.541,-1.541,-1.541,-1.541,-1.541,-1.541,-1.541,-1.541,-1.541,-1.541,-1.541,-1.541,-1.541,-1.541,-1.4579,-1.4056,-1.3825,-1.306,-1.2737,-1.2848,-1.2958,-1.3184,-1.3654,-1.3742,-1.4113,-1.4163,-1.4697,-1.5364,-1.6004,-1.6678,-1.722,-1.7354,-1.791,-1.805,-1.7032,-1.6576,-1.6258,-1.5922,-1.4969,-1.4288,-1.43,-1.3845,-1.3681,-1.4136,-1.4428,-1.4535,0.0,0.0,0.0,-1.5754,-1.5957,-1.6323,-1.6872,-1.7094,-1.7199,-1.7199,-1.7199,-1.7199,-1.7199,-1.7199,-1.7199,-1.7199,-1.7199,-1.7199,-1.7199,-1.7199,-1.7387,-1.7739,-1.8071,-1.8618,-1.9267,-1.9446,-1.9512,-1.9448,-1.9119,-1.8643,-1.8124,-1.812,-1.7776,-1.7329,-1.724,-1.7202,-1.7257,-1.7644,-1.7672,-1.7506,-1.7506,-1.714,-1.6694,-1.6694,-1.6786,-1.6842,-1.6488,-1.6666,-1.6786,-1.6324,-1.6142,-1.6066,-1.5943,-1.5798,-1.5672,-1.5604,-1.5478,-1.541,-1.541,-1.541,-1.541,-1.541,-1.541,-1.541,-1.541,-1.541,-1.541,-1.541,-1.541,-1.541,-1.541,-1.541,-1.541,-1.541,-1.541,-1.541,-1.541,-1.541,-1.541,-1.541,-1.4371,-1.3913,-1.4013,-1.3018,-1.271,-1.3009,-1.3126,-1.3294,-1.3708,-1.3722,-1.4023,-1.4562,-1.5193,-1.5876,-1.6573,-1.7213,-1.7703,-1.7831,-1.842,-1.8561,0.0,0.0,-1.6854,-1.6313,-1.5329,-1.4568,-1.4373,-1.3974,-1.3839,0.0,0.0,0.0,0.0,0.0,0.0,-1.4694,-1.5199,-1.58,-1.6402,-1.6924,-1.7199,-1.7199,-1.7199,-1.7199,-1.7199,-1.7199,-1.7199,-1.7199,-1.7199,-1.7199,-1.7199,-1.7199,-1.7136,-1.7046,-1.7804,-1.8333,-1.8659,-1.9207,-1.9655,-1.9939,-1.9303,-1.9356,-1.9618,-1.8551,-1.8483,-1.8789,-1.7644,-1.7257,-1.723,-1.7202,-1.7589,-1.8066,-1.8093,-1.7672,-1.7202,-1.7202,-1.6842,-1.6459,-1.6413,-1.6431,-1.6431,-1.6374,-1.622,-1.6066,-1.5914,-1.5769,-1.5643,-1.5449,-1.541,-1.541,-1.541,-1.541,-1.541,-1.541,-1.541,-1.541,-1.541,-1.541,-1.541,-1.541,-1.541,-1.541,-1.541,-1.541,-1.541,-1.541,-1.541,-1.541,-1.541,-1.541,-1.541,-1.541,-1.4824,-1.4348,-1.4007,-1.3672,-1.3327,-1.3038,-1.3353,-1.3492,-1.2955,-1.3329,-1.3962,-1.4547,-1.5193,-1.5747,-1.5935,-1.6487,-1.6973,-1.705,-1.767,-1.796,0.0,0.0,0.0,-1.6627,-1.5766,0.0,-1.4914,-1.4209,0.0,-1.4773,0.0,-1.5399,-1.5257,-1.6045,0.0,-1.5192,-1.5769,-1.6402,-1.6963,-1.7133,-1.7199,-1.7199,-1.7199,-1.7199,-1.7199,-1.7199,-1.7199,-1.7199,-1.7199,-1.7199,-1.7199,-1.7199,-1.7178,-1.7201,-1.8257,-1.8681,-1.8737,-1.9622,-2.0016,-1.9965,-1.9708,-1.9448,-1.9172,-1.8869,-1.8575,-1.8294,-1.7984,-1.7863,-1.7781,-1.7341,-1.7313,-1.7506,-1.7957,-1.7672,-1.7202,-1.7202,-1.7435,-1.7484,-1.662,-1.6694,-1.686,-1.6314,-1.6066,-1.5904,-1.5769,-1.5604,-1.5449,-1.541,-1.541,-1.541,-1.541,-1.541,-1.541,-1.541,-1.541,-1.541,-1.541,-1.541,-1.541,-1.541,-1.541,-1.541,-1.541,-1.541,-1.541,-1.541,-1.541,-1.541,-1.541,-1.541,-1.541,-1.541,-1.4824,-1.4452,-1.4374,-1.3793,-1.345,-1.3375,-1.3455,-1.3492,-1.2992,-1.3503,-1.4174,-1.4585,-1.5193,-1.5705,-1.5705,-1.6459,-1.699,-1.6474,-1.7438,0.0,0.0,0.0,0.0,0.0,0.0,0.0,-1.482,-1.4306,-1.4083,0.0,-1.4677,0.0,-1.5169,-1.5848,-1.618,-1.5962,-1.6232,-1.6532,-1.6833,-1.7068,-1.7199,-1.7199,-1.7199,-1.7199,-1.7199,-1.7199,-1.7199,-1.7199,-1.7199,-1.7199,-1.7199,-1.7199,-1.7178,-1.7159,-1.8257,-1.867,-1.8644,-1.9609,-1.9978,-1.9901,-1.9837,-1.963,-1.9344,-1.9344,-1.9148,-1.8818,-1.859,-1.8483,-1.8348,-1.7479,-1.7202,-1.7257,-1.7589,-1.7479,-1.7202,-1.7202,-1.7268,-1.7217,-1.6573,-1.6609,-1.6676,-1.6066,-1.5906,-1.5835,-1.5548,-1.5289,-1.5078,-1.4864,-1.501,-1.5137,-1.5137,-1.5293,-1.541,-1.541,-1.541,-1.541,-1.541,-1.541,-1.541,-1.541,-1.541,-1.541,-1.541,-1.541,-1.541,-1.541,-1.541,-1.541,-1.541,-1.541,-1.541,-1.541,-1.4664,-1.4363,-1.4518,-1.3668,-1.3372,-1.3492,-1.3492,-1.3455,-1.3302,-1.3796,-1.4369,-1.4542,-1.5081,-1.5565,-1.548,-1.6493,-1.7111,-1.5917,0.0,-1.8086,-1.6299,-1.6746,-1.7016,-1.5924,0.0,-1.5385,-1.4615,-1.4447,-1.4267,-1.3881,-1.3881,-1.4134,-1.4721,-1.5401,-1.6066,-1.6636,-1.654,-1.6474,-1.6493,-1.695,-1.7199,-1.7199,-1.7199,-1.7199,-1.7199,-1.7199,-1.7199,-1.7199,-1.7199,-1.7199,-1.7199,-1.7199,-1.7136,-1.7054,-1.8013,-1.842,-1.848,-1.9359,-1.9761,-1.9798,-1.9721,-1.9747,-1.9773,-1.9643,-1.9669,-1.9721,-1.9198,-1.8987,-1.8789,-1.7589,-1.7202,-1.7202,-1.7202,-1.7202,-1.7202,-1.7202,-1.6828,-1.6394,-1.6319,-1.6267,-1.6122,-1.5691,-1.5675,-1.5632,-1.5212,-1.4901,-1.459,-1.4182,-1.4443,-1.4717,-1.4803,-1.5088,-1.5352,-1.5371,-1.541,-1.541,-1.541,-1.541,-1.541,-1.541,-1.541,-1.541,-1.541,-1.541,-1.541,-1.541,-1.541,-1.541,-1.541,-1.541,-1.5381,-1.5342,-1.4514,-1.4217,-1.4421,-1.3519,-1.3205,-1.3455,-1.3419,-1.3346,-1.266,-1.3269,-1.3916,-1.396,-1.4467,-1.4836,-1.4331,-1.5207,0.0,0.0,0.0,-1.6342,-1.5509,-1.6125,-1.6564,-1.5973,0.0,0.0,0.0,0.0,-1.4876,0.0,0.0,0.0,0.0,0.0,0.0,-1.6171,-1.65,-1.6837,-1.7049,-1.7146,-1.7199,-1.7199,-1.7199,-1.7199,-1.7199,-1.7199,-1.7199,-1.7199,-1.7199,-1.7199,-1.7199,-1.7199,-1.7136,-1.7041,-1.7699,-1.8141,-1.8454,-1.9053,-1.951,-1.9759,-1.9317,-1.9422,-1.9695,-1.8738,-1.9004,-1.9721,-1.9198,-1.8987,-1.8789,-1.7589,-1.7202,-1.7202,-1.7202,-1.7202,-1.7202,-1.7202,-1.6846,-1.6385,-1.5942,-1.5525,-1.5214,-1.5132,-1.4961,-1.4794,-1.4723,-1.4463,-1.4202,-1.4124,-1.4172,-1.4328,-1.4717,-1.4844,-1.501,-1.5361,-1.541,-1.541,-1.541,-1.541,-1.541,-1.541,-1.541,-1.541,-1.541,-1.541,-1.541,-1.541,-1.541,-1.541,-1.541,-1.541,-1.5271,-1.4977,-1.4843,-1.453,-1.4074,-1.375,-1.3474,-1.3236,-1.3083,-1.2973,-1.3063,-1.3704,-1.4298,-1.4479,-1.4674,-1.477,-1.464,0.0,0.0,0.0,0.0,-1.638,-1.5426,0.0,0.0,0.0,0.0,0.0,0.0,0.0,0.0,0.0,0.0,0.0,0.0,-1.5313,-1.5665,-1.5827,-1.593,-1.6212,-1.6741,-1.6781,-1.6911,-1.7186,-1.7199,-1.7199,-1.7199,-1.7199,-1.7199,-1.7199,-1.7199,-1.7199,-1.7199,-1.7199,-1.7157,-1.7133,-1.7596,-1.8064,-1.8488,-1.8916,-1.9384,-1.9759,-1.9225,-1.9172,-1.9291,-1.8417,-1.8632,-1.9344,-1.9093,-1.8987,-1.8854,-1.7957,-1.7451,-1.7202,-1.7202,-1.6817,-1.6424,-1.6424,-1.6084,-1.5653,-1.5408,-1.5163,-1.4909,-1.461,-1.4327,-1.412,-1.4043,-1.3913,-1.374,-1.3525,-1.3636,-1.3851,-1.4082,-1.4492,-1.4882,-1.5049,-1.5273,-1.541,-1.541,-1.541,-1.541,-1.541,-1.541,-1.541,-1.541,-1.541,-1.541,-1.541,-1.541,-1.541,-1.541,-1.5332,-1.5076,-1.4553,-1.4428,-1.4065,-1.3434,-1.3349,-1.3215,-1.3046,-1.2936,-1.2826,-1.3638,-1.4156,-1.4596,-1.4856,-1.4795,-1.4735,-1.5021,-1.5482,0.0,0.0,-1.6081,-1.6503,-1.5486,0.0,0.0,0.0,0.0,0.0,0.0,0.0,0.0,0.0,0.0,0.0,0.0,-1.4555,0.0,-1.5338,-1.5168,-1.5369,-1.6166,-1.6323,-1.6584,-1.7016,-1.7133,-1.7199,-1.7199,-1.7199,-1.7199,-1.7157,-1.7157,-1.7157,-1.7136,-1.7136,-1.7073,-1.696,-1.7315,-1.7727,-1.8134,-1.8642,-1.9083,-1.9404,-1.9123,-1.8934,-1.8735,-1.8255,-1.8402,-1.8827,-1.8827,-1.8881,-1.8907,-1.8294,-1.7699,-1.7174,-1.7073,-1.6411,-1.5691,-1.5691,-1.5287,-1.4852,-1.4852,-1.478,-1.4578,-1.4032,-1.3761,-1.3546,-1.3394,-1.3369,-1.3271,-1.2964,-1.3154,-1.3398,-1.3496,-1.4062,-1.4541,-1.4629,-1.5,-1.5273,-1.5273,-1.5352,-1.541,-1.541,-1.541,-1.541,-1.541,-1.541,-1.541,-1.541,-1.541,-1.541,-1.541,-1.5264,-1.4888,-1.4223,-1.405,-1.3599,-1.2892,-1.2899,-1.2863,-1.282,-1.279,-1.2673,-1.3779,-1.3879,-1.398,-1.4009,-1.4141,-1.427,-1.437,0.0,0.0,-1.5463,-1.5476,-1.5428,-1.5312,0.0,0.0,0.0,0.0,0.0,0.0,0.0,0.0,0.0,0.0,0.0,0.0,-1.4597,-1.4892,-1.4384,-1.441,-1.4795,-1.5539,-1.6101,-1.6415,-1.6467,-1.6937,-1.7199,-1.7199,-1.7199,-1.7136,-1.7023,-1.7023,-1.6981,-1.6918,-1.6918,-1.6629,-1.6132,-1.6584,-1.6779,-1.6865,-1.7864,-1.8265,-1.8315,-1.8794,-1.8682,-1.8174,-1.812,-1.8147,-1.8174,-1.8174,-1.8548,-1.8907,-1.8294,-1.7699,-1.7101,-1.6609,-1.6109,-1.5691,-1.5691,-1.5059,-1.4366,-1.4366,-1.4055,-1.3652,-1.3361,-1.3254,-1.3192,-1.3003,-1.2964,-1.2954,-1.2915,-1.2935,-1.3057,-1.3437,-1.3574,-1.3724,-1.4114,-1.4561,-1.4872,-1.4872,-1.5176,-1.541,-1.541,-1.541,-1.541,-1.541,-1.541,-1.541,-1.541,-1.541,-1.541,-1.541,-1.5264,-1.4888,-1.422,-1.4164,-1.375,-1.2918,-1.2901,-1.2826,-1.2636,-1.2452,-1.2342,-1.3852,-1.4177,-1.4549,-1.4699,-1.4501,-1.4441,-1.5107,0.0,-1.4992,-1.5462,-1.5418,-1.5298,-1.5298,-1.5603,0.0,0.0,0.0,0.0,0.0,0.0,0.0,0.0,0.0,0.0,0.0,0.0,-1.4143,-1.3756,-1.4057,-1.4423,-1.4769,-1.5432,-1.6088,-1.6736,-1.7053,-1.7199,-1.7199,-1.7199,-1.7136,-1.7002,-1.7002,-1.696,-1.6897,-1.6897,-1.6769,-1.6522,-1.6362,-1.6603,-1.7182,-1.7612,-1.7909,-1.8115,-1.8351,-1.8093,-1.7518,-1.7207,-1.7279,-1.7562,-1.7562,-1.7738,-1.7875,-1.7644,-1.7196,-1.674,-1.6842,-1.6138,-1.5277,-1.5277,-1.4604,-1.3865,-1.3865,-1.3683,-1.3433,-1.3242,-1.3156,-1.3113,-1.292,-1.2905,-1.2905,-1.2905,-1.2905,-1.2954,-1.3105,-1.334,-1.3539,-1.3704,-1.4094,-1.4492,-1.4746,-1.4697,-1.4816,-1.5332,-1.541,-1.541,-1.541,-1.541,-1.541,-1.541,-1.541,-1.5527,-1.5821,-1.5121,-1.4586,-1.432,-1.385,-1.3277,-1.2663,-1.2809,-1.2783,-1.2599,-1.2526,-1.2415,-1.404,-1.445,-1.4948,-1.5162,-1.4965,-1.4933,0.0,0.0,-1.5144,-1.5636,-1.5566,-1.5373,-1.5313,-1.5646,-1.6155,0.0,0.0,0.0,0.0,0.0,0.0,0.0,0.0,-1.5007,-1.4507,-1.3997,-1.3598,-1.3357,-1.369,-1.4074,-1.4446,-1.4985,-1.573,-1.6656,-1.6975,-1.7115,-1.7115,-1.7115,-1.7044,-1.6897,-1.6897,-1.6876,-1.6791,-1.6812,-1.6663,-1.6349,-1.611,-1.6217,-1.6617,-1.6907,-1.7166,-1.7408,-1.7612,-1.7398,-1.6933,-1.6564,-1.6652,-1.6972,-1.6972,-1.7073,-1.7174,-1.7017,-1.6825,-1.6634,-1.6727,-1.5939,-1.4997,-1.4997,-1.4335,-1.3597,-1.3597,-1.3515,-1.342,-1.3242,-1.3166,-1.3089,-1.2929,-1.2905,-1.2905,-1.2905,-1.2905,-1.2905,-1.2905,-1.3125,-1.332,-1.332,-1.3656,-1.4036,-1.4365,-1.4221,-1.4338,-1.4942,-1.5011,-1.5108,-1.5391,-1.5293,-1.5283,-1.5371,-1.541,-1.5605,-1.6075,-1.5424,-1.4842,-1.4446,-1.3939,-1.3327,-1.2542,-1.2795,-1.2783,-1.2599,-1.2526,-1.2452,-1.4385,-1.4599,-1.4932,-1.4982,-1.5359,-1.5739,0.0,-1.6095,-1.6165,-1.6109,-1.5827,-1.5551,-1.5343,-1.5313,-1.5516,0.0,0.0,0.0,0.0,0.0,0.0,0.0,0.0,-1.581,-1.4896,-1.4127,-1.3564,-1.3232,-1.3198,-1.3704,-1.4821,-1.4961,-1.5304,-1.6002,-1.6594,-1.6897,-1.6897,-1.6897,-1.6846,-1.6697,-1.6697,-1.662,-1.6522,-1.6654,-1.611,-1.5153,-1.5746,-1.5412,-1.451,-1.5507,-1.5838,-1.5778,-1.6464,-1.6594,-1.6407,-1.6466,-1.6458,-1.6402,-1.6402,-1.6768,-1.7101,-1.6591,-1.6768,-1.7014,-1.6008,-1.537,-1.4997,-1.4997,-1.4335,-1.3597,-1.3597,-1.3597,-1.3539,-1.3266,-1.3194,-1.3132,-1.2944,-1.2905,-1.2905,-1.2905,-1.2905,-1.2905,-1.2905,-1.2905,-1.2915,-1.2915,-1.3242,-1.3516,-1.3516,-1.3851,-1.4114,-1.4114,-1.4114,-1.4465,-1.5342,-1.5029,-1.4971,-1.5381,-1.541,-1.5605,-1.6075,-1.6328,-1.5854,-1.4533,-1.4737,-1.412,-1.2599,-1.2783,-1.2783,-1.2599,-1.2415,-1.2305,-1.5256,-1.5388,-1.5521,-1.5551,-1.5353,-1.5295,-1.5862,-1.5646,-1.5449,-1.5919,-1.5797,-1.558,-1.5522,-1.5388,-1.5646,-1.6721,0.0,0.0,0.0,0.0,0.0,0.0,-1.614,-1.5131,0.0,-1.3632,-1.3306,-1.3215,-1.3584,-1.413,-1.4865,-1.5268,-1.5795,-1.646,-1.6744,-1.6897,-1.6897,-1.6897,-1.6825,-1.6697,-1.6697,-1.6633,-1.65,-1.6207,-1.5888,-1.5557,-1.5096,-1.4892,-1.4914,-1.5258,-1.5331,-1.5284,-1.59,-1.586,-1.5438,-1.5468,-1.5666,-1.5908,-1.5908,-1.6245,-1.6637,-1.6459,-1.6506,-1.6578,-1.6282,-1.5645,-1.4837,-1.4107,-1.3693,-1.3443,-1.3338,-1.3338,-1.33,-1.3152,-1.3138,-1.3089,-1.2929,-1.2905,-1.2905,-1.2905,-1.2905,-1.2905,-1.2905,-1.2905,-1.2905,-1.2905,-1.3023,-1.3184,-1.3467,-1.3369,-1.3496,-1.4046,-1.3851,-1.3899,-1.4465,-1.4687,-1.4844,-1.4971,-1.5557,-1.6055,-1.6504,-1.6252,-1.5847,-1.5339,-1.4768,-1.4014,-1.301,-1.3083,-1.2936,-1.2599,-1.2378,-1.2305,0.0,-1.5545,-1.5754,-1.5868,-1.5691,-1.5574,-1.5973,-1.573,-1.5549,-1.5948,-1.5797,-1.5595,-1.5595,-1.5433,-1.5559,-1.6342,0.0,0.0,0.0,0.0,0.0,0.0,0.0,0.0,-1.4156,-1.3659,-1.334,-1.3215,-1.3765,-1.4324,-1.4878,-1.5412,-1.5977,-1.6607,-1.6705,-1.6748,-1.6748,-1.6748,-1.6705,-1.662,-1.662,-1.6577,-1.65,-1.6064,-1.5756,-1.549,-1.4766,-1.4478,0.0,-1.4571,-1.4653,-1.475,-1.4942,-1.5018,-1.4976,-1.48,-1.5028,-1.5452,-1.5628,-1.5877,-1.6143,-1.6143,-1.5915,-1.5625,-1.5625,-1.5318,-1.4775,-1.3699,-1.3396,-1.3372,-1.3242,-1.3194,-1.317,-1.3123,-1.3109,-1.3061,-1.2929,-1.2905,-1.2905,-1.2905,-1.2905,-1.2905,-1.2905,-1.2905,-1.2905,-1.2905,-1.2905,-1.3003,-1.3242,-1.3037,-1.3076,-1.3578,-1.3428,-1.3379,-1.3643,-1.4199,-1.4678,-1.5,-1.5703,-1.6369,-1.6953,-1.6518,-1.6075,-1.5631,-1.4824,-1.4013,-1.32,-1.3119,-1.2863,-1.2489,-1.2378,-1.2305,0.0,-1.5111,-1.5575,-1.5901,-1.6154,-1.6264,-1.6126,-1.62,0.0,-1.6095,-1.5841,-1.5624,-1.5595,-1.5448,-1.5327,-1.5356,0.0,0.0,0.0,0.0,0.0,0.0,-1.5806,0.0,-1.469,-1.4049,-1.3531,-1.3215,-1.3727,-1.4274,-1.4815,-1.5349,-1.5894,-1.6425,-1.6475,-1.65,-1.65,-1.65,-1.65,-1.65,-1.65,-1.6466,-1.6445,-1.6098,-1.5635,-1.5085,-1.4629,-1.4143,-1.3644,-1.3621,-1.3869,-1.421,-1.3762,-1.4138,-1.4852,-1.4417,-1.4552,-1.5007,-1.5442,-1.5608,-1.5639,-1.5639,-1.5059,-1.4345,-1.4289,-1.4558,-1.4702,-1.372,-1.3416,-1.3348,-1.3258,-1.3214,-1.3156,-1.3099,-1.3085,-1.3051,-1.2929,-1.2905,-1.2905,-1.2905,-1.2905,-1.2905,-1.2905,-1.2905,-1.2905,-1.2905,-1.2905,-1.2905,-1.2905,-1.2905,-1.2905,-1.2905,-1.2905,-1.2915,-1.2944,-1.3643,-1.4416,-1.5235,-1.5821,-1.6476,-1.7337,-1.706,-1.6446,-1.5534,-1.4816,-1.4042,-1.32,-1.2973,-1.2673,-1.2305,-1.2305,-1.2305,-1.4264,0.0,-1.4526,-1.4865,-1.5177,-1.538,0.0,-1.57,-1.6067,0.0,0.0,0.0,0.0,0.0,0.0,0.0,0.0,0.0,0.0,0.0,0.0,-1.6575,-1.5595,-1.4675,-1.4001,-1.357,-1.3284,-1.3215,-1.3328,-1.3659,-1.4267,-1.4802,-1.5336,-1.5869,-1.6296,-1.65,-1.65,-1.65,-1.65,-1.65,-1.65,-1.6315,-1.5954,-1.5501,-1.5221,-1.5062,-1.4188,-1.3965,-1.4186,-1.3776,-1.3659,-1.3741,-1.3638,-1.3721,-1.3931,-1.3817,-1.4051,-1.448,-1.4593,-1.4863,-1.5163,-1.5163,-1.5007,-1.4744,-1.4281,-1.4029,-1.3924,-1.3924,-1.3602,-1.3298,-1.3511,-1.3288,-1.2968,-1.2954,-1.2954,-1.2929,-1.2905,-1.2905,-1.2905,-1.2905,-1.2905,-1.2905,-1.2905,-1.2905,-1.2905,-1.2905,-1.2905,-1.2905,-1.2905,-1.2905,-1.2905,-1.2905,-1.2905,-1.3008,-1.333,-1.3545,-1.3851,-1.4377,-1.5459,-1.6339,-1.6833,-1.6876,-1.6515,-1.5675,-1.4106,-1.3185,-1.2973,-1.2599,-1.2378,-1.2305,-1.2305,-1.2305,-1.3341,-1.3929,-1.4559,-1.4773,-1.4974,-1.5069,-1.4885,0.0,0.0,0.0,0.0,0.0,0.0,0.0,0.0,0.0,0.0,0.0,0.0,0.0,0.0,-1.5915,-1.5258,-1.4553,-1.3578,-1.3306,-1.3198,-1.3198,-1.3453,-1.3765,-1.4091,-1.4614,-1.5148,-1.568,-1.5982,-1.6237,-1.65,-1.65,-1.65,-1.65,-1.65,-1.625,-1.5788,-1.53,-1.4994,-1.4743,-1.3941,-1.3763,-1.4022,-1.3716,-1.3597,-1.3597,-1.3597,-1.3597,-1.3597,-1.3597,-1.3752,-1.4014,-1.4231,-1.4469,-1.4687,-1.4687,-1.4542,-1.4289,-1.3967,-1.3686,-1.3529,-1.3614,-1.3405,-1.3178,-1.3303,-1.3131,-1.2905,-1.2905,-1.2905,-1.2905,-1.2905,-1.2905,-1.2905,-1.2905,-1.2905,-1.2905,-1.2905,-1.2905,-1.2905,-1.2905,-1.2905,-1.2905,-1.2905,-1.2905,-1.2983,-1.3154,-1.3164,-1.3418,-1.4043,-1.3906,-1.4036,-1.465,-1.5119,-1.5649,-1.6278,-1.5728,-1.5027,-1.4167,-1.3248,-1.2719,-1.2582,-1.2494,-1.2378,-1.2305,-1.2305,-1.2305,-1.2463,-1.3632,-1.4762,-1.4681,-1.4865,-1.4986,-1.4669,0.0,0.0,0.0,0.0,0.0,0.0,0.0,0.0,0.0,0.0,0.0,-1.6513,-1.729,-1.7061,-1.5003,-1.4889,-1.4515,-1.339,-1.3232,-1.3198,-1.3198,-1.3677,-1.3959,-1.3959,-1.4488,-1.4984,-1.5449,-1.5605,-1.5919,-1.6362,-1.645,-1.65,-1.65,-1.65,-1.625,-1.5788,-1.53,-1.488,-1.4466,-1.3847,-1.3644,-1.3716,-1.3634,-1.3597,-1.3597,-1.3597,-1.3597,-1.3597,-1.3597,-1.3597,-1.3648,-1.4066,-1.42,-1.42,-1.42,-1.3907,-1.3597,-1.3586,-1.3491,-1.3348,-1.3172,-1.3109,-1.3095,-1.3042,-1.2954,-1.2905,-1.2905,-1.2905,-1.2905,-1.2905,-1.2905,-1.2905,-1.2905,-1.2905,-1.2905,-1.2905,-1.2905,-1.2905,-1.2905,-1.2905,-1.2905,-1.2905,-1.2964,-1.3115,-1.3467,-1.3623,-1.3994,-1.4754,-1.4453,-1.4543,-1.5361,-1.4824,-1.4796,-1.5441,-1.4345,-1.3266,-1.2323,-1.2478,-1.2438,-1.2121,-1.2303,-1.2374,-1.2238,-1.2238,-1.2258,-1.2633,-1.3271,-1.363,-1.2849,-1.3751,-1.4654,0.0,0.0,0.0,0.0,0.0,0.0,0.0,0.0,0.0,0.0,0.0,-1.621,0.0,0.0,-1.594,-1.5577,-1.458,-1.3857,-1.3632,-1.3374,-1.3198,-1.3198,-1.3303,-1.3341,-1.3341,-1.3891,-1.4267,-1.4337,-1.5236,-1.5731,-1.5819,-1.6262,-1.65,-1.65,-1.65,-1.625,-1.5788,-1.53,-1.5062,-1.4949,-1.4012,-1.3858,-1.4233,-1.3787,-1.3597,-1.3597,-1.3597,-1.3597,-1.3597,-1.3597,-1.3597,-1.3607,-1.3669,-1.37,-1.37,-1.37,-1.3648,-1.3586,-1.3467,-1.342,-1.3348,-1.3172,-1.3109,-1.3164,-1.3496,-1.3254,-1.2905,-1.2905,-1.2905,-1.2905,-1.2905,-1.2905,-1.2905,-1.2905,-1.2905,-1.2905,-1.2905,-1.2905,-1.2905,-1.2905,-1.2905,-1.2905,-1.2905,-1.3193,-1.3437,-1.3496,-1.416,-1.4639,-1.4803,-1.4727,-1.4893,-1.5381,-1.4824,-1.4377,-1.4024,-1.3792,-1.3266,-1.2323,-1.2161,-1.2019,-1.1772,-1.1647,-1.1725,-1.1973,-1.1973,-1.2064,-1.2294,-1.3002,-1.3374,-1.2218,-1.3249,-1.4432,0.0,0.0,0.0,0.0,0.0,0.0,0.0,0.0,0.0,0.0,0.0,-1.6181,-1.6147,-1.5892,-1.5473,-1.4908,-1.4146,-1.3632,-1.3459,-1.3301,-1.3198,-1.3198,-1.3198,-1.3198,-1.3198,-1.3453,-1.3765,-1.4091,-1.4576,-1.4959,-1.5261,-1.5302,-1.5585,-1.6129,-1.5856,-1.5501,-1.504,-1.4834,-1.4558,-1.4269,-1.38,-1.3729,-1.3952,-1.3692,-1.3597,-1.3597,-1.3597,-1.3597,-1.3597,-1.3597,-1.3597,-1.3597,-1.3597,-1.3597,-1.3597,-1.3515,-1.3491,-1.3467,-1.3338,-1.3276,-1.3234,-1.3123,-1.3109,-1.3135,-1.3249,-1.3077,-1.2905,-1.2905,-1.2905,-1.2905,-1.2905,-1.2905,-1.2905,-1.2905,-1.2905,-1.2905,-1.2905,-1.2905,-1.2905,-1.2905,-1.3101,-1.3213,-1.3213,-1.3584,-1.3909,-1.418,-1.4756,-1.5225,-1.5478,-1.5508,-1.509,-1.4099,-1.3987,-1.3542,-1.2604,-1.2451,-1.2161,-1.1649,-1.1614,-1.149,-1.133,-1.1383,-1.1577,-1.1906,-1.1906,-1.2024,-1.2054,-1.2727,-1.3151,-1.2125,0.0,-1.4254,-1.4123,0.0,0.0,0.0,0.0,0.0,0.0,0.0,0.0,0.0,-1.6008,-1.5775,-1.5707,-1.5469,-1.4979,-1.4138,-1.3835,-1.3531,-1.3215,-1.3181,-1.3198,-1.3198,-1.3198,-1.3198,-1.3198,-1.3198,-1.3403,-1.3871,-1.4022,-1.4286,-1.4714,-1.4335,-1.4585,-1.5449,-1.4983,-1.4574,-1.4249,-1.4246,-1.4014,-1.3619,-1.3616,-1.3597,-1.3597,-1.3597,-1.3597,-1.3597,-1.3597,-1.3597,-1.3597,-1.3597,-1.3597,-1.3597,-1.3563,-1.3539,-1.3539,-1.3396,-1.3338,-1.3338,-1.3242,-1.3166,-1.3123,-1.3099,-1.3109,-1.3061,-1.2929,-1.2905,-1.2905,-1.2905,-1.2905,-1.2905,-1.2905,-1.2905,-1.2905,-1.2905,-1.2905,-1.2905,-1.2905,-1.2905,-1.2935,-1.3042,-1.3301,-1.3545,-1.3617,-1.3997,-1.4453,-1.4883,-1.541,-1.5898,-1.6369,-1.631,-1.5383,-1.3412,-1.3498,-1.3077,-1.1833,-1.1459,-1.1209,-1.1028,-1.109,-1.1045,-1.0928,-1.1116,-1.141,-1.1764,-1.1764,-1.1957,-1.2297,-1.2422,-1.248,-1.2366,0.0,0.0,-1.3598,0.0,0.0,0.0,0.0,0.0,0.0,0.0,0.0,-1.6247,-1.5383,-1.4602,-1.4538,-1.4298,-1.4072,-1.3934,-1.3719,-1.3493,-1.3141,-1.3163,-1.3198,-1.3198,-1.3198,-1.3198,-1.3198,-1.3198,-1.3223,-1.3248,-1.3803,-1.4116,-1.4166,-1.3828,-1.3923,-1.4397,-1.4002,-1.3787,-1.3748,-1.3749,-1.3718,-1.3684,-1.3621,-1.3597,-1.3597,-1.3597,-1.3597,-1.3597,-1.3597,-1.3597,-1.3597,-1.3597,-1.3597,-1.3586,-1.3467,-1.3409,-1.3386,-1.3266,-1.3208,-1.3208,-1.3194,-1.3194,-1.318,-1.3123,-1.3109,-1.3061,-1.2929,-1.2905,-1.2905,-1.2905,-1.2905,-1.2905,-1.2905,-1.2905,-1.2905,-1.2905,-1.2905,-1.2905,-1.2905,-1.2905,-1.3042,-1.3408,-1.3486,-1.3627,-1.4007,-1.4463,-1.4902,-1.5322,-1.6102,-1.6816,-1.7288,-1.6924,-1.603,-1.4577,-1.4196,-1.3511,-1.2313,-1.1639,-1.1146,-1.0839,-1.0828,-1.0746,-1.0626,-1.064,-1.0941,-1.1422,-1.1422,-1.1764,-1.186,-1.2422,-1.2829,-1.2044,0.0,0.0,0.0,0.0,0.0,0.0,0.0,0.0,0.0,0.0,-1.4938,-1.5654,-1.4889,-1.4165,-1.41,-1.3868,-1.3652,-1.3539,-1.3395,-1.325,-1.3107,-1.3163,-1.3198,-1.3198,-1.3198,-1.3198,-1.3198,-1.3198,-1.3198,-1.3198,-1.318,-1.3184,-1.3184,-1.2593,-1.2373,-1.2556,-1.2738,-1.2837,-1.2827,-1.2818,-1.2817,-1.2849,-1.3057,-1.3163,-1.3183,-1.3473,-1.3597,-1.3597,-1.3597,-1.3597,-1.3597,-1.3597,-1.3597,-1.3586,-1.3443,-1.3396,-1.3372,-1.32,-1.3128,-1.3128,-1.3031,-1.3007,-1.3007,-1.2978,-1.2978,-1.2954,-1.2905,-1.2905,-1.2905,-1.2905,-1.2905,-1.2905,-1.2905,-1.2905,-1.2905,-1.2905,-1.2905,-1.2905,-1.2905,-1.3096,-1.332,-1.3486,-1.3965,-1.4355,-1.4521,-1.4912,-1.5234,-1.5391,-1.5355,-1.5607,-1.6243,-1.5533,-1.4853,-1.4249,-1.4144,-1.3555,-1.2294,-1.1542,-1.1143,-1.1042,-1.0807,-1.0649,-1.0593,-1.0774,-1.1035,-1.1395,-1.1617,-1.1917,-1.1466,-1.201,-1.2431,0.0,0.0,0.0,0.0,0.0,0.0,0.0,0.0,0.0,0.0,0.0,0.0,0.0,-1.4292,-1.3722,-1.3665,-1.3412,-1.3242,-1.3242,-1.3099,-1.3007,-1.3007,-1.3094,-1.3163,-1.3163,-1.3181,-1.3198,-1.3198,-1.3198,-1.3198,-1.3198,-1.2808,-1.2603,-1.2603,-1.1872,-1.1497,-1.1508,-1.173,-1.1861,-1.1861,-1.2006,-1.2089,-1.211,-1.2523,-1.271,-1.2751,-1.3183,-1.3462,-1.3597,-1.3597,-1.3597,-1.3597,-1.3597,-1.3597,-1.3586,-1.3443,-1.3362,-1.3324,-1.3138,-1.3075,-1.3027,-1.2929,-1.2905,-1.2905,-1.2905,-1.2905,-1.2905,-1.2905,-1.2905,-1.2905,-1.2905,-1.2905,-1.2905,-1.2905,-1.2905,-1.2905,-1.2905,-1.2905,-1.2905,-1.2905,-1.3232,-1.3555,-1.3656,-1.4316,-1.4862,-1.4971,-1.5234,-1.5469,-1.5605,-1.5194,-1.5096,-1.5625,-1.4883,-1.4238,-1.3944,-1.3831,-1.3284,-1.2197,-1.1404,-1.0998,-1.1011,-1.0725,-1.0593,-1.0593,-1.0888,-1.1142,-1.1395,-1.173,-1.2024,-1.119,-1.1097,0.0,0.0,0.0,0.0,0.0,0.0,0.0,0.0,0.0,0.0,0.0,0.0,0.0,-1.409,-1.3599,-1.316,-1.3112,-1.2868,-1.2797,-1.3072,-1.292,-1.2803,-1.2803,-1.2973,-1.3107,-1.3107,-1.3163,-1.3198,-1.3198,-1.3198,-1.3198,-1.3198,-1.2808,-1.2603,-1.2603,-1.1872,-1.1497,-1.1497,-1.1099,-1.091,-1.0921,-1.1375,-1.1581,-1.1612,-1.21,-1.2297,-1.2307,-1.2741,-1.3173,-1.3586,-1.3597,-1.3597,-1.3597,-1.3597,-1.3597,-1.3586,-1.3443,-1.3314,-1.3194,-1.3123,-1.3012,-1.2905,-1.2905,-1.2905,-1.2905,-1.2905,-1.2905,-1.2905,-1.2881,-1.2905,-1.2905,-1.2905,-1.2905,-1.2905,-1.2881,-1.2905,-1.2905,-1.2881,-1.2905,-1.2905,-1.2905,-1.3232,-1.3652,-1.4046,-1.4502,-1.4941,-1.5361,-1.541,-1.5576,-1.6036,-1.5895,-1.579,-1.579,-1.5283,-1.4605,-1.3749,-1.331,-1.2762,-1.2019,-1.1233,-1.0744,-1.06,-1.0593,-1.0593,-1.0593,-1.0855,-1.1142,-1.1402,-1.1737,-1.2067,-1.1236,-1.1382,0.0,0.0,0.0,0.0,0.0,0.0,0.0,0.0,0.0,0.0,0.0,0.0,0.0,-1.4036,-1.3399,-1.2838,-1.2815,-1.2745,-1.2727,-1.2815,-1.2803,-1.2803,-1.2803,-1.289,-1.296,-1.296,-1.2978,-1.303,-1.3112,-1.3141,-1.3146,-1.3198,-1.2808,-1.2496,-1.2246,-1.1756,-1.1359,-1.108,-1.0957,-1.091,-1.0891,-1.1045,-1.1116,-1.1127,-1.1602,-1.1819,-1.1851,-1.2606,-1.2987,-1.3142,-1.3462,-1.3597,-1.3597,-1.3597,-1.3597,-1.3586,-1.3443,-1.3314,-1.3194,-1.3123,-1.3012,-1.2905,-1.2905,-1.2905,-1.2905,-1.2905,-1.2905,-1.2808,-1.2431,-1.2627,-1.2905,-1.2905,-1.2905,-1.2808,-1.2431,-1.2627,-1.2783,-1.2397,-1.2627,-1.2905,-1.2905,-1.3232,-1.3652,-1.4046,-1.4502,-1.4941,-1.5361,-1.541,-1.5459,-1.5586,-1.4744,-1.4289,-1.4498,-1.3228,-1.2385,-1.2372,-1.1801,-1.1632,-1.198,-1.1219,-1.0846,-1.0894,-1.07,-1.0693,-1.0868,-1.1156,-1.145,-1.1744,-1.2037,-1.2218,-1.0837,0.0,0.0,0.0,0.0,0.0,0.0,0.0,0.0,0.0,0.0,0.0,-1.3811,-1.3368,0.0,-1.3486,-1.3063,-1.2709,-1.2709,-1.2709,-1.2709,-1.2709,-1.2745,-1.275,-1.275,-1.282,-1.2873,-1.2873,-1.2878,-1.2943,-1.3025,-1.3025,-1.306,-1.3163,-1.2773,-1.2407,-1.2095,-1.17,-1.1303,-1.091,-1.091,-1.091,-1.091,-1.091,-1.091,-1.0921,-1.1199,-1.1436,-1.1633,-1.2161,-1.2492,-1.271,-1.3142,-1.3318,-1.3338,-1.3477,-1.3515,-1.3491,-1.3372,-1.3252,-1.3142,-1.3123,-1.3012,-1.2905,-1.2905,-1.2749,-1.2627,-1.2832,-1.2759,-1.2505,-1.2175,-1.2348,-1.2578,-1.2578,-1.2735,-1.2749,-1.2224,-1.2348,-1.2431,-1.1843,-1.1993,-1.2271,-1.2413,-1.298,-1.3474,-1.3607,-1.3988,-1.4359,-1.461,-1.4883,-1.4942,-1.4667,-1.3953,-1.3475,-1.3416,-1.2216,-1.1525,-1.1589,-1.1205,-1.1127,-1.1506,-1.0999,-1.0823,-1.0989,-1.0854,-1.0875,-1.1169,-1.1456,-1.1697,-1.1913,-1.2171,-1.2305,0.0,0.0,0.0,0.0,0.0,0.0,0.0,0.0,0.0,0.0,0.0,-1.249,-1.2609,-1.2556,-1.2496,-1.2549,-1.2602,-1.2607,-1.2559,-1.2547,-1.2547,-1.2547,-1.2613,-1.2637,-1.2637,-1.2677,-1.2712,-1.2712,-1.2733,-1.2738,-1.277,-1.277,-1.2859,-1.299,-1.265,-1.233,-1.2048,-1.1682,-1.1303,-1.091,-1.091,-1.091,-1.091,-1.091,-1.091,-1.091,-1.091,-1.1127,-1.1529,-1.1571,-1.184,-1.2287,-1.2689,-1.2863,-1.2934,-1.3252,-1.3379,-1.3386,-1.3194,-1.3094,-1.3002,-1.2954,-1.2881,-1.2832,-1.2759,-1.2431,-1.22,-1.2627,-1.2397,-1.2002,-1.1952,-1.1968,-1.2002,-1.1952,-1.2348,-1.2603,-1.2076,-1.1968,-1.1843,-1.1225,-1.1183,-1.1302,-1.165,-1.2502,-1.3103,-1.2923,-1.3241,-1.3511,-1.3511,-1.4013,-1.4172,-1.3571,-1.345,-1.3169,-1.2543,-1.2032,-1.1611,-1.1324,-1.1214,-1.1069,-1.0855,-1.0721,-1.0754,-1.0989,-1.1015,-1.1176,-1.147,-1.1737,-1.1919,-1.1953,-1.2178,-1.2305,0.0,0.0,0.0,0.0,0.0,0.0,0.0,0.0,0.0,0.0,0.0,-1.2204,-1.2222,-1.2204,-1.2058,-1.1653,-1.188,-1.1933,-1.1512,-1.1435,-1.1435,-1.1435,-1.1813,-1.2078,-1.2078,-1.2082,-1.2082,-1.2082,-1.1713,-1.1555,-1.1702,-1.1822,-1.1971,-1.2162,-1.2174,-1.2023,-1.1627,-1.1534,-1.1303,-1.091,-1.091,-1.091,-1.091,-1.091,-1.091,-1.091,-1.091,-1.0962,-1.1076,-1.1446,-1.1674,-1.1809,-1.2245,-1.2617,-1.2915,-1.2985,-1.3183,-1.3338,-1.2895,-1.2589,-1.2329,-1.1907,-1.1999,-1.2175,-1.171,-1.1819,-1.2026,-1.166,-1.1485,-1.1309,-1.088,-1.1082,-1.1284,-1.0854,-1.1183,-1.141,-1.088,-1.1108,-1.1234,-1.0676,-1.0897,-1.1302,-1.165,-1.1884,-1.2257,-1.2794,-1.3241,-1.3511,-1.3511,-1.3631,-1.3662,-1.3511,-1.3039,-1.2665,-1.2512,-1.1823,-1.1374,-1.131,-1.1052,-1.0939,-1.111,-1.0993,-1.0929,-1.0995,-1.1216,-1.1476,-1.177,-1.1873,-1.202,-1.2211,-1.2271,-1.2305,0.0,0.0,0.0,0.0,0.0,0.0,0.0,0.0,0.0,0.0,-1.1737,-1.159,-1.1774,-1.1464,-1.1149,-1.1079,-1.1179,-1.1143,-1.0719,-1.0779,-1.0857,-1.0857,-1.1109,-1.1334,-1.1508,-1.1524,-1.1524,-1.1524,-1.1255,-1.1081,-1.1023,-1.1332,-1.1503,-1.1528,-1.182,-1.1847,-1.1497,-1.1497,-1.1303,-1.091,-1.091,-1.091,-1.091,-1.091,-1.091,-1.091,-1.091,-1.091,-1.0921,-1.1168,-1.1261,-1.1302,-1.1778,-1.2106,-1.2382,-1.272,-1.2949,-1.2997,-1.2564,-1.2295,-1.2067,-1.1493,-1.1476,-1.161,-1.1309,-1.1234,-1.1267,-1.1234,-1.1032,-1.0753,-1.0472,-1.06,-1.0676,-1.0138,-1.0617,-1.1049,-1.0523,-1.0625,-1.0651,-1.0113,-1.0233,-1.0597,-1.1094,-1.1439,-1.1903,-1.2589,-1.2629,-1.2597,-1.2597,-1.2834,-1.2917,-1.2628,-1.2551,-1.2389,-1.2097,-1.167,-1.1404,-1.1303,-1.1294,-1.1249,-1.1205,-1.1431,-1.1519,-1.1444,-1.1563,-1.1784,-1.2078,-1.2078,-1.2151,-1.2305,-1.2305,-1.2305,0.0,0.0,0.0,0.0,0.0,0.0,0.0,0.0,0.0,0.0,-1.0883,-1.0954,-1.1292,-1.0706,-1.0235,-1.0482,-1.042,-1.0249,-0.995,-1.0096,-1.0236,-1.0251,-1.0347,-1.0514,-1.0847,-1.0878,-1.0908,-1.0966,-1.0882,-1.0709,-1.0455,-1.0826,-1.1024,-1.0989,-1.1373,-1.1538,-1.1404,-1.1397,-1.1239,-1.091,-1.091,-1.091,-1.091,-1.091,-1.091,-1.091,-1.091,-1.091,-1.091,-1.0881,-1.0881,-1.0922,-1.1273,-1.1469,-1.1579,-1.2248,-1.2466,-1.2352,-1.203,-1.1884,-1.1719,-1.1124,-1.0998,-1.1032,-1.0947,-1.0676,-1.0472,-1.0821,-1.0592,-1.0267,-1.0267,-1.0267,-1.0138,-0.9718,-1.0277,-1.0795,-1.037,-1.0267,-1.0154,-0.9765,-0.979,-1.0038,-1.058,-1.1195,-1.1771,-1.2274,-1.1919,-1.1591,-1.1591,-1.2035,-1.2151,-1.1654,-1.2035,-1.2128,-1.1654,-1.1591,-1.1551,-1.1413,-1.1632,-1.1661,-1.1435,-1.1888,-1.2075,-1.198,-1.198,-1.2094,-1.2305,-1.2305,-1.2305,-1.2305,-1.2305,-1.2305,0.0,0.0,0.0,0.0,0.0,0.0,0.0,0.0,0.0,0.0,-1.0208,-1.0659,-1.0717,-1.0342,-0.9887,-0.9481,-0.9388,-0.9227,-0.8789,-0.8753,-0.8806,-0.8857,-0.9278,-0.9668,-0.9952,-0.9967,-1.0097,-1.0384,-0.9978,-0.9739,-0.9821,-0.972,-0.9922,-1.0474,-1.0382,-1.055,-1.0976,-1.0976,-1.0957,-1.091,-1.091,-1.091,-1.091,-1.091,-1.091,-1.091,-1.091,-1.091,-1.091,-1.0833,-1.0803,-1.0813,-1.0749,-1.0745,-1.0795,-1.1173,-1.1292,-1.1184,-1.0923,-1.0736,-1.0549,-1.0002,-1.0131,-1.0421,-0.995,-1.0087,-1.0326,-0.9925,-0.9769,-0.9718,-0.9718,-0.9718,-0.9692,-0.9614,-0.9718,-0.9795,-0.9718,-0.9718,-0.9773,-0.998,-1.0492,-1.0938,-1.1026,-1.1349,-1.1622,-1.1709,-1.1654,-1.1591,-1.1591,-1.1685,-1.1685,-1.1622,-1.1685,-1.1685,-1.1622,-1.1591,-1.1677,-1.1891,-1.1689,-1.1752,-1.2214,-1.2036,-1.2027,-1.2238,-1.2245,-1.2265,-1.2305,-1.2305,-1.2305,-1.2305,-1.2305,-1.2305,0.0,0.0,0.0,0.0,0.0,0.0,0.0,0.0,-0.8864,-0.9196,-0.9329,-0.9553,-1.0157,-0.9894,-0.9456,-0.8992,-0.8846,-0.8602,-0.8016,-0.8103,-0.822,-0.8259,-0.8531,-0.8829,-0.9107,-0.9303,-0.9388,-0.936,-0.9304,-0.9145,-0.8876,-0.9062,-0.9224,-0.934,-0.9842,-1.02,-1.0442,-1.0747,-1.091,-1.091,-1.091,-1.091,-1.091,-1.091,-1.091,-1.091,-1.091,-1.0794,-1.0612,-1.0467,-1.0312,-1.0147,-1.0235,-1.0257,-1.0342,-1.0891,-1.1072,-1.097,-1.0698,-1.0507,-1.0318,-0.9769,-0.9769,-0.9899,-0.9666,-0.9769,-0.9906,-0.9666,-0.9588,-0.9588,-0.9588,-0.9588,-0.9588,-0.9588,-0.9588,-0.9588,-0.9588,-0.9588,-0.9709,-1.0038,-1.0631,-1.1107,-1.1107,-1.1379,-1.1591,-1.1591,-1.1591,-1.1591,-1.1591,-1.1591,-1.1591,-1.1591,-1.1591,-1.1591,-1.1591,-1.1498,-1.1565,-1.1859,-1.1815,-1.1908,-1.2233,-1.2276,-1.228,-1.2298,-1.2305,-1.2305,-1.2305,-1.2305,-1.2305,-1.2305,-1.2305,-1.2305,0.0,0.0,0.0,0.0,0.0,0.0,0.0,0.0,-0.8234,0.0,-0.8503,-0.8542,-0.9231,-0.9115,-0.8811,-0.8507,-0.8306,-0.8011,-0.7543,-0.7705,-0.7874,-0.7902,-0.7994,-0.8187,-0.8474,-0.8723,-0.8806,-0.8614,-0.8822,-0.8778,-0.8329,-0.8611,-0.8746,-0.8642,-0.944,-0.995,-1.0098,-1.0625,-1.091,-1.091,-1.091,-1.0881,-1.0881,-1.0881,-1.0881,-1.0881,-1.0881,-1.0756,-1.0505,-1.0205,-0.9922,-0.9716,-0.9734,-0.9677,-0.9668,-1.0374,-1.0544,-1.0411,-1.0372,-1.0277,-1.0138,-0.9718,-0.9588,-0.9588,-0.9588,-0.9588,-0.9588,-0.9588,-0.9588,-0.9588,-0.9588,-0.9588,-0.9588,-0.9588,-0.9588,-0.9588,-0.9588,-0.9746,-0.9936,-1.0177,-1.0777,-1.1224,-1.1224,-1.143,-1.1591,-1.1591,-1.156,-1.1529,-1.1529,-1.1498,-1.1466,-1.1466,-1.1466,-1.1466,-1.1466,-1.1341,-1.1411,-1.1843,-1.1884,-1.2013,-1.2208,-1.2403,-1.2452,-1.2305,-1.2305,-1.2305,-1.2305,-1.2305,-1.2305,-1.2305,-1.2305,-1.2305,0.0,0.0,0.0,0.0,0.0,0.0,0.0,0.0,0.0,-0.7675,-0.7867,-0.8017,-0.7689,-0.776,-0.7867,-0.785,-0.7519,-0.7307,-0.739,-0.7475,-0.7554,-0.7618,-0.7686,-0.7856,-0.8187,-0.8244,-0.8343,-0.8575,-0.8614,-0.8603,-0.8575,-0.8365,-0.8469,-0.8957,-0.9156,-0.9523,-1.0088,-1.0625,-1.091,-1.091,-1.091,-1.0881,-1.0803,-1.0803,-1.0803,-1.0803,-1.0881,-1.0881,-1.0824,-1.0254,-1.0,-0.9921,-0.9297,-0.881,-0.8559,-0.918,-0.9159,-0.8889,-0.9452,-0.964,-0.964,-0.9614,-0.9588,-0.9588,-0.9588,-0.9588,-0.9588,-0.9588,-0.9588,-0.9588,-0.9588,-0.9588,-0.9588,-0.9588,-0.9588,-0.9588,-0.9588,-1.0104,-1.0543,-1.0558,-1.1122,-1.1569,-1.1569,-1.1584,-1.1591,-1.1591,-1.1428,-1.1334,-1.1334,-1.1216,-1.1122,-1.1122,-1.1122,-1.1122,-1.1122,-1.1122,-1.135,-1.1947,-1.1833,-1.1963,-1.2551,-1.2409,-1.2305,-1.2305,-1.2305,-1.2305,-1.2305,-1.2305,-1.2305,-1.2305,-1.2305,-1.2305,0.0,0.0,0.0,0.0,0.0,0.0,0.0,-0.7367,-0.7376,-0.7222,-0.7022,-0.691,-0.7021,-0.7354,-0.7582,-0.7552,-0.7417,-0.732,-0.7271,-0.7372,-0.744,-0.746,-0.7569,-0.7686,-0.7802,-0.8058,-0.8158,-0.8033,-0.823,-0.8248,-0.8033,-0.7928,-0.7969,-0.8159,-0.8542,-0.9178,-1.0088,-1.0625,-1.091,-1.091,-1.091,-1.0862,-1.0803,-1.0803,-1.0612,-1.0293,-1.0312,-1.0225,-1.005,-0.9646,-0.9188,-0.8716,-0.8651,-0.8516,-0.8481,-0.9083,-0.9205,-0.9127,-0.947,-0.9588,-0.9588,-0.9588,-0.9588,-0.9588,-0.9588,-0.9588,-0.9588,-0.9588,-0.9588,-0.9588,-0.9588,-0.9588,-0.9588,-0.9588,-0.9775,-0.9929,-0.9929,-1.0272,-1.0646,-1.0887,-1.1291,-1.1591,-1.1591,-1.1591,-1.1665,-1.1831,-1.166,-1.1508,-1.1614,-1.14,-1.1216,-1.1122,-1.109,-1.109,-1.109,-1.0965,-1.1157,-1.1764,-1.1635,-1.1795,-1.2388,-1.2342,-1.2305,-1.2305,-1.2305,-1.2305,-1.2305,-1.2305,-1.2305,-1.2305,-1.2305,-1.2305,-0.9033,0.0,0.0,0.0,0.0,0.0,0.0,0.0,-0.6955,-0.6723,-0.6357,-0.6153,-0.6297,-0.6565,-0.6817,-0.6983,-0.7007,-0.6999,-0.6911,-0.7095,-0.7232,-0.7232,-0.7421,-0.7574,-0.7603,-0.7846,-0.7914,-0.771,-0.7899,-0.7928,-0.771,-0.7695,-0.7778,-0.7924,-0.8321,-0.9033,-1.0062,-1.0463,-1.0737,-1.091,-1.0785,-1.0699,-1.0631,-1.0448,-1.0176,-0.9833,-0.9724,-0.9607,-0.9469,-0.9108,-0.8643,-0.8165,-0.816,-0.8167,-0.8253,-0.8874,-0.9098,-0.9143,-0.9488,-0.9588,-0.9588,-0.9588,-0.9588,-0.9592,-0.9497,-0.9533,-0.9592,-0.9497,-0.9541,-0.9588,-0.9588,-0.9588,-0.9588,-0.9588,-0.9863,-1.0126,-1.0236,-1.0521,-1.0843,-1.1063,-1.1371,-1.1591,-1.1591,-1.1591,-1.1665,-1.1845,-1.166,-1.1539,-1.1628,-1.1344,-1.1083,-1.0996,-1.0965,-1.094,-1.094,-1.0807,-1.0955,-1.1418,-1.141,-1.1643,-1.2138,-1.2251,-1.2305,-1.2305,-1.2305,-1.2305,-1.2305,-1.2305,-1.2305,-1.2305,-1.2305,-1.2305,0.0,0.0,0.0,0.0,0.0,0.0,-0.7888,0.0,-0.6878,-0.6145,-0.5936,-0.5781,-0.5458,-0.5347,-0.5499,-0.6073,-0.6243,-0.6291,-0.6299,-0.6643,-0.69,-0.69,-0.7259,-0.7525,-0.7588,-0.7603,-0.7618,-0.7695,-0.7695,-0.7695,-0.7695,-0.7695,-0.7905,-0.8356,-0.8523,-0.903,-0.9942,-1.0108,-1.0417,-1.086,-1.0544,-1.037,-1.0283,-0.9745,-0.9498,-0.9439,-0.9136,-0.9096,-0.9219,-0.8695,-0.848,-0.8419,-0.7899,-0.7691,-0.7771,-0.8451,-0.8692,-0.878,-0.9402,-0.9588,-0.9588,-0.9588,-0.9588,-0.9563,-0.9302,-0.9387,-0.9555,-0.9295,-0.9394,-0.9588,-0.9588,-0.9588,-0.9588,-0.9588,-0.987,-1.0199,-1.0521,-1.088,-1.1122,-1.1122,-1.1379,-1.1591,-1.1591,-1.1591,-1.1591,-1.1606,-1.1418,-1.1286,-1.1286,-1.1003,-1.0814,-1.0807,-1.0681,-1.0593,-1.0593,-1.0593,-1.0713,-1.0975,-1.1256,-1.155,-1.1879,-1.2138,-1.2285,-1.2285,-1.2298,-1.2305,-1.2305,-1.2305,-1.2305,-1.2305,-1.2305,-1.2305,-0.9106,0.0,0.0,0.0,0.0,0.0,0.0,0.0,-0.6666,-0.6184,-0.5828,-0.5577,-0.5433,-0.5386,-0.5406,-0.5536,-0.5775,-0.6029,-0.626,-0.6604,-0.6822,-0.6822,-0.7193,-0.7425,-0.7455,-0.7539,-0.7603,-0.7618,-0.7681,-0.7695,-0.7695,-0.7695,-0.7768,-0.7885,-0.8311,-0.8652,-0.8908,-0.9669,-1.0126,-1.0258,-1.0299,-1.0186,-0.9923,-0.9687,-0.925,-0.8712,-0.8663,-0.8459,-0.816,-0.8345,-0.8229,-0.7919,-0.7753,-0.7691,-0.7771,-0.8451,-0.8692,-0.878,-0.9402,-0.9588,-0.9588,-0.9588,-0.9588,-0.9599,-0.9519,-0.9548,-0.9599,-0.9511,-0.9548,-0.9588,-0.9588,-0.9588,-0.9588,-0.9588,-1.0046,-1.0477,-1.0565,-1.1056,-1.1428,-1.1267,-1.1308,-1.1341,-1.1247,-1.1247,-1.1294,-1.1489,-1.1485,-1.142,-1.1298,-1.1194,-1.0982,-1.0676,-1.0624,-1.0593,-1.0593,-1.0593,-1.0713,-1.0975,-1.1069,-1.1243,-1.1536,-1.183,-1.2027,-1.2027,-1.2191,-1.2305,-1.2305,-1.2305,-1.2305,-1.2305,-1.2305,-1.2305,0.0,0.0,0.0,0.0,0.0,0.0,-0.7702,-0.7083,-0.6467,0.0,-0.5838,-0.5729,-0.5384,-0.5652,-0.5829,-0.544,-0.5521,-0.5693,-0.5858,-0.6176,-0.6428,-0.6573,-0.693,-0.7223,-0.7425,-0.7519,-0.7583,-0.7642,-0.7681,-0.7637,-0.7495,-0.7495,-0.7495,-0.7495,-0.7829,-0.8164,-0.8501,-0.9107,-0.9618,-0.9993,-0.978,-0.9666,-0.9667,-0.9162,-0.8687,-0.8242,-0.818,-0.7995,-0.7726,-0.8133,-0.8068,-0.7691,-0.7691,-0.7691,-0.7771,-0.8451,-0.8692,-0.878,-0.9402,-0.9588,-0.9588,-0.9588,-0.9588,-0.9592,-0.9468,-0.9519,-0.9592,-0.9468,-0.9519,-0.9588,-0.9588,-0.9588,-0.9588,-0.9588,-1.0111,-1.0587,-1.0587,-1.1129,-1.156,-1.1466,-1.1365,-1.1272,-1.1216,-1.1153,-1.1154,-1.1297,-1.1325,-1.1293,-1.1235,-1.1099,-1.0934,-1.0701,-1.0618,-1.0593,-1.0593,-1.0593,-1.0667,-1.0834,-1.0922,-1.1069,-1.1236,-1.153,-1.1683,-1.1683,-1.185,-1.1997,-1.2124,-1.2245,-1.2305,-1.2305,-1.2305,-1.2305,-0.9353,-0.919,0.0,0.0,0.0,0.0,-0.8127,-0.7383,-0.655,-0.587,-0.6082,-0.6172,-0.5465,-0.6089,-0.6443,-0.5651,-0.5501,-0.5436,-0.5316,-0.5592,-0.5905,-0.6207,-0.6573,-0.6957,-0.7392,-0.7475,-0.7534,-0.7622,-0.7637,-0.751,-0.7211,-0.7196,-0.7196,-0.7196,-0.7231,-0.7587,-0.8297,-0.8414,-0.8908,-0.9768,-0.9069,-0.8957,-0.9339,-0.8431,-0.8,-0.7959,-0.7787,-0.7712,-0.772,-0.8026,-0.7997,-0.7749,-0.7749,-0.7749,-0.7822,-0.8458,-0.8692,-0.878,-0.9402,-0.9588,-0.9588,-0.9588,-0.9588,-0.9563,-0.9332,-0.9409,-0.9555,-0.9324,-0.9409,-0.9588,-0.9588,-0.9562,-0.9562,-0.9562,-1.0028,-1.0515,-1.0551,-1.104,-1.1485,-1.1553,-1.1404,-1.1279,-1.124,-1.1122,-1.1028,-1.1028,-1.1062,-1.1069,-1.1066,-1.0898,-1.081,-1.0776,-1.0681,-1.0593,-1.0593,-1.0593,-1.0593,-1.0593,-1.0834,-1.0949,-1.0949,-1.1223,-1.1342,-1.1342,-1.1375,-1.1557,-1.1859,-1.2111,-1.2271,-1.2305,-1.2305,-1.2268,-0.9498,-0.9393,-0.9298,-0.9182,0.0,0.0,-0.8548,-0.8332,-0.8069,0.0,-0.7049,-0.6794,-0.6337,-0.6498,-0.6494,-0.5847,-0.5821,-0.5767,-0.5436,-0.5631,-0.5827,-0.5889,-0.6428,-0.6852,-0.7005,-0.7312,-0.7431,-0.7229,-0.7264,-0.727,-0.7211,-0.7196,-0.7196,-0.7196,-0.6955,-0.69,-0.7054,-0.7438,-0.7862,-0.8317,-0.8325,-0.8426,-0.861,-0.8311,-0.8023,-0.7774,-0.7836,-0.7795,-0.7698,-0.7764,-0.7924,-0.8107,-0.8107,-0.8107,-0.8151,-0.8546,-0.8692,-0.878,-0.9402,-0.9588,-0.9588,-0.9588,-0.9588,-0.9599,-0.9548,-0.957,-0.9599,-0.9548,-0.9467,-0.9439,-0.9439,-0.9361,-0.929,-0.929,-0.9579,-0.9946,-1.0165,-1.0511,-1.088,-1.1142,-1.1185,-1.1059,-1.0776,-1.0713,-1.0688,-1.0688,-1.0884,-1.0951,-1.0715,-1.0858,-1.088,-1.0645,-1.0624,-1.0593,-1.0593,-1.0593,-1.0593,-1.0593,-1.0646,-1.0673,-1.0673,-1.0922,-1.1076,-1.1076,-1.1309,-1.1422,-1.1516,-1.181,-1.2078,-1.2305,-1.2305,-1.1966,-0.9618,-0.9526,-0.9479,-0.9617,0.0,0.0,0.0,-0.8466,-0.7889,-0.7482,-0.7344,-0.7114,-0.651,-0.6832,-0.6991,-0.6352,-0.6047,-0.5834,-0.5621,-0.5624,-0.5702,-0.5835,-0.6152,-0.642,-0.6634,-0.7011,-0.722,-0.716,-0.7023,-0.6889,-0.6755,-0.6755,-0.6755,-0.6755,-0.658,-0.6572,-0.6691,-0.6927,-0.7345,-0.7904,-0.7757,-0.7953,-0.8394,-0.8085,-0.7865,-0.7691,-0.7774,-0.7753,-0.7705,-0.7887,-0.8055,-0.8187,-0.8026,-0.8158,-0.8465,-0.8626,-0.8811,-0.9024,-0.9453,-0.9588,-0.9588,-0.9588,-0.9588,-0.9588,-0.9588,-0.9588,-0.9562,-0.9361,-0.9475,-0.9613,-0.9449,-0.9429,-0.9407,-0.9253,-0.9227,-0.932,-0.9564,-0.9643,-0.9807,-1.0355,-1.0446,-1.0516,-1.0681,-1.0656,-1.0593,-1.0593,-1.0713,-1.076,-1.0613,-1.072,-1.0754,-1.0606,-1.0593,-1.0593,-1.0593,-1.0593,-1.0593,-1.0593,-1.0593,-1.0593,-1.0593,-1.0734,-1.0807,-1.0807,-1.0922,-1.1062,-1.1209,-1.1363,-1.1657,-1.2084,-1.2084,-1.1945,0.0,0.0,0.0,0.0,0.0,-0.941,0.0,0.0,0.0,0.0,0.0,0.0,0.0,0.0,-0.7449,-0.6779,-0.6274,-0.5925,-0.585,-0.5632,-0.5557,-0.5708,-0.5845,-0.6029,-0.6291,-0.6626,-0.6867,-0.6978,-0.673,-0.6496,-0.6307,-0.6299,-0.6299,-0.6299,-0.6238,-0.6314,-0.6518,-0.6518,-0.6907,-0.7674,-0.7281,-0.752,-0.825,-0.7878,-0.7691,-0.7691,-0.7691,-0.7691,-0.7713,-0.7997,-0.8143,-0.818,-0.7909,-0.8099,-0.8567,-0.8567,-0.8721,-0.8987,-0.928,-0.9406,-0.9491,-0.9491,-0.9491,-0.9491,-0.9491,-0.9439,-0.9276,-0.8896,-0.916,-0.9494,-0.9298,-0.9357,-0.9432,-0.9239,-0.8957,-0.8776,-0.8951,-0.8753,-0.8715,-0.942,-0.955,-0.9805,-1.0611,-1.0681,-1.0593,-1.0593,-1.0593,-1.0593,-1.0593,-1.0593,-1.0593,-1.0593,-1.0593,-1.053,-1.0396,-1.0396,-1.0333,-1.0199,-1.0333,-1.0333,-1.0199,-1.0333,-1.046,-1.0593,-1.0593,-1.0707,-1.0909,-1.0909,-1.1276,-1.1906,-1.1906,-1.1952,0.0,0.0,0.0,0.0,-1.0328,0.0,0.0,0.0,-0.9451,-0.8914,0.0,0.0,0.0,0.0,0.0,0.0,-0.6562,-0.639,-0.6036,-0.5695,-0.5409,-0.513,-0.5627,-0.6006,-0.6037,-0.6083,-0.6137,-0.6221,-0.6191,-0.6214,-0.6299,-0.6299,-0.6299,-0.6299,-0.6013,-0.5874,-0.5897,-0.5897,-0.6217,-0.6848,-0.6775,-0.7121,-0.7774,-0.7712,-0.7691,-0.7691,-0.7691,-0.7691,-0.7698,-0.7735,-0.7938,-0.8194,-0.8158,-0.8107,-0.8082,-0.8082,-0.8072,-0.8094,-0.843,-0.8765,-0.9061,-0.9061,-0.9061,-0.9061,-0.9061,-0.8817,-0.8474,-0.8117,-0.8118,-0.8283,-0.8614,-0.8701,-0.8792,-0.9113,-0.8811,-0.8486,-0.8638,-0.8269,-0.8037,-0.8558,-0.8646,-0.9069,-1.0396,-1.0624,-1.0593,-1.0593,-1.0593,-1.0593,-1.0593,-1.0593,-1.0593,-1.0593,-1.0593,-1.0333,-0.9678,-0.962,-0.9358,-0.878,-0.9294,-0.9358,-0.878,-0.9294,-0.9939,-1.0593,-1.0593,-1.0606,-1.064,-1.064,-1.1075,-1.1906,-1.1906,-1.1663,0.0,0.0,0.0,0.0,0.0,0.0,-0.9974,0.0,-0.9357,0.0,0.0,0.0,0.0,0.0,0.0,0.0,-0.6745,0.0,-0.6207,-0.5819,-0.5498,-0.5363,-0.5663,-0.6082,-0.6578,-0.6244,-0.6116,-0.6361,-0.6206,-0.6058,-0.5958,-0.6172,-0.6203,-0.6021,-0.5874,-0.5796,-0.5796,-0.5796,-0.6102,-0.6702,-0.6702,-0.7044,-0.7691,-0.7691,-0.7691,-0.7691,-0.7691,-0.7691,-0.7691,-0.7691,-0.7771,-0.7895,-0.7702,-0.7888,-0.8272,-0.8072,-0.808,-0.8209,-0.8356,-0.8501,-0.8666,-0.8666,-0.8666,-0.8606,-0.8342,-0.8315,-0.8289,-0.7717,-0.7823,-0.8105,-0.7975,-0.8052,-0.8125,-0.8101,-0.7755,-0.7417,-0.7486,-0.7159,-0.7066,-0.7782,-0.7907,-0.8231,-0.9198,-0.9396,-0.9396,-0.9396,-0.9396,-0.9524,-0.9907,-0.997,-1.0136,-1.0555,-1.0593,-1.0301,-0.955,-0.9486,-0.923,-0.8554,-0.878,-0.8812,-0.8522,-0.878,-0.9262,-0.9939,-0.997,-0.997,-0.997,-0.997,-1.0033,-1.0179,-1.1177,-1.1594,-1.1043,0.0,0.0,0.0,0.0,0.0,0.0,0.0,0.0,0.0,0.0,0.0,0.0,0.0,0.0,0.0,0.0,-0.6667,0.0,-0.5905,0.0,0.0,-0.5618,-0.5919,-0.6539,-0.6165,-0.5989,-0.6198,-0.6127,-0.5949,-0.5652,-0.5949,-0.6029,-0.5779,-0.578,-0.5796,-0.5796,-0.5796,-0.6102,-0.6702,-0.6702,-0.7044,-0.7691,-0.7691,-0.7691,-0.7691,-0.7607,-0.7607,-0.7698,-0.7553,-0.7539,-0.7545,-0.7329,-0.7577,-0.8037,-0.7798,-0.7835,-0.8049,-0.8049,-0.8103,-0.8235,-0.8368,-0.8315,-0.8156,-0.7803,-0.7857,-0.7889,-0.7208,-0.7406,-0.7732,-0.743,-0.7535,-0.7667,-0.7525,-0.7156,-0.6817,-0.6792,-0.648,-0.6387,-0.7061,-0.7199,-0.7358,-0.7842,-0.8231,-0.849,-0.849,-0.849,-0.8683,-0.9166,-0.923,-0.9422,-0.9977,-1.0009,-0.9716,-0.9005,-0.8935,-0.8748,-0.8264,-0.8037,-0.8102,-0.849,-0.8328,-0.8554,-0.9198,-0.923,-0.923,-0.923,-0.923,-0.9064,-0.8815,-1.0107,-1.0909,0.0,0.0,0.0,-1.0079,0.0,0.0,0.0,0.0,-0.951,0.0,0.0,0.0,0.0,0.0,0.0,0.0,0.0,0.0,0.0,0.0,0.0,0.0,0.0,0.0,-0.5353,-0.5515,-0.5517,-0.5254,-0.5718,-0.5851,-0.5528,-0.5645,-0.5715,-0.5708,-0.5772,-0.5796,-0.5796,-0.5796,-0.6102,-0.6702,-0.6702,-0.7044,-0.7691,-0.7691,-0.7691,-0.7677,-0.7363,-0.7398,-0.7678,-0.7209,-0.7098,-0.7228,-0.734,-0.7206,-0.6947,-0.6941,-0.7036,-0.7139,-0.7139,-0.7402,-0.7803,-0.8262,-0.8103,-0.7723,-0.7696,-0.7429,-0.7004,-0.6399,-0.6544,-0.6872,-0.6917,-0.7224,-0.7579,-0.7887,-0.7587,-0.7157,-0.701,-0.658,-0.6233,-0.6416,-0.6449,-0.6453,-0.6449,-0.7587,-0.849,-0.849,-0.849,-0.8522,-0.8522,-0.8522,-0.8554,-0.8554,-0.8554,-0.8296,-0.7619,-0.7554,-0.7554,-0.7521,-0.6872,-0.7068,-0.8458,-0.7879,-0.7847,-0.8522,-0.8522,-0.8522,-0.8522,-0.8522,-0.8528,-0.8506,-0.8837,-0.9237,-0.9595,-0.9473,-0.9276,-0.983,-0.9392,-0.8946,0.0,0.0,0.0,0.0,0.0,0.0,0.0,0.0,0.0,0.0,0.0,0.0,0.0,0.0,0.0,0.0,0.0,0.0,0.0,-0.5952,-0.6041,-0.5808,-0.6161,-0.6188,-0.5732,-0.5913,-0.5872,-0.5505,-0.5702,-0.5796,-0.5796,-0.5796,-0.5986,-0.6373,-0.6373,-0.6595,-0.7048,-0.7048,-0.7048,-0.7027,-0.6922,-0.6943,-0.7026,-0.7017,-0.6944,-0.6855,-0.6826,-0.6848,-0.6911,-0.7049,-0.7095,-0.7085,-0.6891,-0.6977,-0.7198,-0.7246,-0.7219,-0.7144,-0.7052,-0.6945,-0.6701,-0.6114,-0.6116,-0.6321,-0.6241,-0.6427,-0.6663,-0.6782,-0.6744,-0.6645,-0.6484,-0.6401,-0.6343,-0.6404,-0.6387,-0.6387,-0.6387,-0.6806,-0.7101,-0.7101,-0.7101,-0.7293,-0.7782,-0.7847,-0.8004,-0.8458,-0.849,-0.8231,-0.7554,-0.7068,-0.6778,-0.6778,-0.6548,-0.6613,-0.7097,-0.6905,-0.7101,-0.7809,-0.7847,-0.7847,-0.7847,-0.7847,-0.7587,-0.7101,-0.7202,-0.7942,-0.8353,-0.8315,-0.8283,-0.8796,-0.8464,-0.8201,-0.8938,-0.8731,-0.8487,0.0,0.0,0.0,0.0,0.0,0.0,0.0,0.0,0.0,0.0,-0.6244,0.0,0.0,0.0,0.0,0.0,0.0,-0.5989,-0.6117,-0.6226,-0.6153,-0.5881,-0.5851,-0.5685,-0.534,-0.5451,-0.5554,-0.5648,-0.5778,-0.5959,-0.6196,-0.6322,-0.6481,-0.6704,-0.6704,-0.6704,-0.6704,-0.6577,-0.6535,-0.656,-0.6606,-0.6496,-0.6349,-0.6502,-0.6603,-0.6663,-0.6845,-0.6991,-0.7058,-0.6842,-0.6793,-0.6793,-0.6652,-0.6625,-0.6625,-0.6539,-0.6512,-0.6431,-0.5927,-0.598,-0.612,-0.595,-0.6098,-0.6273,-0.6273,-0.6331,-0.6388,-0.6298,-0.6335,-0.6387,-0.6387,-0.6387,-0.6387,-0.6387,-0.6387,-0.6387,-0.6387,-0.6387,-0.6581,-0.7036,-0.7101,-0.7265,-0.7712,-0.7744,-0.7587,-0.7134,-0.6679,-0.6387,-0.6387,-0.6387,-0.6387,-0.6387,-0.6387,-0.6613,-0.7101,-0.7101,-0.7101,-0.7101,-0.7101,-0.6872,-0.6387,-0.6387,-0.697]},{"header":{"parameterUnit":"m.s-1","parameterCategory":1,"la1":30.6,"la2":29.2853,"lo1":-89.7004,"lo2":-87.6739,"dy":0.0162,"dx":0.0183,"nx":112,"ny":82,"refTime":"2026-03-22T00:00:00:Z","depth":0,"parameterNumber":3,"parameterNumberName":"V-component_of_WINDS"},"data":[0.0,0.0,0.0,0.0,0.0,0.0,0.0,0.0,0.0,0.0,0.0,0.0,0.0,0.0,0.0,0.0,0.0,0.0,0.0,0.0,0.0,0.0,0.0,0.0,0.0,0.0,0.0,0.0,0.0,0.0,0.0,0.0,0.0,0.0,0.0,0.0,0.0,0.0,0.0,0.0,0.0,0.0,0.0,0.0,0.0,0.0,0.0,0.0,0.0,0.0,0.0,0.0,0.0,0.0,0.0,0.0,0.0,0.0,0.0,0.0,0.0,0.0,0.0,0.0,0.0,0.0,0.0,0.0,0.0,0.0,0.0,0.0,0.0,0.0,0.0,0.0,0.0,0.0,0.0,0.0,0.0,0.0,0.0,0.0,0.0,0.0,0.0,0.0,0.0,0.0,1.8076,1.7465,1.8631,1.9917,2.1188,2.0539,1.9742,1.8935,0.0,0.0,0.0,0.0,0.0,0.0,0.0,0.0,0.0,0.0,0.0,0.0,0.0,0.0,0.0,0.0,0.0,0.0,0.0,0.0,0.0,0.0,0.0,0.0,0.0,0.0,0.0,0.0,0.0,0.0,0.0,0.0,0.0,0.0,0.0,0.0,0.0,0.0,0.0,0.0,0.0,0.0,0.0,0.0,0.0,0.0,0.0,0.0,0.0,0.0,0.0,0.0,0.0,0.0,0.0,0.0,0.0,0.0,0.0,0.0,0.0,0.0,0.0,0.0,0.0,0.0,0.0,0.0,0.0,0.0,0.0,0.0,0.0,0.0,0.0,0.0,0.0,0.0,0.0,0.0,0.0,0.0,0.0,0.0,0.0,0.0,0.0,0.0,0.0,0.0,0.0,0.0,0.0,0.0,0.0,0.0,0.0,0.0,0.0,0.0,0.0,0.0,0.0,0.0,1.8157,1.9916,2.1096,2.1633,2.1337,2.1252,2.0575,1.8987,0.0,0.0,0.0,0.0,0.0,0.0,0.0,0.0,0.0,0.0,0.0,0.0,0.0,0.0,0.0,0.0,0.0,0.0,0.0,0.0,0.0,0.0,0.0,0.0,0.0,0.0,0.0,0.0,0.0,0.0,0.0,0.0,0.0,0.0,0.0,0.0,0.0,0.0,0.0,0.0,0.0,0.0,0.0,0.0,0.0,0.0,0.0,0.0,0.0,0.0,0.0,0.0,0.0,0.0,0.0,0.0,0.0,0.0,0.0,0.0,0.0,0.0,0.0,0.0,0.0,0.0,0.0,0.0,0.0,0.0,0.0,0.0,0.0,0.0,0.0,0.0,0.0,0.0,0.0,0.0,0.0,0.0,0.0,0.0,0.0,0.0,0.0,0.0,0.0,0.0,0.0,0.0,0.0,0.0,0.0,0.0,0.0,0.0,0.0,0.0,0.0,0.0,0.0,1.8519,1.9437,2.1492,2.2171,2.2406,2.2295,2.1798,2.102,1.9894,1.8728,0.0,0.0,0.0,0.0,0.0,0.0,0.0,0.0,0.0,0.0,0.0,0.0,0.0,0.0,0.0,0.0,0.0,0.0,0.0,0.0,0.0,0.0,0.0,0.0,0.0,0.0,0.0,0.0,0.0,0.0,0.0,0.0,0.0,0.0,0.0,0.0,0.0,0.0,0.0,0.0,0.0,0.0,0.0,0.0,0.0,0.0,0.0,0.0,0.0,0.0,0.0,0.0,0.0,0.0,0.0,0.0,0.0,0.0,0.0,0.0,0.0,0.0,0.0,0.0,0.0,0.0,0.0,0.0,0.0,0.0,0.0,0.0,0.0,0.0,0.0,0.0,0.0,0.0,0.0,0.0,0.0,0.0,0.0,0.0,0.0,0.0,0.0,0.0,0.0,0.0,0.0,0.0,0.0,0.0,0.0,0.0,0.0,0.0,0.0,0.0,0.0,0.0,2.038,2.0941,2.2528,2.2767,2.2934,2.319,2.2207,2.1328,2.0698,1.9221,0.0,0.0,0.0,0.0,0.0,0.0,0.0,0.0,0.0,0.0,0.0,0.0,0.0,0.0,0.0,0.0,0.0,0.0,0.0,0.0,0.0,0.0,0.0,0.0,0.0,0.0,0.0,0.0,0.0,0.0,0.0,0.0,0.0,0.0,0.0,0.0,0.0,0.0,0.0,0.0,0.0,0.0,0.0,0.0,0.0,0.0,0.0,0.0,0.0,0.0,0.0,0.0,0.0,0.0,0.0,0.0,0.0,0.0,0.0,0.0,0.0,0.0,0.0,0.0,0.0,0.0,0.0,0.0,0.0,0.0,0.0,0.0,0.0,0.0,0.0,0.0,0.0,0.0,0.0,0.0,0.0,0.0,0.0,0.0,0.0,0.0,0.0,0.0,0.0,0.0,0.0,0.0,0.0,0.0,0.0,0.0,0.0,0.0,0.0,0.0,0.0,0.0,2.1181,2.2203,2.2905,2.3315,2.3531,2.3556,2.2508,2.1595,2.0909,1.9787,0.0,0.0,0.0,0.0,0.0,0.0,0.0,0.0,0.0,0.0,0.0,0.0,0.0,0.0,0.0,0.0,0.0,0.0,0.0,0.0,0.0,0.0,0.0,0.0,0.0,0.0,0.0,0.0,0.0,0.0,0.0,0.0,0.0,0.0,0.0,0.0,0.0,0.0,0.0,0.0,0.0,0.0,0.0,0.0,0.0,0.0,0.0,0.0,0.0,0.0,0.0,0.0,0.0,0.0,0.0,0.0,0.0,0.0,0.0,0.0,0.0,0.0,0.0,0.0,0.0,0.0,0.0,0.0,0.0,0.0,0.0,0.0,0.0,0.0,0.0,0.0,0.0,0.0,0.0,0.0,0.0,0.0,0.0,0.0,0.0,0.0,0.0,0.0,0.0,0.0,0.0,0.0,0.0,0.0,0.0,0.0,0.0,0.0,0.0,0.0,0.0,0.0,2.1492,2.2283,0.0,2.369,2.3618,2.3129,2.236,2.1648,2.1073,0.0,0.0,0.0,0.0,0.0,0.0,0.0,0.0,0.0,0.0,0.0,0.0,0.0,0.0,0.0,0.0,0.0,0.0,0.0,0.0,0.0,0.0,0.0,0.0,0.0,0.0,0.0,0.0,0.0,0.0,0.0,0.0,0.0,0.0,0.0,0.0,0.0,0.0,0.0,0.0,0.0,0.0,0.0,0.0,0.0,0.0,0.0,0.0,0.0,0.0,0.0,0.0,0.0,0.0,0.0,0.0,0.0,0.0,0.0,0.0,0.0,0.0,0.0,0.0,0.0,0.0,0.0,0.0,0.0,0.0,0.0,0.0,0.0,0.0,0.0,0.0,0.0,0.0,0.0,0.0,0.0,0.0,0.0,0.0,0.0,0.0,0.0,0.0,0.0,0.0,0.0,0.0,0.0,0.0,0.0,0.0,0.0,0.0,0.0,0.0,0.0,0.0,2.1441,2.1911,2.2407,0.0,2.3833,2.3609,2.2747,2.2308,2.1739,2.0965,0.0,0.0,0.0,0.0,0.0,0.0,0.0,0.0,0.0,0.0,0.0,0.0,0.0,0.0,0.0,0.0,0.0,0.0,0.0,0.0,0.0,0.0,0.0,0.0,0.0,0.0,0.0,0.0,0.0,0.0,0.0,0.0,0.0,0.0,0.0,0.0,0.0,0.0,0.0,0.0,0.0,0.0,0.0,0.0,0.0,0.0,0.0,0.0,0.0,0.0,0.0,0.0,0.0,0.0,0.0,0.0,0.0,0.0,0.0,0.0,0.0,0.0,0.0,0.0,0.0,0.0,0.0,0.0,0.0,0.0,0.0,0.0,0.0,0.0,0.0,0.0,0.0,0.0,0.0,0.0,0.0,0.0,0.0,0.0,0.0,0.0,0.0,0.0,0.0,0.0,0.0,0.0,0.0,0.0,0.0,0.0,0.0,0.0,0.0,0.0,0.0,0.0,2.2087,2.2509,2.2746,2.3145,2.3746,2.3629,2.248,2.2415,2.1851,0.0,0.0,0.0,0.0,0.0,0.0,0.0,0.0,0.0,0.0,0.0,0.0,0.0,0.0,0.0,0.0,0.0,0.0,0.0,0.0,0.0,0.0,0.0,0.0,0.0,0.0,0.0,0.0,0.0,0.0,0.0,0.0,0.0,0.0,0.0,0.0,0.0,0.0,0.0,0.0,0.0,0.0,0.0,0.0,0.0,0.0,0.0,0.0,0.0,0.0,0.0,0.0,0.0,0.0,0.0,0.0,0.0,0.0,0.0,0.0,0.0,0.0,0.0,0.0,0.0,0.0,0.0,0.0,0.0,0.0,0.0,0.0,0.0,0.0,0.0,0.0,0.0,0.0,0.0,0.0,0.0,0.0,0.0,0.0,0.0,0.0,0.0,0.0,0.0,0.0,0.0,0.0,0.0,0.0,0.0,0.0,0.0,0.0,0.0,0.0,0.0,0.0,0.0,2.1783,2.2074,2.23,2.2869,2.3465,2.3333,2.2141,2.2432,2.1956,2.025,0.0,0.0,0.0,0.0,0.0,0.0,0.0,0.0,0.0,0.0,0.0,0.0,0.0,0.0,0.0,0.0,0.0,0.0,0.0,0.0,0.0,0.0,0.0,0.0,0.0,0.0,0.0,0.0,0.0,0.0,0.0,0.0,0.0,0.0,0.0,0.0,0.0,0.0,0.0,0.0,0.0,0.0,0.0,0.0,0.0,0.0,0.0,0.0,0.0,0.0,0.0,0.0,0.0,0.0,0.0,0.0,0.0,0.0,0.0,0.0,0.0,0.0,0.0,0.0,0.0,0.0,0.0,0.0,0.0,0.0,0.0,0.0,0.0,0.0,0.0,0.0,0.0,0.0,0.0,0.0,0.0,0.0,0.0,0.0,0.0,0.0,0.0,0.0,0.0,0.0,0.0,0.0,0.0,0.0,0.0,0.0,0.0,0.0,0.0,0.0,0.0,0.0,2.1685,2.2151,2.2377,2.2418,2.3404,2.3364,2.1673,2.2312,2.1914,1.986,0.0,0.0,0.0,0.0,0.0,0.0,0.0,0.0,0.0,0.0,0.0,0.0,0.0,0.0,0.0,0.0,0.0,0.0,0.0,0.0,0.0,0.0,0.0,0.0,0.0,0.0,0.0,0.0,0.0,0.0,0.0,0.0,0.0,0.0,0.0,0.0,0.0,0.0,0.0,0.0,0.0,0.0,0.0,0.0,0.0,0.0,0.0,0.0,0.0,0.0,0.0,0.0,0.0,0.0,0.0,0.0,0.0,0.0,0.0,0.0,0.0,0.0,0.0,0.0,0.0,0.0,0.0,0.0,0.0,0.0,0.0,0.0,0.0,0.0,0.0,0.0,0.0,0.0,0.0,0.0,0.0,0.0,0.0,0.0,0.0,0.0,0.0,0.0,0.0,0.0,0.0,0.0,0.0,0.0,0.0,0.0,0.0,0.0,0.0,0.0,0.0,0.0,2.1656,2.2482,2.2655,2.1936,2.3418,2.3538,2.1232,2.2085,2.1777,1.947,0.0,0.0,0.0,0.0,0.0,0.0,0.0,0.0,0.0,0.0,0.0,0.0,0.0,0.0,0.0,0.0,0.0,0.0,0.0,0.0,0.0,0.0,0.0,0.0,0.0,0.0,0.0,0.0,0.0,0.0,0.0,0.0,0.0,0.0,0.0,0.0,0.0,0.0,0.0,0.0,0.0,0.0,0.0,0.0,0.0,0.0,0.0,0.0,0.0,0.0,0.0,0.0,0.0,0.0,0.0,0.0,0.0,0.0,0.0,0.0,1.7242,1.7316,0.0,0.0,0.0,0.0,0.0,0.0,0.0,0.0,0.0,0.0,0.0,0.0,0.0,0.0,0.0,0.0,0.0,0.0,0.0,0.0,0.0,0.0,0.0,0.0,0.0,0.0,0.0,0.0,0.0,0.0,0.0,0.0,0.0,0.0,0.0,0.0,0.0,0.0,0.0,0.0,2.1353,2.2054,2.2202,2.1569,2.2704,2.292,2.1448,2.1988,2.1558,1.9566,1.8993,0.0,0.0,0.0,0.0,0.0,0.0,0.0,0.0,0.0,0.0,0.0,0.0,0.0,0.0,0.0,0.0,0.0,0.0,0.0,0.0,0.0,0.0,0.0,0.0,0.0,0.0,0.0,0.0,0.0,0.0,0.0,0.0,0.0,0.0,0.0,0.0,0.0,0.0,0.0,0.0,0.0,0.0,0.0,0.0,0.0,0.0,0.0,0.0,0.0,0.0,0.0,0.0,0.0,0.0,0.0,0.0,0.0,0.0,0.0,1.8104,1.7879,0.0,0.0,0.0,0.0,0.0,0.0,0.0,0.0,0.0,0.0,0.0,0.0,0.0,0.0,0.0,0.0,0.0,0.0,0.0,0.0,0.0,0.0,0.0,0.0,0.0,0.0,0.0,0.0,0.0,0.0,0.0,0.0,0.0,0.0,0.0,0.0,0.0,0.0,0.0,0.0,2.1049,2.201,2.2215,2.1254,2.2174,2.2417,2.1354,2.1856,2.1536,1.9858,1.9747,0.0,0.0,0.0,0.0,0.0,0.0,0.0,0.0,0.0,0.0,0.0,0.0,0.0,0.0,0.0,0.0,0.0,0.0,0.0,0.0,0.0,0.0,0.0,0.0,0.0,0.0,0.0,0.0,0.0,0.0,0.0,0.0,0.0,0.0,0.0,0.0,0.0,0.0,0.0,0.0,0.0,0.0,0.0,0.0,0.0,0.0,0.0,0.0,0.0,0.0,0.0,0.0,0.0,1.9139,1.9671,2.103,2.025,1.99,1.9841,1.9152,1.8649,1.8352,1.8745,0.0,0.0,0.0,0.0,0.0,0.0,0.0,0.0,0.0,0.0,0.0,0.0,0.0,0.0,0.0,0.0,0.0,0.0,0.0,0.0,0.0,0.0,2.013,1.99,2.0312,2.0433,1.9211,0.0,0.0,0.0,0.0,0.0,0.0,0.0,0.0,0.0,0.0,0.0,2.1052,2.2247,2.2536,2.1259,2.1911,2.2059,2.1178,2.1608,2.1423,2.0226,2.0616,2.0201,0.0,0.0,0.0,0.0,0.0,0.0,0.0,0.0,0.0,0.0,0.0,0.0,0.0,0.0,0.0,0.0,0.0,0.0,0.0,0.0,0.0,0.0,0.0,0.0,0.0,0.0,0.0,0.0,0.0,0.0,0.0,0.0,1.3316,1.3985,0.0,0.0,0.0,0.0,0.0,0.0,0.0,0.0,0.0,0.0,0.0,0.0,0.0,1.8205,1.9013,1.903,1.9626,2.0773,1.9838,1.9644,2.0068,1.9718,1.9505,1.9406,1.9762,0.0,1.8817,1.9122,0.0,0.0,0.0,0.0,0.0,0.0,0.0,0.0,0.0,0.0,0.0,0.0,0.0,0.0,0.0,0.0,0.0,0.0,0.0,0.0,0.0,0.0,2.1555,2.0955,2.0903,2.0918,2.0723,2.0,1.9381,1.931,1.8849,1.845,0.0,0.0,0.0,0.0,0.0,0.0,2.1917,2.2885,2.3127,2.2128,2.2105,2.1899,2.1246,2.0996,2.0847,2.0685,2.0552,2.0361,2.0129,1.9061,0.0,0.0,0.0,0.0,0.0,0.0,0.0,0.0,0.0,0.0,0.0,0.0,0.0,0.0,0.0,0.0,0.0,0.0,0.0,0.0,0.0,0.0,0.0,0.0,0.0,0.0,0.0,0.0,0.0,1.2689,1.3715,1.4205,1.4527,1.4622,0.0,0.0,0.0,0.0,0.0,0.0,0.0,0.0,0.0,1.7443,1.8498,1.9331,1.9897,1.9965,2.0457,2.1396,2.0764,2.0813,2.1474,2.1216,2.0889,2.0494,2.0881,2.056,1.9767,2.0249,2.0198,1.9843,0.0,0.0,0.0,0.0,1.9315,1.9298,1.9883,2.0165,2.0197,1.987,0.0,0.0,0.0,0.0,0.0,0.0,0.0,2.0929,2.0542,2.1042,2.1503,2.0922,2.1213,2.156,2.1329,2.1068,2.0748,2.0364,2.0061,1.9709,1.9293,1.9016,0.0,0.0,0.0,2.1188,2.18,2.2606,2.281,2.1962,2.1967,2.1858,2.1354,2.1395,2.1376,2.1254,2.1485,2.164,2.164,2.0585,1.9947,0.0,0.0,0.0,0.0,0.0,0.0,0.0,0.0,0.0,0.0,0.0,0.0,0.0,0.0,0.0,0.0,0.0,0.0,0.0,0.0,0.0,0.0,0.0,0.0,0.0,0.0,0.0,0.0,1.3287,1.4107,1.4408,1.4808,1.4873,0.0,0.0,0.0,0.0,0.0,0.0,1.6583,1.7817,1.8612,1.886,1.9622,2.0233,2.0624,2.0605,2.0972,2.1747,2.1315,2.1504,2.222,2.2056,2.1721,2.1259,2.145,2.1244,2.0775,2.1047,2.0939,2.053,2.0213,1.9786,1.9417,1.9858,1.9927,1.9893,2.0506,2.0819,2.0896,2.0571,2.0909,2.1403,2.1059,0.0,0.0,0.0,0.0,2.126,2.0965,2.1274,2.1546,2.1171,2.163,2.2091,2.1792,2.1925,2.1925,2.1254,2.1167,2.1015,2.0473,1.9997,0.0,2.0747,0.0,2.1557,2.1894,2.2546,2.2714,2.2119,2.2091,2.2033,2.1828,2.2011,2.2036,2.1835,2.2517,2.2867,2.2679,2.2117,2.163,2.1252,0.0,0.0,0.0,0.0,0.0,0.0,0.0,0.0,0.0,0.0,0.0,0.0,0.0,0.0,0.0,0.0,0.0,0.0,0.0,0.0,0.0,0.0,0.0,0.0,0.0,0.0,0.0,0.0,0.0,1.4596,1.5444,0.0,0.0,0.0,0.0,1.6134,1.67,1.763,1.8956,1.8877,1.9363,2.0633,2.0479,2.0839,2.182,2.1125,2.1173,2.1884,2.1157,2.0841,2.0905,2.0888,2.0857,2.0825,2.0842,2.1172,2.1675,2.1077,2.0592,2.0218,2.0129,1.9848,1.9548,1.9937,2.0078,2.015,2.0626,2.0792,2.0919,2.15,2.2159,2.2818,2.3428,2.265,0.0,0.0,2.1492,2.1406,2.1372,2.1854,2.2335,2.2313,2.2347,2.2378,2.2359,2.2359,2.219,2.16,2.1733,2.1933,2.1903,0.0,2.1609,2.2295,2.242,2.253,2.2817,2.3157,2.3348,2.3318,2.2821,2.2596,2.2889,2.2636,2.2471,2.2459,2.3312,2.3557,2.2912,2.3443,2.3175,2.1881,2.1787,0.0,0.0,0.0,0.0,0.0,0.0,0.0,0.0,0.0,0.0,0.0,0.0,0.0,0.0,0.0,0.0,0.0,0.0,0.0,0.0,0.0,0.0,0.0,0.0,0.0,0.0,0.0,0.0,1.5507,1.6198,0.0,1.532,1.5829,1.6229,1.6259,1.7071,1.7806,1.8387,1.949,2.0414,2.1169,2.0831,2.1058,2.1884,2.1158,2.0921,2.1189,2.0921,2.0794,2.0794,2.0794,2.0794,2.0794,2.0794,2.0936,2.1142,2.0905,2.0996,2.1268,2.1042,2.0694,2.0388,2.0802,2.0765,2.064,2.1281,2.1522,2.1554,2.1878,2.1849,2.1771,2.2078,2.216,2.2208,2.264,2.2482,2.2241,2.2498,2.2305,2.1924,2.1592,2.1692,2.1808,2.1506,2.1939,2.2274,2.1833,2.2062,2.2319,2.2319,2.2037,2.199,2.2444,2.2636,2.2844,2.3058,2.3595,2.3931,2.3797,2.3791,2.3657,2.3282,2.3343,2.3409,2.3409,2.3705,2.4018,2.4242,2.415,2.3649,2.269,2.1952,2.0764,0.0,0.0,0.0,0.0,0.0,0.0,0.0,0.0,0.0,0.0,0.0,0.0,0.0,0.0,0.0,0.0,0.0,0.0,0.0,0.0,0.0,0.0,0.0,0.0,0.0,1.5659,1.6198,1.5898,1.6422,1.6418,1.5427,1.5943,1.6377,1.6432,1.7455,1.83,1.882,1.9996,2.0942,2.1559,2.1073,2.1031,2.1521,2.1031,2.0794,2.0794,2.0794,2.0921,2.1158,2.1158,2.1158,2.1158,2.1158,2.1031,2.0794,2.0794,2.1079,2.1504,2.1285,2.1194,2.1204,2.1455,2.1523,2.1586,2.2076,2.2285,2.2387,2.2716,2.2597,2.241,2.2752,2.3079,2.3389,2.3846,2.3538,2.3129,2.3401,2.3014,2.2449,2.2102,2.2214,2.2309,2.2005,2.2264,2.259,2.2602,2.2711,2.2796,2.2796,2.254,2.254,2.3274,2.3214,2.3312,2.3931,2.4251,2.439,2.4385,2.4584,2.4543,2.4174,2.4347,2.4366,2.4111,2.4337,2.4576,2.4818,2.4484,2.3961,2.322,2.207,2.0979,1.9975,0.0,0.0,0.0,0.0,0.0,0.0,0.0,0.0,0.0,0.0,0.0,0.0,0.0,0.0,0.0,0.0,0.0,0.0,0.0,0.0,0.0,0.0,0.0,1.4586,1.4868,1.528,1.5766,1.6065,1.5717,1.4385,1.602,1.7056,1.674,1.7872,1.9114,2.0382,2.0412,2.0856,2.182,2.1173,2.0794,2.0794,2.0794,2.0794,2.0794,2.0794,2.1158,2.1869,2.1869,2.1869,2.1869,2.1884,2.1489,2.0842,2.0857,2.0842,2.0826,2.0826,2.1268,2.1884,2.1851,2.2295,2.2898,2.2898,2.304,2.3296,2.3971,2.4452,2.49,2.562,2.5483,2.5077,2.5076,2.458,2.4,2.4033,2.4017,2.4,2.4,2.4,2.4,2.4,2.3437,2.3156,2.3868,2.3701,2.3428,2.3444,2.3183,2.3451,2.4872,2.4205,0.0,2.5394,2.5019,2.4759,2.5103,2.5158,2.5278,2.5567,2.5616,2.5324,2.4547,2.5165,2.5246,2.4533,2.4481,2.4125,2.3399,2.2182,2.1541,2.1481,0.0,0.0,0.0,0.0,0.0,0.0,0.0,0.0,0.0,0.0,0.0,0.0,0.0,0.0,0.0,0.0,0.0,0.0,0.0,0.0,0.0,1.4552,1.554,1.5714,1.6646,1.7014,1.6186,1.6585,1.6588,1.5732,1.6153,1.6702,1.7239,1.7644,1.8302,1.9287,2.0013,2.052,2.0808,2.0806,2.0794,2.0794,2.0794,2.0794,2.0794,2.0794,2.0905,2.1094,2.1094,2.1094,2.1126,2.1663,2.1774,2.1632,2.2123,2.2044,2.1584,2.1536,2.1646,2.1883,2.2406,2.274,2.2916,2.3076,2.3149,2.3285,2.3691,2.3912,2.4064,2.4413,2.4431,2.4414,2.4961,2.458,2.4116,2.4663,2.4398,2.4,2.4,2.4,2.4,2.4,2.3835,2.3768,2.3967,2.3918,2.4,2.4543,2.4573,2.4636,2.5045,2.4844,2.4736,2.4982,2.5338,2.5724,2.6218,2.6267,2.6076,2.5635,2.6091,2.5845,2.4578,2.4691,2.4707,2.4513,2.4118,2.3636,2.3062,2.1658,2.0945,0.0,0.0,0.0,0.0,0.0,0.0,0.0,0.0,0.0,0.0,0.0,0.0,0.0,0.0,0.0,0.0,0.0,0.0,0.0,0.0,0.0,0.0,1.5234,1.599,1.6166,1.688,1.7067,1.63,1.6329,1.624,1.5849,1.6037,1.6406,1.693,1.7506,1.8128,1.8725,1.9699,2.0273,2.0393,2.0663,2.0794,2.0794,2.0794,2.0794,2.0794,2.0794,2.0952,2.1252,2.1237,2.1237,2.13,2.2013,2.2171,2.1948,2.2629,2.2677,2.2329,0.0,0.0,0.0,0.0,2.384,2.3933,2.4044,2.419,2.4371,2.455,2.4672,2.4775,2.4894,2.4928,2.5011,2.5441,2.5242,2.5027,2.5458,2.5243,2.4928,2.4928,2.4928,2.4928,2.4928,2.4679,2.4547,2.4862,2.4679,0.0,2.5424,2.506,2.4862,2.5475,2.5292,2.5291,2.5779,2.5943,2.6153,2.6468,2.6482,2.6188,2.5451,2.5779,0.0,0.0,0.0,2.4158,2.3847,2.3522,0.0,0.0,0.0,0.0,0.0,2.2107,0.0,0.0,2.1923,2.1926,0.0,0.0,0.0,0.0,0.0,0.0,0.0,0.0,0.0,0.0,0.0,0.0,0.0,0.0,0.0,0.0,1.6104,1.6301,1.6213,1.6213,1.6168,1.6111,1.5617,1.5298,1.5298,1.5849,1.6226,1.6314,1.7473,1.834,1.8651,1.9464,0.0,0.0,0.0,2.0761,2.0761,2.0761,2.0778,2.0794,2.0778,2.1125,2.1774,2.1709,2.1709,2.1821,2.2582,2.2548,2.2023,2.2801,2.3154,2.3172,2.304,2.309,2.3314,2.4566,2.5162,2.5352,2.5371,0.0,0.0,2.5934,2.6043,2.6202,2.6202,2.6202,2.6202,2.6202,2.6202,2.6202,2.6202,2.6202,2.6202,2.6202,2.6202,2.6202,2.6202,2.569,2.5425,2.607,2.5656,2.5424,2.6086,2.511,2.4696,2.5987,2.5639,2.5706,2.7,2.6601,2.6219,2.6319,2.6318,0.0,2.5176,2.5193,2.4845,2.3934,2.3884,2.3553,2.2808,2.2857,2.2906,2.2906,2.2989,2.3354,2.4033,2.413,2.4319,2.459,2.3086,2.253,0.0,0.0,0.0,0.0,0.0,0.0,0.0,0.0,0.0,0.0,0.0,0.0,0.0,0.0,0.0,1.6343,1.6894,1.6952,1.6301,1.6213,1.6024,1.553,1.537,1.5298,1.5298,1.5849,1.643,1.6982,1.7751,1.8437,1.8976,1.938,1.9621,1.966,2.0204,2.0478,2.0478,2.0478,2.0595,2.0794,2.0579,0.0,2.1,2.1,2.1,2.1079,2.236,2.2656,2.2416,2.3954,2.4687,2.4773,2.3995,2.416,2.4872,2.5125,2.5375,2.5565,2.5733,2.5826,2.5934,2.6096,2.6168,2.6202,2.6202,2.6202,0.0,2.6202,2.6202,2.6202,2.6202,2.6202,2.6202,2.6202,2.6202,2.6202,2.6202,2.6086,2.602,2.6169,2.607,2.602,2.6169,2.5954,2.5871,2.6152,2.607,2.6086,2.6385,2.6285,2.6435,2.7017,2.7083,2.6553,2.5209,2.5639,2.5176,2.3222,2.3106,2.2775,2.2044,2.2576,2.2922,2.2967,2.3566,2.3996,2.4243,2.4457,2.4622,2.4665,2.4345,2.445,0.0,0.0,0.0,0.0,0.0,0.0,0.0,0.0,0.0,0.0,0.0,1.3352,1.4483,0.0,1.5761,1.627,1.6522,1.6521,1.611,1.5873,1.5631,1.5327,1.5298,1.5414,1.5718,1.6327,1.6982,1.7647,1.8303,1.8782,1.9087,1.9347,1.9497,1.9497,2.0085,2.041,2.041,2.041,2.0461,2.0596,2.0461,2.0478,2.0596,2.0745,2.0794,2.0857,2.1916,2.249,2.277,2.4358,2.5025,2.5017,2.4722,2.4955,2.5451,2.5451,2.5584,2.577,2.5879,2.597,2.6078,2.6168,2.6202,2.6202,2.6202,2.6202,2.6202,2.6202,2.6202,2.6202,2.6202,2.6202,2.6202,2.6202,2.6202,2.6202,2.6202,2.6202,2.6202,2.6202,2.6202,2.6203,2.624,2.6258,2.624,2.6203,2.6202,2.6202,2.6202,2.6202,2.6354,2.6756,2.6807,2.6376,2.5329,2.5263,2.478,2.3679,2.3596,2.3445,2.3062,2.3412,2.3628,2.3643,2.401,2.4473,2.5047,2.5248,2.569,2.6347,2.6804,2.6718,0.0,0.0,0.0,0.0,0.0,0.0,0.0,0.0,1.2064,1.3432,1.3698,1.4084,1.5373,1.5634,1.5768,1.6053,1.6017,1.5909,1.5829,1.5525,1.5313,1.5313,1.5313,1.553,1.6139,1.6822,1.749,1.8158,1.8767,1.9101,1.9101,1.931,1.942,1.942,1.9945,2.0239,2.0239,2.0239,2.0256,2.0308,2.0256,2.0256,2.0325,2.0544,2.0645,2.0692,2.1469,2.2352,2.3277,2.4276,2.4771,2.4875,2.5162,2.5451,2.5715,2.5661,2.5789,2.5952,2.5862,2.5989,2.6168,2.6097,2.6132,2.6202,2.6202,2.6202,2.6202,2.6202,2.6202,2.6202,2.6202,2.6202,2.6202,2.6202,2.6202,2.6202,2.6202,2.6203,2.6221,2.6221,2.6239,2.6274,2.6329,2.6347,2.6312,2.6257,2.6257,2.6257,2.6257,2.6257,2.6292,2.6329,2.6347,2.6081,2.5447,2.4709,2.4306,2.4306,2.4306,2.4306,2.4306,2.444,2.4524,2.454,2.4674,2.5187,2.606,2.6251,2.6993,2.8273,2.9036,2.8702,1.0632,1.0274,1.0291,1.174,1.1898,1.2026,0.0,0.0,1.4189,1.4432,1.4444,1.4805,1.6131,1.5719,1.5462,1.6319,1.6227,1.5946,1.5594,1.5447,1.5389,1.5389,1.5343,1.553,1.6139,1.6822,1.749,1.8158,1.8767,1.9101,1.9101,1.9139,1.9124,1.9124,1.9439,1.9588,1.9588,1.9588,1.9747,2.0025,1.9747,1.9747,2.0058,2.0078,2.0093,2.0137,2.1117,2.2601,2.4281,2.3791,2.4173,2.5072,2.5107,2.5546,2.6114,2.5934,2.5989,2.6114,2.5684,2.583,2.6132,2.5703,2.5864,2.6202,2.6202,2.6202,2.6202,2.6202,2.6202,2.6202,2.6202,2.6202,2.6202,2.6202,2.6202,2.6202,2.6202,2.6258,2.6295,2.6295,2.6381,2.6468,2.6485,2.6485,2.6485,2.6468,2.6484,2.6484,2.6484,2.6484,2.6468,2.6485,2.6485,2.6184,2.5464,2.4709,2.4306,2.4306,2.4306,2.4306,2.4306,2.4927,2.5312,2.5361,2.6,2.6572,2.7043,2.7352,2.8079,2.9169,2.9557,2.9641,1.1138,1.1419,0.0,0.0,1.2162,1.2648,1.3211,1.3739,1.4198,1.4533,1.4867,1.5258,1.5865,1.5493,1.5202,0.0,1.5506,1.539,1.5026,1.521,1.5404,1.5404,1.5343,1.5689,1.6692,1.704,1.7621,1.8651,1.8956,1.9101,1.9101,1.9101,1.9101,1.9101,1.9365,1.9497,1.9497,1.9497,1.9566,1.9708,1.9566,1.9566,1.9726,1.9902,2.0185,2.0579,2.1626,2.258,2.3436,2.389,2.44,2.4883,2.5075,2.5586,2.6185,2.6114,2.6132,2.6132,2.5649,2.5811,2.6132,2.5649,2.5811,2.6202,2.6202,2.6202,2.6202,2.6202,2.6202,2.6202,2.6202,2.6202,2.6202,2.6202,2.6202,2.6202,2.6202,2.6241,2.6295,2.6295,2.6416,2.6502,2.6554,2.6571,2.6572,2.6606,2.6537,2.6502,2.6502,2.6502,2.6502,2.6554,2.6589,2.6489,2.6168,2.5882,2.5696,2.5696,2.5696,2.5696,2.5696,2.6,2.6168,2.6202,2.6705,2.7117,2.7491,2.7783,2.8503,2.9611,3.022,3.0763,1.1903,0.0,0.0,1.219,1.2583,1.3134,1.3435,1.391,1.445,1.4995,1.5434,1.574,1.5734,1.5387,1.5022,1.483,1.4996,1.5074,1.483,1.518,1.5521,1.5667,1.5636,1.6025,1.7098,1.704,1.7461,1.8753,1.8854,1.8927,1.9087,1.9101,1.9101,1.9101,1.9291,1.9384,1.9384,1.9384,1.9384,1.9384,1.9384,1.9384,1.9402,1.9636,2.014,2.0865,2.1808,2.2373,2.2649,2.384,2.4395,2.4511,2.4906,2.5384,2.5862,2.6114,2.6202,2.6132,2.5649,2.5721,2.5919,2.5481,2.5647,2.6008,2.6008,2.6114,2.6202,2.6202,2.6202,2.6202,2.6202,2.6202,2.6202,2.6202,2.6202,2.6203,2.6221,2.6277,2.6365,2.6382,2.6486,2.6572,2.6623,2.664,2.664,2.6691,2.6623,2.6555,2.6555,2.6555,2.6572,2.6623,2.6674,2.6691,2.6691,2.6691,2.6691,2.6691,2.6691,2.6691,2.6691,2.6691,2.6691,2.6691,2.694,2.7258,2.7701,2.8127,2.8935,3.0147,3.0962,3.1763,0.0,0.0,1.1839,1.3512,1.3549,1.3467,1.4496,1.5174,1.5699,1.6238,1.6349,1.6297,1.6049,1.55,1.5022,1.483,1.5073,1.5285,1.527,1.5463,1.5802,1.6405,1.64,1.66,0.0,1.6619,1.6793,1.8129,1.823,1.8491,1.9072,1.9101,1.9101,1.9101,1.9101,1.912,1.912,1.912,1.912,1.912,1.912,1.912,1.912,1.912,1.9677,2.0635,2.1272,2.1902,2.2566,2.3319,2.3745,2.3985,2.4511,2.4808,2.504,2.5881,2.6202,2.6132,2.5649,2.5503,2.5446,2.5059,2.5179,2.5521,2.5521,2.583,2.6202,2.6202,2.6202,2.6202,2.6202,2.6202,2.6202,2.6202,2.6202,2.6221,2.6278,2.6416,2.6502,2.6589,2.6657,2.6691,2.6691,2.6691,2.6691,2.6691,2.6691,2.6691,2.6691,2.6691,2.6691,2.6691,2.6691,2.6691,2.6691,2.6691,2.6691,2.6691,2.6691,2.6691,2.6691,2.6691,2.6691,2.6691,2.6708,2.7036,2.7701,2.8486,2.9606,3.098,3.1781,3.2596,0.0,0.0,1.2644,1.3396,1.3742,1.406,1.4835,1.5376,1.5764,1.5908,1.6231,1.6374,1.6058,1.6052,1.5851,1.5122,1.5689,1.5932,1.5083,1.5329,1.5847,1.6483,1.6462,0.0,0.0,0.0,0.0,1.8143,1.8201,1.8462,1.9072,1.9101,1.9101,1.9101,1.9101,1.9101,1.9101,1.9101,1.9101,1.9101,1.9101,1.9101,1.9101,1.9101,1.954,2.0299,2.1134,2.18,2.2369,2.3334,2.3846,2.4063,2.4333,2.4784,2.5294,2.5326,2.5698,2.6132,2.5649,2.5503,2.5427,2.504,2.516,2.5503,2.5503,2.583,2.6202,2.6202,2.5972,2.5811,2.6132,2.5972,2.583,2.6188,2.6259,2.6294,2.6416,2.6503,2.6555,2.6606,2.6657,2.6691,2.6691,2.6691,2.6691,2.6691,2.6691,2.6691,2.6691,2.6691,2.6691,2.6691,2.6691,2.6691,2.6691,2.6691,2.6691,2.6691,2.6691,2.6691,2.6691,2.6691,2.6691,2.6691,2.7132,2.7735,2.8504,2.9162,3.0282,3.1799,3.2071,3.2632,1.2621,1.2871,1.3218,1.3647,1.4162,1.4708,1.5254,1.5792,1.6128,1.6042,1.6447,1.6612,1.5987,1.6432,1.6472,1.5142,1.5844,1.6149,1.4971,1.5208,1.5772,1.6514,1.6416,1.6321,0.0,0.0,0.0,1.7458,1.7722,1.8129,1.8738,1.8985,1.9101,1.9101,1.9101,1.9101,1.9101,1.9101,1.9101,1.9101,1.9101,1.9101,1.9101,1.9101,1.9352,1.9875,2.1065,2.1702,2.2018,2.3329,2.3882,2.3909,2.4198,2.4517,2.4831,2.4883,2.5153,2.5511,2.55,2.5503,2.5465,2.5198,2.5179,2.5294,2.5294,2.5591,2.5954,2.5954,2.5848,2.5811,2.6132,2.5972,2.5848,2.6188,2.6278,2.6347,2.6468,2.6554,2.6606,2.6623,2.6674,2.6691,2.6691,2.6691,2.6691,2.6691,2.6691,2.6691,2.6691,2.6691,2.6691,2.6691,2.6691,2.6691,2.6691,2.6691,2.6691,2.6691,2.6691,2.6691,2.6691,2.6691,2.6691,2.6691,2.7243,2.7982,2.889,2.9672,3.078,3.2198,3.2488,3.2904,1.3471,1.3484,1.3483,1.4217,1.4801,1.5331,1.5761,1.6335,1.6727,1.6591,1.699,1.7008,0.0,0.0,1.6927,1.4981,1.5633,1.6003,1.4982,1.5117,1.5608,0.0,0.0,0.0,0.0,0.0,0.0,1.6284,1.688,1.7548,1.8216,1.8796,1.9101,1.9101,1.9101,1.9101,1.9101,1.9101,1.9101,1.9101,1.9101,1.9101,1.9101,1.9101,1.9157,1.9394,2.0984,2.156,2.1512,2.3248,2.379,2.3553,2.4051,2.4009,2.3745,2.4563,2.4639,2.4431,2.5198,2.5465,2.5484,2.5503,2.5237,2.4922,2.4902,2.5179,2.5503,2.5503,2.5811,2.615,2.6202,2.6168,2.6168,2.6203,2.6276,2.6347,2.6485,2.6571,2.6623,2.6691,2.6691,2.6691,2.6691,2.6691,2.6691,2.6691,2.6691,2.6691,2.6691,2.6691,2.6691,2.6691,2.6691,2.6691,2.6691,2.6691,2.6691,2.6691,2.6691,2.6691,2.6691,2.6691,2.6691,2.6691,2.7021,2.7783,2.8958,3.0,3.1113,3.227,3.3049,3.3393,1.2926,1.3242,1.3601,1.4233,1.4801,1.524,1.5355,1.5852,1.6248,1.611,1.6477,1.6566,0.0,0.0,0.0,1.5987,1.6433,0.0,1.5681,1.5405,0.0,1.5947,0.0,1.6805,1.6907,1.7244,0.0,1.7096,1.7629,1.8216,1.884,1.9029,1.9101,1.9101,1.9101,1.9101,1.9101,1.9101,1.9101,1.9101,1.9101,1.9101,1.9101,1.9101,1.912,1.923,2.0591,2.1208,2.1366,2.2873,2.3487,2.3531,2.3696,2.3909,2.4156,2.4369,2.4594,2.4779,2.4981,2.5044,2.5102,2.5408,2.5427,2.5294,2.5001,2.5179,2.5503,2.5503,2.5368,2.5381,2.6025,2.5954,2.5777,2.6171,2.6347,2.6468,2.6571,2.6623,2.6691,2.6691,2.6691,2.6691,2.6691,2.6691,2.6691,2.6691,2.6691,2.6691,2.6691,2.6691,2.6691,2.6691,2.6691,2.6691,2.6691,2.6691,2.6691,2.6691,2.6691,2.6691,2.6691,2.6691,2.6691,2.6691,2.7021,2.806,2.98,3.0267,3.1401,3.3103,3.3302,3.3393,1.3192,1.3621,1.4082,1.4333,1.4801,1.5199,1.5199,1.5825,1.6229,1.5667,1.6296,0.0,0.0,0.0,0.0,0.0,0.0,0.0,1.5447,1.5208,1.5202,0.0,1.5982,0.0,1.6591,1.7107,1.7466,1.7534,1.7948,1.8361,1.8695,1.8956,1.9101,1.9101,1.9101,1.9101,1.9101,1.9101,1.9101,1.9101,1.9101,1.9101,1.9101,1.9101,1.912,1.9268,2.0591,2.1243,2.1447,2.2859,2.3494,2.356,2.3588,2.376,2.3994,2.3994,2.4126,2.4359,2.4558,2.4639,2.4739,2.5313,2.5503,2.5465,2.5237,2.5313,2.5503,2.5503,2.5481,2.5586,2.6078,2.6008,2.5803,2.5774,2.6148,2.6419,2.6135,2.6151,2.6116,2.5811,2.5998,2.6218,2.6218,2.6488,2.6691,2.6691,2.6691,2.6691,2.6691,2.6691,2.6691,2.6691,2.6691,2.6691,2.6691,2.6691,2.6691,2.6691,2.6691,2.6691,2.6691,2.6691,2.6691,2.6691,2.7507,2.8652,3.0099,3.088,3.1985,3.3393,3.3393,3.3408,1.3654,1.41,1.4495,1.4322,1.4692,1.5063,1.4982,1.5789,1.6273,1.5204,0.0,1.6573,1.4968,1.5891,1.654,1.5478,0.0,1.5385,1.5101,1.4993,1.5002,1.5149,1.5281,1.5526,1.5995,1.6697,1.7305,1.7762,1.8011,1.8176,1.8317,1.8825,1.9101,1.9101,1.9101,1.9101,1.9101,1.9101,1.9101,1.9101,1.9101,1.9101,1.9101,1.9101,1.9157,1.9361,2.0676,2.1331,2.1589,2.2918,2.3498,2.3595,2.3659,2.3638,2.3616,2.3724,2.3702,2.3659,2.4135,2.4302,2.4431,2.5237,2.5503,2.5503,2.5503,2.5503,2.5503,2.5503,2.5728,2.5983,2.6053,2.597,2.5739,2.511,2.5579,2.6016,2.538,2.536,2.527,2.4626,2.5017,2.549,2.5576,2.6133,2.659,2.6691,2.6691,2.6691,2.6691,2.6691,2.6691,2.6691,2.6691,2.6691,2.6691,2.6691,2.6691,2.6691,2.6691,2.6691,2.6691,2.6691,2.6775,2.6911,2.8181,2.9312,3.0319,3.1562,3.2582,3.3408,3.3422,3.3452,1.3053,1.3385,1.3705,1.3659,1.4063,1.4327,1.3839,1.459,0.0,0.0,0.0,1.5007,1.4211,1.5269,1.6277,1.6397,0.0,0.0,0.0,0.0,1.5338,0.0,0.0,0.0,0.0,0.0,0.0,1.8238,1.7968,1.8135,1.8894,1.9043,1.9101,1.9101,1.9101,1.9101,1.9101,1.9101,1.9101,1.9101,1.9101,1.9101,1.9101,1.9101,1.9157,1.9346,2.0094,2.0823,2.1559,2.2358,2.3046,2.3653,2.4015,2.3931,2.3681,2.442,2.4214,2.3659,2.4135,2.4302,2.4431,2.5237,2.5503,2.5503,2.5503,2.5503,2.5503,2.5503,2.5153,2.4873,2.5206,2.4845,2.4348,2.4216,2.4413,2.456,2.4443,2.4553,2.466,2.4525,2.4609,2.488,2.549,2.571,2.5998,2.6607,2.6691,2.6691,2.6691,2.6691,2.6691,2.6691,2.6691,2.6691,2.6691,2.6691,2.6691,2.6691,2.6691,2.6691,2.6691,2.6691,2.713,2.8093,2.8362,2.9464,3.1426,3.1718,3.2429,3.3495,3.3534,3.3577,1.3149,1.3585,1.3929,1.374,1.4017,1.417,1.3712,0.0,0.0,0.0,0.0,1.4879,1.4012,0.0,0.0,0.0,0.0,0.0,0.0,0.0,0.0,0.0,0.0,0.0,0.0,1.6565,1.717,1.7655,1.7615,1.7887,1.8593,1.8637,1.8782,1.9087,1.9101,1.9101,1.9101,1.9101,1.9101,1.9101,1.9101,1.9101,1.9101,1.9101,1.9139,1.9238,1.9976,2.0735,2.1504,2.2295,2.2999,2.3653,2.4114,2.4156,2.4036,2.4664,2.4502,2.3994,2.4219,2.4302,2.4405,2.5001,2.5332,2.5503,2.5503,2.5407,2.5291,2.5291,2.4767,2.4278,2.448,2.4265,2.3917,2.3551,2.361,2.3734,2.378,2.3857,2.3799,2.3427,2.3678,2.4051,2.4391,2.5101,2.5711,2.6065,2.6454,2.6691,2.6691,2.6691,2.6691,2.6691,2.6691,2.6691,2.6691,2.6691,2.6691,2.6691,2.6691,2.6691,2.6691,2.6758,2.7127,2.7809,2.886,2.9991,3.1174,3.2227,3.302,3.3549,3.3591,3.3633,1.3402,1.385,1.4126,1.3853,1.3918,1.3953,1.3674,1.4125,0.0,0.0,1.4511,1.4859,1.3975,0.0,0.0,0.0,0.0,0.0,0.0,0.0,0.0,0.0,0.0,0.0,0.0,1.6094,0.0,1.6886,1.7144,1.7487,1.7954,1.8129,1.8419,1.8898,1.9029,1.9101,1.9101,1.9101,1.9101,1.9139,1.9139,1.9139,1.9157,1.9157,1.9213,1.9339,1.9963,2.0665,2.1421,2.2168,2.2894,2.3592,2.4095,2.4343,2.4472,2.4784,2.4699,2.4426,2.4426,2.4385,2.4364,2.4779,2.516,2.5521,2.5612,2.5392,2.511,2.511,2.4464,2.3768,2.3768,2.3653,2.3387,2.2898,2.2902,2.3053,2.3141,2.3156,2.2987,2.2398,2.2784,2.3207,2.3376,2.4357,2.5186,2.5338,2.5981,2.6454,2.6454,2.659,2.6691,2.6691,2.6691,2.6691,2.6691,2.6691,2.6691,2.6691,2.6691,2.6691,2.6691,2.6842,2.7208,2.7914,2.9457,3.0633,3.1317,3.2851,3.3619,3.3615,3.3647,3.3671,1.3482,1.3491,1.3471,1.344,1.3273,1.3105,1.2996,0.0,0.0,1.356,1.3752,1.3922,1.3817,0.0,0.0,0.0,0.0,0.0,0.0,0.0,0.0,0.0,0.0,0.0,0.0,1.5551,1.597,1.6584,1.6613,1.6796,1.7258,1.7882,1.823,1.8288,1.8811,1.9101,1.9101,1.9101,1.9157,1.9284,1.9284,1.9321,1.9376,1.9376,1.9599,2.001,1.9765,2.0264,2.125,2.1622,2.2405,2.3389,2.4056,2.4513,2.4843,2.4883,2.4863,2.4843,2.4843,2.4614,2.4364,2.4779,2.516,2.5594,2.6008,2.5655,2.511,2.511,2.41,2.299,2.299,2.2493,2.2008,2.2072,2.2113,2.2173,2.2352,2.2398,2.2381,2.2313,2.2347,2.2615,2.3274,2.3511,2.3831,2.4508,2.522,2.5694,2.5694,2.6285,2.6691,2.6691,2.6691,2.6691,2.6691,2.6691,2.6691,2.6691,2.6691,2.6691,2.6691,2.6842,2.7853,2.9896,3.0117,3.1249,3.3326,3.35,3.3633,3.3684,3.3753,3.3793,1.3435,1.3661,1.3837,1.3677,1.3287,1.2946,1.3017,0.0,1.3119,1.3382,1.3641,1.3804,1.3804,1.4049,0.0,0.0,0.0,0.0,0.0,0.0,0.0,0.0,0.0,0.0,0.0,0.0,1.5571,1.5965,1.635,1.6628,1.6767,1.7328,1.8025,1.8834,1.9022,1.9101,1.9101,1.9101,1.9157,1.9302,1.9302,1.9339,1.9395,1.9395,1.9505,1.969,1.9848,2.0231,2.0843,2.1652,2.2515,2.3396,2.4298,2.4902,2.531,2.557,2.5497,2.5256,2.5256,2.5157,2.5059,2.5198,2.5554,2.5901,2.5811,2.515,2.4448,2.4448,2.3371,2.2243,2.2243,2.2058,2.1868,2.1984,2.2058,2.2152,2.2265,2.2296,2.2296,2.2296,2.2296,2.2381,2.2699,2.3105,2.3509,2.3797,2.4474,2.5101,2.5541,2.5456,2.5726,2.6623,2.6691,2.6691,2.6691,2.6691,2.6691,2.6691,2.6691,2.6894,2.7334,2.7705,2.8627,3.0108,3.0927,3.1856,3.288,3.3368,3.3629,3.3698,3.3726,3.3766,1.3352,1.3742,1.4154,1.3924,1.3415,1.3009,0.0,0.0,1.2792,1.3149,1.3472,1.3721,1.3788,1.4118,1.4546,0.0,0.0,0.0,0.0,0.0,0.0,0.0,0.0,1.446,1.4634,1.5042,1.5404,1.5639,1.6099,1.6516,1.684,1.72,1.7898,1.9034,1.9144,1.9176,1.9176,1.9176,1.9265,1.9395,1.9395,1.9413,1.9487,1.9468,1.9596,1.9833,2.0028,2.0342,2.0798,2.1689,2.2574,2.3418,2.402,2.4846,2.5705,2.5689,2.5702,2.5703,2.5703,2.5612,2.5521,2.5649,2.5846,2.5923,2.5513,2.4721,2.4,2.4,2.294,2.1812,2.1812,2.184,2.1899,2.1984,2.2075,2.2166,2.2282,2.2296,2.2296,2.2296,2.2296,2.2296,2.2296,2.2733,2.3071,2.3071,2.3712,2.4372,2.4881,2.4694,2.4897,2.5946,2.6065,2.6234,2.6657,2.6488,2.6471,2.6691,2.6691,2.7029,2.7773,2.8407,2.9286,3.0459,3.14,3.2173,3.278,3.3332,3.3629,3.3698,3.3726,3.3753,1.324,1.3584,1.417,1.4032,1.3589,1.3148,0.0,1.2803,1.2715,1.2785,1.3134,1.3489,1.3754,1.3788,1.3971,0.0,0.0,0.0,0.0,0.0,0.0,0.0,0.0,1.4519,1.4322,1.492,1.5433,1.577,1.5799,1.6368,1.7624,1.7633,1.788,1.849,1.9089,1.9395,1.9395,1.9395,1.9465,1.9593,1.9593,1.9632,1.969,1.9629,2.0028,2.0761,2.0291,2.0545,2.131,2.159,2.241,2.3447,2.2923,2.4144,2.6067,2.4937,2.5222,2.6185,2.6185,2.5883,2.5594,2.6043,2.5883,2.5464,2.5187,2.4597,2.4,2.4,2.294,2.1812,2.1812,2.1812,2.1825,2.1969,2.2013,2.2073,2.2251,2.2296,2.2296,2.2296,2.2296,2.2296,2.2296,2.2296,2.2313,2.2313,2.2936,2.341,2.341,2.4051,2.4508,2.4508,2.4508,2.5117,2.6573,2.6031,2.593,2.664,2.6691,2.7029,2.7773,2.8641,2.9817,3.1345,3.1336,3.2089,3.3698,3.3629,3.3629,3.3698,3.3766,3.3807,1.3262,1.3289,1.3433,1.3399,1.2939,1.2581,1.2844,1.2614,1.2454,1.2805,1.3138,1.3425,1.3522,1.3674,1.4118,1.5055,0.0,0.0,0.0,0.0,0.0,0.0,1.5451,1.5197,0.0,1.5374,1.5682,1.5784,1.6189,1.6802,1.7637,1.8115,1.8616,1.923,1.9346,1.9395,1.9395,1.9395,1.9483,1.9593,1.9593,1.9647,1.9708,1.9925,2.0154,2.0412,2.0778,2.0926,2.1006,2.1791,2.2358,2.2767,2.3081,2.3792,2.4646,2.428,2.471,2.5458,2.5458,2.5684,2.599,2.615,2.6097,2.5959,2.5869,2.4977,2.3801,2.2852,2.2235,2.1884,2.1926,2.1926,2.1972,2.2106,2.2137,2.2166,2.2282,2.2296,2.2296,2.2296,2.2296,2.2296,2.2296,2.2296,2.2296,2.2296,2.2499,2.2835,2.3325,2.3156,2.3376,2.4389,2.4051,2.4135,2.5117,2.5439,2.571,2.593,2.6877,2.7807,2.8586,2.9624,3.0768,3.198,3.2312,3.2816,3.3563,3.3534,3.3591,3.3698,3.378,3.3807,0.0,1.3015,1.316,1.3022,1.2621,1.236,1.2706,1.254,1.2423,1.28,1.3138,1.3408,1.3408,1.3624,1.404,1.4747,0.0,0.0,0.0,0.0,0.0,0.0,0.0,0.0,1.5585,1.561,1.5653,1.5784,1.6368,1.6995,1.7652,1.8326,1.8999,1.9617,1.956,1.9523,1.9523,1.9523,1.956,1.9632,1.9632,1.9669,1.9708,2.0015,2.0258,2.0462,2.0991,2.1214,0.0,2.1858,2.2296,2.2605,2.2737,2.3293,2.3967,2.3686,2.405,2.4729,2.5011,2.5408,2.5772,2.5772,2.5407,2.4944,2.4944,2.4514,2.3702,2.23,2.1913,2.1928,2.1984,2.2013,2.2027,2.2168,2.22,2.2228,2.2282,2.2296,2.2296,2.2296,2.2296,2.2296,2.2296,2.2296,2.2296,2.2296,2.2296,2.2465,2.2936,2.2581,2.2649,2.3577,2.3257,2.3173,2.363,2.4594,2.5423,2.5981,2.7131,2.828,2.9364,3.0502,3.1463,3.2317,3.2716,3.3114,3.3509,3.352,3.3619,3.3739,3.378,3.3807,0.0,1.268,1.3069,1.2733,1.2507,1.2396,1.2543,1.2543,0.0,1.2803,1.3116,1.3374,1.3408,1.3607,1.3801,1.3857,0.0,0.0,0.0,0.0,0.0,0.0,1.5737,0.0,1.5997,1.5603,1.5463,1.5784,1.6323,1.6936,1.7578,1.8252,1.8942,1.9618,1.9678,1.9708,1.9708,1.9708,1.9708,1.9708,1.9708,1.9711,1.9729,2.0013,2.0376,2.0811,2.1039,2.1368,2.1783,2.1797,2.2195,2.2742,2.2077,2.2626,2.3768,2.3073,2.3288,2.4017,2.4713,2.4978,2.5027,2.5027,2.41,2.2957,2.2923,2.3354,2.3586,2.2333,2.1947,2.1943,2.2065,2.2046,2.2058,2.2183,2.2214,2.2211,2.2282,2.2296,2.2296,2.2296,2.2296,2.2296,2.2296,2.2296,2.2296,2.2296,2.2296,2.2296,2.2296,2.2296,2.2296,2.2296,2.2296,2.2313,2.2364,2.363,2.5032,2.6454,2.7334,2.8466,2.9954,3.1096,3.1932,3.2385,3.2699,3.3081,3.3509,3.3577,3.3671,3.3807,3.3807,3.3807,1.1372,0.0,1.1607,1.1202,1.1567,1.207,0.0,1.2516,1.2838,0.0,0.0,0.0,0.0,0.0,0.0,0.0,0.0,0.0,0.0,0.0,0.0,1.6182,1.5974,1.5772,1.5515,1.561,1.5726,1.5784,1.5919,1.6278,1.689,1.7563,1.8237,1.8912,1.942,1.9708,1.9708,1.9708,1.9708,1.9708,1.9708,1.9836,2.0102,2.0478,2.0712,2.0827,2.1385,2.1555,2.1433,2.1676,2.1912,2.2044,2.1879,2.2011,2.2294,2.2112,2.2542,2.3172,2.3354,2.3785,2.4265,2.4265,2.4017,2.3652,2.3134,2.267,2.2391,2.2666,2.236,2.2132,2.2824,2.2615,2.2237,2.2268,2.2268,2.2282,2.2296,2.2296,2.2296,2.2296,2.2296,2.2296,2.2296,2.2296,2.2296,2.2296,2.2296,2.2296,2.2296,2.2296,2.2296,2.2296,2.2296,2.253,2.3088,2.346,2.4051,2.4965,2.6776,2.8229,2.923,3.0841,3.1896,3.2317,3.3032,3.3473,3.3577,3.3698,3.378,3.3807,3.3807,3.3807,1.0237,1.0882,1.1503,1.1259,1.1542,1.196,1.2188,0.0,0.0,0.0,0.0,0.0,0.0,0.0,0.0,0.0,0.0,0.0,0.0,0.0,0.0,1.6125,1.5974,1.5778,1.5551,1.5682,1.5799,1.5799,1.6069,1.6368,1.6681,1.7339,1.8012,1.8687,1.9046,1.9393,1.9708,1.9708,1.9708,1.9708,1.9708,1.9889,2.0208,2.0629,2.0876,2.1055,2.157,2.1708,2.1541,2.1738,2.1812,2.1812,2.1812,2.1812,2.1812,2.1812,2.2061,2.2427,2.2775,2.3156,2.3503,2.3503,2.3272,2.2923,2.2571,2.2171,2.1969,2.249,2.2365,2.2204,2.2697,2.2572,2.2296,2.2296,2.2296,2.2296,2.2296,2.2296,2.2296,2.2296,2.2296,2.2296,2.2296,2.2296,2.2296,2.2296,2.2296,2.2296,2.2296,2.2296,2.2431,2.2784,2.2801,2.3241,2.4323,2.4086,2.4372,2.5439,2.679,2.8015,2.9141,3.0456,3.1329,3.1727,3.2586,3.3026,3.31,3.3529,3.378,3.3807,3.3807,3.3807,0.9392,1.0627,1.1874,1.16,1.1745,1.2001,1.2173,0.0,0.0,0.0,0.0,0.0,0.0,0.0,0.0,0.0,0.0,0.0,1.5739,1.6053,1.6155,1.6053,1.5758,1.56,1.5713,1.577,1.5799,1.5799,1.6263,1.6562,1.6562,1.7189,1.7818,1.8371,1.8597,1.8972,1.9543,1.9648,1.9708,1.9708,1.9708,1.9889,2.0208,2.0629,2.0958,2.1246,2.1631,2.1783,2.1738,2.1766,2.1812,2.1812,2.1812,2.1812,2.1812,2.1812,2.1812,2.1895,2.251,2.2725,2.2725,2.2725,2.231,2.1812,2.1796,2.1855,2.1943,2.214,2.22,2.2231,2.242,2.2381,2.2296,2.2296,2.2296,2.2296,2.2296,2.2296,2.2296,2.2296,2.2296,2.2296,2.2296,2.2296,2.2296,2.2296,2.2296,2.2296,2.2296,2.2398,2.2716,2.3325,2.3596,2.4239,2.5491,2.5033,2.5252,2.6607,2.7021,2.7901,2.9504,3.0161,3.0693,3.1084,3.1779,3.2192,3.2313,3.3016,3.3428,3.3623,3.3623,3.3678,1.0345,1.1136,1.1437,1.0107,1.1012,1.2161,0.0,0.0,0.0,0.0,0.0,0.0,0.0,0.0,0.0,0.0,0.0,1.466,0.0,0.0,1.5293,1.5274,1.5297,1.5356,1.5374,1.5624,1.5799,1.5799,1.5889,1.5934,1.5934,1.6518,1.689,1.701,1.8117,1.8747,1.8852,1.9423,1.9708,1.9708,1.9708,1.9889,2.0208,2.0629,2.0827,2.0909,2.1525,2.1648,2.1402,2.1693,2.1812,2.1812,2.1812,2.1812,2.1812,2.1812,2.1812,2.1829,2.1928,2.1978,2.1978,2.1978,2.1895,2.1796,2.1869,2.1899,2.1943,2.214,2.22,2.2348,2.2969,2.2726,2.2296,2.2296,2.2296,2.2296,2.2296,2.2296,2.2296,2.2296,2.2296,2.2296,2.2296,2.2296,2.2296,2.2296,2.2296,2.2296,2.2296,2.2852,2.3274,2.3376,2.4526,2.5355,2.5576,2.5507,2.5795,2.664,2.7021,2.8141,3.0247,3.0439,3.0693,3.1084,3.1273,3.1412,3.1485,3.1677,3.2106,3.2784,3.2784,3.3146,1.0112,1.091,1.1347,1.005,1.1192,1.2573,0.0,0.0,0.0,0.0,0.0,0.0,0.0,0.0,0.0,0.0,0.0,1.4633,1.4699,1.4917,1.5073,1.5006,1.517,1.5374,1.5551,1.5712,1.5799,1.5799,1.5799,1.5799,1.5799,1.6069,1.6368,1.6681,1.7294,1.7788,1.8147,1.8646,1.9246,1.9962,2.0204,2.0478,2.0795,2.099,2.1183,2.1355,2.1661,2.1706,2.1587,2.1753,2.1812,2.1812,2.1812,2.1812,2.1812,2.1812,2.1812,2.1812,2.1812,2.1812,2.1812,2.184,2.1855,2.1869,2.1926,2.1986,2.208,2.2168,2.22,2.2298,2.2661,2.2535,2.2296,2.2296,2.2296,2.2296,2.2296,2.2296,2.2296,2.2296,2.2296,2.2296,2.2296,2.2296,2.2296,2.2296,2.2634,2.2885,2.2885,2.3528,2.4152,2.456,2.5558,2.637,2.6742,2.6793,2.6739,2.6657,2.7157,2.8076,2.9426,2.9512,2.9633,2.9859,3.0354,3.063,3.0711,3.117,3.1806,3.2601,3.2601,3.3036,1.0003,1.0751,1.1307,1.0494,0.0,1.2862,1.2716,0.0,0.0,0.0,0.0,0.0,0.0,0.0,0.0,0.0,1.4765,1.4614,1.4744,1.4938,1.5045,1.4963,1.5165,1.5463,1.5784,1.5813,1.5799,1.5799,1.5799,1.5799,1.5799,1.5799,1.6009,1.6458,1.6637,1.695,1.7458,1.8021,1.8794,1.973,2.011,2.0432,2.0684,2.0923,2.1173,2.1429,2.1685,2.1812,2.1812,2.1812,2.1812,2.1812,2.1812,2.1812,2.1812,2.1812,2.1812,2.1812,2.1811,2.1825,2.1825,2.1913,2.1926,2.1926,2.1984,2.2075,2.2168,2.2183,2.22,2.2228,2.2282,2.2296,2.2296,2.2296,2.2296,2.2296,2.2296,2.2296,2.2296,2.2296,2.2296,2.2296,2.2296,2.2296,2.2347,2.2533,2.3038,2.346,2.3644,2.4305,2.5033,2.5778,2.6691,2.7537,2.828,2.8179,2.7895,2.7423,2.7751,2.8124,2.8479,2.8632,2.8731,2.8822,2.9466,2.9838,2.9922,3.054,3.1347,3.232,3.232,3.2852,1.0831,1.116,1.1213,1.1135,0.0,0.0,1.219,0.0,0.0,0.0,0.0,0.0,0.0,0.0,0.0,1.5931,1.5249,1.4538,1.4602,1.4838,1.5025,1.5074,1.527,1.5522,1.5871,1.5827,1.5799,1.5799,1.5799,1.5799,1.5799,1.5799,1.5829,1.5858,1.6413,1.6711,1.6771,1.8021,1.8561,1.8345,1.8624,1.876,1.8837,1.9819,2.029,2.0383,2.1381,2.1812,2.1812,2.1812,2.1812,2.1812,2.1812,2.1812,2.1812,2.1812,2.1812,2.1796,2.1869,2.1882,2.1897,2.1969,2.1982,2.1982,2.2013,2.2013,2.2044,2.2168,2.22,2.2228,2.2282,2.2296,2.2296,2.2296,2.2296,2.2296,2.2296,2.2296,2.2296,2.2296,2.2296,2.2296,2.2296,2.2296,2.2533,2.3224,2.3359,2.3661,2.4321,2.505,2.5812,2.6539,2.796,2.9127,2.9869,2.9313,2.9144,2.9723,2.9105,2.8567,2.8233,2.8538,2.8755,2.8893,2.896,2.9032,2.9097,2.9133,2.9959,3.1488,3.1488,3.232,1.047,1.116,1.1526,1.0821,0.0,0.0,0.0,0.0,0.0,0.0,0.0,0.0,0.0,0.0,1.4615,1.5586,1.5217,1.483,1.4891,1.5134,1.5329,1.5404,1.558,1.5755,1.59,1.5827,1.5799,1.5799,1.5799,1.5799,1.5799,1.5799,1.5799,1.5799,1.6168,1.6391,1.6391,1.7214,1.7588,1.7482,1.8665,1.9211,1.9242,1.9645,1.9832,1.9881,2.0744,2.1116,2.1149,2.1613,2.1812,2.1812,2.1812,2.1812,2.1812,2.1812,2.1812,2.1796,2.1884,2.1913,2.1928,2.2077,2.212,2.212,2.2178,2.2192,2.2192,2.2254,2.2254,2.2268,2.2296,2.2296,2.2296,2.2296,2.2296,2.2296,2.2296,2.2296,2.2296,2.2296,2.2296,2.2296,2.2296,2.2682,2.3071,2.3359,2.4188,2.4864,2.5152,2.5828,2.6387,2.6657,2.7419,2.8374,2.9607,2.9213,2.8995,2.9297,2.9,2.9151,2.9958,2.9208,2.9028,2.9631,2.9197,2.8964,2.9005,2.95,3.032,3.1415,3.1916,3.2742,1.0324,1.1005,1.1441,0.0,0.0,0.0,0.0,0.0,0.0,0.0,0.0,0.0,0.0,0.0,0.0,0.0,1.5461,1.524,1.5344,1.5566,1.5711,1.5711,1.5855,1.5956,1.5956,1.5885,1.5827,1.5827,1.5813,1.5799,1.5799,1.5799,1.5799,1.5799,1.6066,1.6203,1.6203,1.6722,1.7005,1.7022,1.8325,1.8936,1.8936,1.9167,1.9253,1.9287,2.0042,2.034,2.0406,2.1149,2.1597,2.1812,2.1812,2.1812,2.1812,2.1812,2.1812,2.1796,2.1884,2.1911,2.1957,2.2137,2.2197,2.2225,2.2282,2.2296,2.2296,2.2296,2.2296,2.2296,2.2296,2.2296,2.2296,2.2296,2.2296,2.2296,2.2296,2.2296,2.2296,2.2296,2.2296,2.2296,2.2296,2.2919,2.3477,2.3712,2.4797,2.5677,2.593,2.6387,2.6793,2.7029,2.7553,2.8317,2.9386,2.9528,2.9519,2.94,2.941,2.9661,3.0188,2.9325,2.9125,2.9746,2.9269,2.9005,2.9005,2.9812,3.0613,3.1415,3.2228,3.3036,1.0595,1.0693,0.0,0.0,0.0,0.0,0.0,0.0,0.0,0.0,0.0,0.0,0.0,0.0,0.0,1.6425,1.6099,1.5754,1.587,1.6069,1.6125,1.5928,1.6026,1.6095,1.6095,1.5984,1.59,1.59,1.5827,1.5799,1.5799,1.5799,1.5799,1.5799,1.6066,1.6203,1.6203,1.6722,1.7005,1.7005,1.7338,1.7503,1.7519,1.8203,1.8489,1.8538,1.927,1.9584,1.9647,2.039,2.1133,2.1796,2.1812,2.1812,2.1812,2.1812,2.1812,2.1796,2.1884,2.194,2.2013,2.2168,2.2257,2.2296,2.2296,2.2296,2.2296,2.2296,2.2296,2.2296,2.231,2.2296,2.2296,2.2296,2.2296,2.2296,2.231,2.2296,2.2296,2.231,2.2296,2.2296,2.2296,2.2919,2.3646,2.4389,2.5118,2.5879,2.6607,2.6691,2.6979,2.7705,2.875,2.9386,2.9386,3.0485,3.0967,3.0523,3.061,2.9974,2.8401,2.87,2.8929,2.9023,2.9005,2.9005,2.9005,2.9824,3.0613,3.1433,3.2247,3.3041,1.0547,1.1016,0.0,0.0,0.0,0.0,0.0,0.0,0.0,0.0,0.0,0.0,0.0,0.0,0.0,1.6471,1.6291,1.6067,1.6111,1.6166,1.618,1.6111,1.6095,1.6095,1.6095,1.6025,1.5969,1.5969,1.5955,1.5912,1.587,1.5871,1.5842,1.5799,1.6066,1.6285,1.6474,1.6828,1.7121,1.735,1.7451,1.7503,1.7515,1.7718,1.7789,1.7851,1.8522,1.8823,1.8919,2.0174,2.0834,2.1083,2.1597,2.1812,2.1812,2.1812,2.1812,2.1796,2.1884,2.194,2.2013,2.2168,2.2257,2.2296,2.2296,2.2296,2.2296,2.2296,2.2296,2.2352,2.2542,2.2432,2.2296,2.2296,2.2296,2.2352,2.2542,2.2432,2.2366,2.2538,2.2432,2.2296,2.2296,2.2919,2.3646,2.4389,2.5118,2.5879,2.6607,2.6691,2.6776,2.6996,2.773,2.8427,2.9,2.9279,2.9625,3.0053,2.9673,2.9719,3.0316,2.9418,2.9203,2.9831,2.9299,2.928,2.9861,3.065,3.1458,3.2265,3.3073,3.3568,1.079,0.0,0.0,0.0,0.0,0.0,0.0,0.0,0.0,0.0,0.0,0.0,1.6099,1.6038,0.0,1.6397,1.6313,1.6194,1.6194,1.6194,1.6194,1.6194,1.6166,1.6137,1.6137,1.6081,1.6039,1.6039,1.601,1.5983,1.5942,1.5942,1.5913,1.5827,1.6094,1.6353,1.661,1.6866,1.7158,1.7503,1.7503,1.7503,1.7503,1.7503,1.7503,1.7519,1.7922,1.8257,1.8571,1.9462,1.9992,2.034,2.1083,2.1365,2.1398,2.1726,2.184,2.1855,2.1928,2.2001,2.2089,2.2168,2.2257,2.2296,2.2296,2.2363,2.2432,2.2338,2.238,2.2501,2.2659,2.2565,2.246,2.246,2.2394,2.2363,2.2632,2.2565,2.2542,2.2812,2.2734,2.2718,2.3041,2.3599,2.4308,2.5193,2.5964,2.6585,2.7049,2.6989,2.6956,2.7084,2.7459,2.7936,2.8526,2.8954,2.9257,2.9421,2.9381,2.9661,3.027,2.9417,2.9337,3.0191,2.9721,2.9879,3.0687,3.1476,3.2137,3.2619,3.344,3.3807,0.0,0.0,0.0,0.0,0.0,0.0,0.0,0.0,0.0,0.0,0.0,1.6315,1.6248,1.6289,1.6285,1.6171,1.613,1.61,1.6039,1.6024,1.6024,1.6024,1.6071,1.6102,1.6102,1.6045,1.6018,1.6018,1.5901,1.5872,1.5947,1.5947,1.595,1.597,1.6191,1.6436,1.662,1.6879,1.7158,1.7503,1.7503,1.7503,1.7503,1.7503,1.7503,1.7503,1.7503,1.7851,1.8406,1.8472,1.8902,1.9568,2.0307,2.0635,2.0799,2.152,2.1832,2.1897,2.2013,2.2118,2.224,2.2268,2.231,2.2338,2.238,2.2542,2.2646,2.2432,2.2538,2.2751,2.2777,2.2747,2.2751,2.2777,2.2565,2.2446,2.2712,2.2747,2.2812,2.3079,2.3121,2.3367,2.4153,2.4603,2.5239,2.6423,2.7224,2.7701,2.7701,2.7428,2.7369,2.7672,2.773,2.7844,2.8088,2.9137,2.9475,2.8748,2.9503,2.9704,2.9033,2.9062,2.9445,3.0191,3.0265,3.0705,3.1513,3.2247,3.2638,3.2729,3.3458,3.3807,0.0,0.0,0.0,0.0,0.0,0.0,0.0,0.0,0.0,0.0,0.0,1.653,1.6517,1.653,1.637,1.582,1.5552,1.5239,1.4701,1.4637,1.4637,1.4637,1.5085,1.5424,1.5424,1.5395,1.5395,1.5395,1.4891,1.489,1.5564,1.5547,1.585,1.6512,1.6528,1.6662,1.6917,1.698,1.7158,1.7503,1.7503,1.7503,1.7503,1.7503,1.7503,1.7503,1.7503,1.7586,1.7768,1.8274,1.8592,1.8807,1.9548,2.0191,2.0718,2.0882,2.1356,2.1926,2.2167,2.2364,2.2531,2.2691,2.2686,2.2659,2.2859,2.2825,2.2738,2.2884,2.2973,2.306,2.3265,2.317,2.3072,2.3277,2.3121,2.301,2.3265,2.3157,2.3096,2.3359,2.3236,2.3367,2.4153,2.4366,2.4923,2.6377,2.7224,2.7701,2.7701,2.7642,2.7627,2.7701,2.7883,2.8034,2.8102,2.8631,2.8876,2.8712,2.898,2.9356,2.9814,2.9898,3.0026,3.021,3.0815,3.1531,3.2339,3.2509,3.2913,3.355,3.3715,3.3807,0.0,0.0,0.0,0.0,0.0,0.0,0.0,0.0,0.0,0.0,1.6841,1.6942,1.6815,1.6602,1.6298,1.5823,1.5247,1.4787,1.4519,1.4401,1.4342,1.4342,1.4642,1.4838,1.4729,1.4716,1.4716,1.4716,1.4406,1.4441,1.4999,1.528,1.5688,1.6199,1.6495,1.6763,1.7005,1.7005,1.7158,1.7503,1.7503,1.7503,1.7503,1.7503,1.7503,1.7503,1.7503,1.7503,1.7519,1.7872,1.8021,1.8087,1.8803,1.9611,2.0404,2.0655,2.1339,2.2175,2.2378,2.2527,2.2694,2.2925,2.2955,2.291,2.306,2.3096,2.3102,2.3096,2.3194,2.3324,2.3452,2.3394,2.3359,2.3598,2.3365,2.3164,2.3429,2.3383,2.3371,2.3609,2.3535,2.3802,2.4992,2.5843,2.6577,2.7231,2.7792,2.8128,2.8128,2.8,2.794,2.8115,2.8106,2.8156,2.8326,2.8525,2.8675,2.8694,2.9138,2.9594,3.007,3.0882,3.1328,3.1335,3.177,3.2375,3.3183,3.3183,3.3385,3.3807,3.3807,3.3807,0.0,0.0,0.0,0.0,0.0,0.0,0.0,0.0,0.0,0.0,1.729,1.7361,1.7142,1.6685,1.6221,1.5875,1.5021,1.4401,1.4444,1.4318,1.4218,1.4207,1.4307,1.4306,1.4104,1.4081,1.4057,1.4036,1.3929,1.3988,1.4325,1.49,1.5384,1.5767,1.6356,1.6788,1.7068,1.7097,1.7224,1.7503,1.7503,1.7503,1.7503,1.7503,1.7503,1.7503,1.7503,1.7503,1.7503,1.7498,1.7498,1.7565,1.8128,1.8947,1.9904,2.0485,2.1377,2.234,2.2625,2.2769,2.2876,2.3128,2.3188,2.3194,2.3212,2.3359,2.3452,2.3271,2.3376,2.3542,2.3542,2.3542,2.3598,2.3753,2.3495,2.3283,2.3497,2.3542,2.3634,2.3945,2.423,2.4846,2.6186,2.7622,2.8505,2.8228,2.8422,2.86,2.86,2.8352,2.8281,2.8574,2.8352,2.8313,2.8574,2.86,2.8679,2.8881,2.953,3.0084,3.0484,3.1796,3.2622,3.2803,3.2803,3.3115,3.3807,3.3807,3.3807,3.3807,3.3807,3.3807,0.0,0.0,0.0,0.0,0.0,0.0,0.0,0.0,0.0,0.0,1.7244,1.7566,1.7531,1.6959,1.6253,1.5585,1.463,1.3777,1.3154,1.3038,1.3025,1.3038,1.3531,1.3807,1.3604,1.3593,1.3521,1.3351,1.2801,1.2837,1.3674,1.3914,1.4675,1.609,1.6336,1.6761,1.7439,1.7439,1.7451,1.7503,1.7503,1.7503,1.7503,1.7503,1.7503,1.7503,1.7503,1.7503,1.7503,1.7505,1.75,1.7517,1.7671,1.8288,1.9227,2.0001,2.096,2.2009,2.29,2.3289,2.3417,2.3635,2.358,2.3474,2.3657,2.362,2.3538,2.3667,2.3732,2.3753,2.3753,2.3753,2.3764,2.3795,2.3753,2.3721,2.3753,2.3753,2.3963,2.4701,2.5968,2.6989,2.7206,2.8002,2.8587,2.8531,2.8574,2.86,2.86,2.8562,2.8562,2.8587,2.8562,2.8562,2.8587,2.86,2.8902,2.9616,2.9864,3.0615,3.2027,3.2407,3.2931,3.3623,3.3642,3.3697,3.3807,3.3807,3.3807,3.3807,3.3807,3.3807,0.0,0.0,0.0,0.0,0.0,0.0,0.0,0.0,1.5787,1.672,1.7182,1.7504,1.7771,1.7224,1.6462,1.5692,1.4759,1.3901,1.3275,1.3062,1.2965,1.2964,1.323,1.3339,1.3127,1.3012,1.2951,1.2972,1.2602,1.2645,1.3284,1.3723,1.434,1.5167,1.5982,1.6564,1.6874,1.7283,1.7503,1.7503,1.7503,1.7503,1.7503,1.7503,1.7503,1.7503,1.7503,1.7529,1.7617,1.7681,1.7772,1.7844,1.7816,1.841,1.9298,1.9956,2.0879,2.1942,2.2941,2.3393,2.352,2.3732,2.3732,2.3678,2.3774,2.3732,2.3696,2.3774,2.3806,2.3806,2.3806,2.3806,2.3806,2.3806,2.3806,2.3806,2.3806,2.3806,2.4031,2.4846,2.6312,2.7405,2.7405,2.8075,2.86,2.86,2.86,2.86,2.86,2.86,2.86,2.86,2.86,2.86,2.86,2.8637,2.8989,2.9818,3.0381,3.1224,3.2396,3.2943,3.34,3.3788,3.3807,3.3807,3.3807,3.3807,3.3807,3.3807,3.3807,3.3807,0.0,0.0,0.0,0.0,0.0,0.0,0.0,0.0,1.4931,0.0,1.6733,1.7085,1.75,1.7097,1.6528,1.5916,1.4869,1.3981,1.3572,1.3346,1.3201,1.3184,1.3174,1.3102,1.2894,1.2751,1.2694,1.2801,1.2659,1.2713,1.3012,1.355,1.3996,1.4312,1.5518,1.6237,1.6398,1.7128,1.7503,1.7503,1.7503,1.7498,1.7498,1.7498,1.7498,1.7498,1.7498,1.7552,1.7658,1.7856,1.7992,1.8082,1.8117,1.8589,1.9339,2.0142,2.0976,2.1888,2.3025,2.3495,2.3598,2.3753,2.3806,2.3806,2.3806,2.3806,2.3806,2.3806,2.3806,2.3806,2.3806,2.3806,2.3806,2.3806,2.3806,2.3806,2.3806,2.4121,2.4592,2.519,2.659,2.7695,2.7695,2.8201,2.86,2.86,2.8612,2.8625,2.8625,2.8637,2.865,2.865,2.865,2.865,2.865,2.87,2.9155,3.0161,3.0857,3.1707,3.276,3.3396,3.3753,3.3807,3.3807,3.3807,3.3807,3.3807,3.3807,3.3807,3.3807,3.3807,0.0,0.0,0.0,0.0,0.0,0.0,0.0,0.0,0.0,1.4941,1.5566,1.6125,1.6349,1.6315,1.622,1.6185,1.4757,1.3634,1.3611,1.352,1.3454,1.3396,1.3379,1.3303,1.3102,1.3066,1.3002,1.2804,1.2801,1.2785,1.2804,1.3035,1.3455,1.4094,1.5051,1.581,1.6381,1.7128,1.7503,1.7503,1.7503,1.7498,1.75,1.75,1.75,1.75,1.7498,1.7498,1.7534,1.785,1.7994,1.8037,1.8345,1.8627,1.9001,2.0499,2.1255,2.1728,2.325,2.3785,2.3785,2.3795,2.3806,2.3806,2.3806,2.3806,2.3806,2.3806,2.3806,2.3806,2.3806,2.3806,2.3806,2.3806,2.3806,2.3806,2.3806,2.5009,2.6095,2.6131,2.7441,2.8545,2.8545,2.8582,2.86,2.86,2.8644,2.8682,2.8682,2.8749,2.8785,2.8785,2.8785,2.8785,2.8785,2.8785,2.9472,3.1021,3.1232,3.1997,3.357,3.3748,3.3807,3.3807,3.3807,3.3807,3.3807,3.3807,3.3807,3.3807,3.3807,3.3807,0.0,0.0,0.0,0.0,0.0,0.0,0.0,1.4265,1.4916,1.5057,1.5409,1.5844,1.6392,1.6373,1.6075,1.5526,1.4918,1.4289,1.3675,1.3577,1.3562,1.3528,1.3446,1.3379,1.3312,1.3181,1.3119,1.3173,1.3075,1.304,1.3173,1.326,1.3395,1.3645,1.4394,1.5312,1.6381,1.7128,1.7503,1.7503,1.7503,1.751,1.75,1.75,1.7617,1.7828,1.7817,1.7845,1.7899,1.8142,1.8378,1.8585,1.8658,1.8742,1.8993,2.0521,2.1171,2.1502,2.3221,2.3806,2.3806,2.3806,2.3806,2.3806,2.3806,2.3806,2.3806,2.3806,2.3806,2.3806,2.3806,2.3806,2.3806,2.3806,2.4194,2.4574,2.4574,2.5425,2.6349,2.6862,2.7857,2.86,2.86,2.86,2.8781,2.9282,2.8951,2.8844,2.939,2.9033,2.8749,2.8785,2.8798,2.8798,2.8798,2.8846,2.9546,3.1154,3.1327,3.208,3.3693,3.3793,3.3807,3.3807,3.3807,3.3807,3.3807,3.3807,3.3807,3.3807,3.3807,3.3807,1.2461,0.0,0.0,0.0,0.0,0.0,0.0,0.0,1.4665,1.4837,1.4976,1.523,1.5782,1.58,1.5586,1.5234,1.4899,1.447,1.3861,1.3702,1.3674,1.3674,1.3528,1.3421,1.3404,1.3286,1.3269,1.3388,1.3277,1.326,1.3388,1.3396,1.3506,1.376,1.4162,1.5034,1.642,1.6907,1.7266,1.7503,1.7557,1.7587,1.7606,1.7692,1.785,1.8063,1.8145,1.8163,1.8191,1.8418,1.8641,1.8834,1.8878,1.8896,1.9094,2.0655,2.1239,2.1474,2.3193,2.3806,2.3806,2.3806,2.3806,2.3741,2.3506,2.3596,2.3741,2.3506,2.3614,2.3806,2.3806,2.3806,2.3806,2.3806,2.4411,2.5063,2.5335,2.6041,2.6753,2.7296,2.8057,2.86,2.86,2.86,2.8781,2.9318,2.8951,2.8831,2.9426,2.9076,2.8779,2.8834,2.8846,2.8876,2.8876,2.8905,2.9496,3.0845,3.1243,3.199,3.3348,3.366,3.3807,3.3807,3.3807,3.3807,3.3807,3.3807,3.3807,3.3807,3.3807,3.3807,0.0,0.0,0.0,0.0,0.0,0.0,1.4452,0.0,1.3834,1.4132,1.42,1.4264,1.4453,1.4494,1.4709,1.5367,1.4706,1.4089,1.4107,1.3927,1.3801,1.3801,1.3616,1.3471,1.3412,1.3404,1.3396,1.3396,1.3396,1.3396,1.3396,1.3396,1.3726,1.4436,1.4361,1.4991,1.6424,1.6415,1.6752,1.7465,1.7635,1.7738,1.7811,1.8089,1.8198,1.8229,1.8426,1.8445,1.8341,1.8595,1.8715,1.8743,1.901,1.9095,1.9295,2.0916,2.1514,2.1731,2.327,2.3806,2.3806,2.3806,2.3806,2.3668,2.2952,2.3234,2.365,2.2934,2.3252,2.3806,2.3806,2.3806,2.3806,2.3806,2.4429,2.5244,2.6041,2.6844,2.7441,2.7441,2.8075,2.86,2.86,2.86,2.86,2.8636,2.8711,2.8743,2.8743,2.8852,2.8923,2.8905,2.8952,2.9005,2.9005,2.9005,2.9335,3.0155,3.0925,3.1733,3.2528,3.3348,3.3752,3.3752,3.3788,3.3807,3.3807,3.3807,3.3807,3.3807,3.3807,3.3807,1.2505,0.0,0.0,0.0,0.0,0.0,0.0,0.0,1.467,1.4222,1.4245,1.4387,1.4483,1.4501,1.4556,1.4757,1.4476,1.4203,1.4103,1.3923,1.3796,1.3796,1.3672,1.357,1.3554,1.3462,1.3404,1.3396,1.3405,1.3396,1.3396,1.3396,1.3489,1.3692,1.4145,1.4579,1.4972,1.5973,1.6564,1.6781,1.744,1.7822,1.7947,1.8076,1.8303,1.863,1.8631,1.8725,1.8878,1.8797,1.887,1.9002,1.907,1.9095,1.9295,2.0916,2.1514,2.1731,2.327,2.3806,2.3806,2.3806,2.3806,2.3759,2.356,2.3632,2.3759,2.3542,2.3632,2.3806,2.3806,2.3806,2.3806,2.3806,2.4864,2.5932,2.6149,2.7278,2.8286,2.833,2.8524,2.87,2.8737,2.8737,2.8949,2.9544,2.9629,2.9654,2.9722,2.9741,2.9569,2.9037,2.8994,2.9005,2.9005,2.9005,2.9335,3.0155,3.0411,3.0889,3.1696,3.2504,3.2931,3.2931,3.3495,3.3807,3.3807,3.3807,3.3807,3.3807,3.3807,3.3807,0.0,0.0,0.0,0.0,0.0,0.0,1.3931,1.4015,1.3988,0.0,1.3965,1.4179,1.398,1.4441,1.4749,1.4501,1.4429,1.4362,1.4274,1.4119,1.3984,1.3938,1.3786,1.3657,1.357,1.3496,1.3438,1.3404,1.3405,1.343,1.3487,1.3487,1.3487,1.3487,1.3837,1.4141,1.4396,1.5194,1.589,1.6508,1.7199,1.771,1.8086,1.8326,1.8577,1.8843,1.887,1.8949,1.9123,1.9336,1.9299,1.9095,1.9095,1.9095,1.9295,2.0916,2.1514,2.1731,2.327,2.3806,2.3806,2.3806,2.3806,2.3741,2.3433,2.356,2.3741,2.3433,2.356,2.3806,2.3806,2.3806,2.3806,2.3806,2.5027,2.6204,2.6204,2.7459,2.8612,2.865,2.8669,2.8706,2.8749,2.8773,2.8962,2.943,2.9503,2.9515,2.9558,2.9588,2.9441,2.9007,2.8975,2.9005,2.9005,2.9005,2.9207,2.9666,3.0008,3.0411,3.087,3.1678,3.21,3.21,3.2559,3.2963,3.3311,3.3642,3.3807,3.3807,3.3807,3.3807,1.2272,1.2419,0.0,0.0,0.0,0.0,1.4184,1.3527,1.2752,1.2993,1.3541,1.3821,1.3359,1.439,1.5088,1.4484,1.452,1.4587,1.4506,1.4381,1.4255,1.4148,1.3938,1.3728,1.3544,1.352,1.3488,1.3438,1.343,1.3479,1.3597,1.3605,1.3605,1.3605,1.3564,1.3793,1.4334,1.4356,1.5086,1.646,1.6922,1.7532,1.828,1.8716,1.8904,1.8922,1.9035,1.9087,1.9168,1.9866,1.9793,1.924,1.924,1.924,1.9421,2.0934,2.1514,2.1731,2.327,2.3806,2.3806,2.3806,2.3806,2.3668,2.3025,2.3288,2.365,2.3006,2.3288,2.3806,2.3806,2.3816,2.3816,2.3816,2.4976,2.6107,2.6197,2.7411,2.8516,2.8594,2.8675,2.8724,2.8718,2.8785,2.8822,2.8822,2.8913,2.8931,2.8828,2.8955,2.9008,2.8917,2.8952,2.9005,2.9005,2.9005,2.9005,2.9005,2.9666,3.0081,3.0081,3.0834,3.1268,3.1268,3.136,3.1751,3.2472,3.3275,3.3715,3.3807,3.3807,3.382,1.2184,1.2241,1.2338,1.2667,0.0,0.0,1.3289,1.3563,1.3767,0.0,1.3505,1.3701,1.3746,1.4553,1.5024,1.4427,1.492,1.5171,1.4587,1.4387,1.4287,1.4262,1.3984,1.3781,1.3748,1.3609,1.3545,1.3631,1.3591,1.3565,1.3597,1.3605,1.3605,1.3605,1.3686,1.3801,1.392,1.4558,1.5306,1.6192,1.6975,1.7815,1.8677,1.8833,1.8958,1.9062,1.9036,1.9053,1.9113,1.9276,1.9612,2.0065,2.0065,2.0065,2.0173,2.1151,2.1514,2.1731,2.327,2.3806,2.3806,2.3806,2.3806,2.3759,2.3632,2.3687,2.3759,2.3632,2.3728,2.3886,2.3886,2.3917,2.3966,2.3966,2.4712,2.5576,2.6224,2.7116,2.7978,2.8652,2.8761,2.881,2.8917,2.894,2.897,2.897,2.9502,2.9685,2.9044,2.9532,2.969,2.9049,2.8994,2.9005,2.9005,2.9005,2.9005,2.9005,2.9152,2.9225,2.9225,3.0008,3.043,3.043,3.1072,3.1488,3.1641,3.2449,3.3183,3.3807,3.3807,3.3908,1.2065,1.2138,1.2298,1.2733,0.0,0.0,0.0,1.3225,1.3033,1.2798,1.3147,1.3449,1.3275,1.4204,1.495,1.483,1.4872,1.481,1.4453,1.4368,1.4337,1.4263,1.4107,1.3966,1.3909,1.3723,1.3614,1.3646,1.3673,1.3741,1.3851,1.3851,1.3851,1.3851,1.3913,1.3895,1.3795,1.4202,1.4976,1.6115,1.6683,1.7603,1.8797,1.8932,1.9046,1.9095,1.9062,1.907,1.9132,1.9522,1.9938,2.0264,1.9866,2.0192,2.0952,2.1351,2.1739,2.2264,2.3397,2.3806,2.3806,2.3806,2.3806,2.3806,2.3806,2.3806,2.3816,2.3917,2.4208,2.4405,2.3987,2.4247,2.4506,2.4105,2.4679,2.5519,2.6366,2.723,2.8083,2.8842,2.8996,2.8991,2.8952,2.8982,2.9005,2.9005,2.9335,2.9464,2.906,2.9354,2.9445,2.9042,2.9005,2.9005,2.9005,2.9005,2.9005,2.9005,2.9005,2.9005,2.9005,2.939,2.9592,2.9592,3.0008,3.0393,3.0797,3.1219,3.2027,3.3201,3.3201,3.35,0.0,0.0,0.0,0.0,0.0,1.2717,0.0,0.0,0.0,0.0,0.0,0.0,0.0,0.0,1.4859,1.5005,1.4736,1.4437,1.4299,1.4344,1.429,1.404,1.4111,1.4161,1.4046,1.3891,1.3774,1.3696,1.3798,1.3931,1.4082,1.4107,1.4107,1.4107,1.4134,1.4057,1.3899,1.3899,1.4687,1.6226,1.6449,1.7346,1.8861,1.9019,1.9095,1.9095,1.9095,1.9095,1.915,1.9793,2.0155,2.0246,1.9576,2.0236,2.1542,2.1542,2.207,2.2889,2.3634,2.3878,2.3865,2.3865,2.3865,2.3865,2.3865,2.3886,2.3929,2.4114,2.4663,2.5059,2.4381,2.486,2.5311,2.4466,2.4861,2.567,2.6559,2.7344,2.8175,2.9099,2.9283,2.9198,2.8957,2.8952,2.9005,2.9005,2.9005,2.9005,2.9005,2.9005,2.9005,2.9005,2.9005,2.9028,2.9055,2.9055,2.9078,2.9104,2.9078,2.9078,2.9104,2.9078,2.9033,2.9005,2.9005,2.9317,2.9971,2.9971,3.0876,3.2601,3.2601,3.3062,0.0,0.0,0.0,0.0,1.3072,0.0,0.0,0.0,1.3098,1.2642,0.0,0.0,0.0,0.0,0.0,0.0,1.4695,1.4962,1.4306,1.4319,1.4137,1.3408,1.3841,1.4192,1.4179,1.4159,1.4114,1.4056,1.4069,1.408,1.4107,1.4107,1.4107,1.4107,1.421,1.4268,1.4237,1.4237,1.5056,1.6634,1.6664,1.7514,1.9062,1.9087,1.9095,1.9095,1.9095,1.9095,1.9113,1.9204,1.9648,2.0282,2.0192,2.0779,2.1688,2.1688,2.2253,2.3178,2.3971,2.4163,2.4074,2.4074,2.4074,2.4074,2.4074,2.4143,2.4266,2.4347,2.4984,2.5587,2.5375,2.6005,2.6469,2.5469,2.541,2.5829,2.6684,2.7045,2.7685,2.9242,2.9542,2.9435,2.9055,2.8994,2.9005,2.9005,2.9005,2.9005,2.9005,2.9005,2.9005,2.9005,2.9005,2.9078,2.9241,2.928,2.9345,2.9523,2.9365,2.9345,2.9523,2.9365,2.9174,2.9005,2.9005,2.9042,2.9133,2.9133,3.0326,3.2601,3.2601,3.3165,0.0,0.0,0.0,0.0,0.0,0.0,1.268,0.0,1.2732,0.0,0.0,0.0,0.0,0.0,0.0,0.0,1.4548,0.0,1.419,1.4269,1.4417,1.4634,1.4898,1.5195,1.5498,1.5214,1.495,1.4805,1.4891,1.4762,1.4296,1.4673,1.4702,1.4228,1.4268,1.43,1.43,1.43,1.5103,1.6693,1.6693,1.7545,1.9095,1.9095,1.9095,1.9095,1.9095,1.9095,1.9095,1.9095,1.9295,1.9603,1.9679,2.0821,2.2346,2.1879,2.2582,2.3841,2.4183,2.4257,2.4219,2.4219,2.4219,2.4219,2.4312,2.4321,2.433,2.4476,2.5098,2.5706,2.5685,2.6336,2.6783,2.5891,2.618,2.6744,2.711,2.7683,2.8472,2.9559,2.9769,2.9681,2.9395,2.9353,2.9353,2.9353,2.9353,2.9312,2.9185,2.9163,2.9127,2.8998,2.9005,2.9089,2.9283,2.9304,2.9385,2.9589,2.9523,2.9513,2.9598,2.9523,2.9375,2.9174,2.9163,2.9163,2.9163,2.9163,2.9987,3.1563,3.1783,3.2402,1.3852,0.0,0.0,0.0,0.0,0.0,0.0,0.0,0.0,0.0,0.0,0.0,0.0,0.0,0.0,0.0,0.0,1.4217,0.0,1.4213,0.0,0.0,1.5809,1.6261,1.6653,1.6274,1.586,1.5485,1.5555,1.5248,1.4441,1.4912,1.4922,1.4349,1.4306,1.43,1.43,1.43,1.5103,1.6693,1.6693,1.7545,1.9095,1.9095,1.9095,1.9095,1.9129,1.9129,1.9113,1.9423,1.9386,1.9216,1.98,2.1103,2.2618,2.2019,2.2916,2.441,2.441,2.4393,2.4348,2.4303,2.4321,2.4375,2.4469,2.4452,2.4462,2.4631,2.5408,2.6207,2.6234,2.7056,2.7648,2.6795,2.7179,2.7729,2.7755,2.8351,2.9112,2.984,2.9988,2.9929,2.9786,2.9681,2.9608,2.9608,2.9608,2.9551,2.9405,2.9385,2.9324,2.9181,2.9171,2.9249,2.9455,2.9456,2.9532,2.9672,2.9734,2.9716,2.9608,2.9653,2.9589,2.9395,2.9385,2.9385,2.9385,2.9385,2.9764,3.049,3.0991,3.1794,0.0,0.0,0.0,1.3559,0.0,0.0,0.0,0.0,1.2422,0.0,0.0,0.0,0.0,0.0,0.0,0.0,0.0,0.0,0.0,0.0,0.0,0.0,0.0,0.0,1.7173,1.7101,1.6731,1.5933,1.571,1.5244,1.4447,1.4423,1.4416,1.4398,1.4331,1.43,1.43,1.43,1.5103,1.6693,1.6693,1.7545,1.9095,1.9095,1.9095,1.9122,1.9245,1.9211,1.9185,2.0218,2.0112,1.9463,2.1166,2.1933,2.2118,2.2099,2.3195,2.4692,2.4692,2.4594,2.4469,2.4339,2.4393,2.4495,2.4503,2.4586,2.473,2.4854,2.6126,2.7434,2.7362,2.8574,2.9572,2.856,2.8439,2.857,2.8647,2.8789,2.9166,3.0025,3.0178,3.0197,3.0178,2.9872,2.9608,2.9608,2.9608,2.9598,2.9598,2.9598,2.9589,2.9589,2.9589,2.9662,2.9864,2.988,2.988,2.9888,3.0064,3.0019,2.9617,2.9796,2.9805,2.9598,2.9598,2.9598,2.9598,2.9598,2.9617,2.9664,3.0442,3.1689,1.4705,1.4622,1.4353,1.4336,1.3666,1.3048,0.0,0.0,0.0,0.0,0.0,0.0,0.0,0.0,0.0,0.0,0.0,0.0,0.0,0.0,0.0,0.0,0.0,0.0,0.0,1.7533,1.7482,1.6632,1.6984,1.6661,1.5331,1.5763,1.5549,1.4435,1.4337,1.43,1.43,1.43,1.5149,1.6821,1.6821,1.7698,1.93,1.93,1.93,1.9308,1.9346,1.9338,1.937,2.0306,2.0166,1.9494,2.07,2.1555,2.2171,2.27,2.3666,2.4707,2.4742,2.4738,2.4695,2.466,2.4668,2.4711,2.4696,2.4727,2.4794,2.4985,2.5849,2.6844,2.7444,2.8403,2.915,2.8802,2.9212,2.9515,2.8951,2.9329,2.9841,3.0128,3.0211,3.0211,3.0211,3.0079,3.0011,3.0011,3.0011,2.9945,2.9822,2.9805,2.9742,2.9617,2.9608,2.9681,2.988,3.0019,3.0106,3.0106,3.0157,3.0142,2.9992,3.0057,3.0011,2.9794,2.9805,2.9805,2.9805,2.9805,2.9872,3.0011,3.0288,3.0849,1.4505,1.4549,1.4455,1.4424,1.3711,1.3093,1.3313,1.2793,1.232,0.0,0.0,0.0,0.0,0.0,0.0,0.0,0.0,0.0,0.0,1.5214,0.0,0.0,0.0,0.0,0.0,0.0,1.7706,1.7393,1.7582,1.7256,1.6212,1.641,1.6054,1.4975,1.4581,1.4375,1.4338,1.4622,1.5474,1.6908,1.7195,1.8051,1.9402,1.9402,1.9402,1.9402,1.9445,1.9459,1.9533,2.0792,2.0602,1.9685,2.152,2.2203,2.2226,2.2742,2.3697,2.4715,2.4776,2.4809,2.4809,2.4827,2.4834,2.4834,2.4837,2.4844,2.4865,2.505,2.5901,2.691,2.7548,2.8535,2.9357,2.9357,2.9784,3.0051,2.9471,2.9803,3.0211,3.0211,3.0211,3.0211,3.0211,3.0211,3.0211,3.0211,3.0211,3.015,3.0026,3.0011,2.9972,2.982,2.9811,2.9872,3.0003,3.0128,3.0211,3.0211,3.0211,3.0211,3.0211,3.0211,3.0142,3.0011,3.0011,3.0011,3.0011,3.0011,3.0064,3.0211,3.0211,3.0342]}]]